[[{"header":{"parameterUnit":"m.s-1","parameterCategory":1,"la1":30.6,"la2":28.766,"lo1":-90.7593,"lo2":-88.6598,"dy":0.0162,"dx":0.0183,"nx":116,"ny":114,"refTime":"2023-08-08T12:00:00:Z","depth":0,"parameterNumber":2,"parameterNumberName":"U-component_of_WINDS"},"data":[0.0,0.0,0.0,0.0,0.0,0.0,0.0,0.0,0.0,0.0,0.0,0.0,0.0,0.0,0.0,0.0,0.0,0.0,0.0,0.0,0.0,0.0,0.0,0.0,0.0,0.0,0.0,0.0,0.0,0.0,0.0,0.0,0.0,0.0,0.0,0.0,0.0,0.0,0.0,0.0,0.0,0.0,0.0,0.0,0.0,0.0,0.0,0.0,0.0,0.0,0.0,0.0,0.0,0.0,0.0,0.0,0.0,0.0,0.0,0.0,0.0,0.0,0.0,0.0,0.0,0.0,0.0,0.0,0.0,0.0,0.0,0.0,0.0,0.0,0.0,0.0,0.0,0.0,0.0,0.0,0.0,0.0,0.0,0.0,0.0,0.0,0.0,0.0,0.0,0.0,0.0,0.0,0.0,0.0,0.0,0.0,0.0,0.0,0.0,0.0,0.0,0.0,0.0,0.0,0.0,0.0,0.0,0.0,0.0,0.0,0.0,0.0,0.0,0.0,0.0,0.0,0.0,0.0,0.0,0.0,0.0,0.0,0.0,0.0,0.0,0.0,0.0,0.0,0.0,0.0,0.0,0.0,0.0,0.0,0.0,0.0,0.0,0.0,0.0,0.0,0.0,0.0,0.0,0.0,0.0,0.0,0.0,0.0,0.0,0.0,0.0,0.0,0.0,0.0,0.0,0.0,0.0,0.0,0.0,0.0,0.0,0.0,0.0,0.0,0.0,0.0,0.0,0.0,0.0,0.0,0.0,0.0,0.0,0.0,0.0,0.0,0.0,0.0,0.0,0.0,0.0,0.0,0.0,0.0,0.0,0.0,0.0,0.0,0.0,0.0,0.0,0.0,0.0,0.0,0.0,0.0,0.0,0.0,0.0,0.0,0.0,0.0,0.0,0.0,0.0,0.0,0.0,0.0,0.0,0.0,0.0,0.0,0.0,0.0,0.0,0.0,0.0,0.0,0.0,0.0,0.0,0.0,0.0,0.0,0.0,0.0,0.0,0.0,0.0,0.0,0.0,0.0,0.0,0.0,0.0,0.0,0.0,0.0,0.0,0.0,0.0,0.0,0.0,0.0,0.0,0.0,0.0,0.0,0.0,0.0,0.0,0.0,0.0,0.0,0.0,0.0,0.0,0.0,0.0,0.0,0.0,0.0,0.0,0.0,0.0,0.0,0.0,0.0,0.0,0.0,0.0,0.0,0.0,0.0,0.0,0.0,0.0,0.0,0.0,0.0,0.0,0.0,0.0,0.0,0.0,0.0,0.0,0.0,0.0,0.0,0.0,0.0,0.0,0.0,0.0,0.0,0.0,0.0,0.0,0.0,0.0,0.0,0.0,0.0,0.0,0.0,0.0,0.0,0.0,0.0,0.0,0.0,0.0,0.0,0.0,0.0,0.0,0.0,0.0,0.0,0.0,0.0,0.0,0.0,0.0,0.0,0.0,0.0,0.0,0.0,0.0,0.0,0.0,0.0,0.0,0.0,0.0,0.0,0.0,0.0,0.0,0.0,0.0,0.0,0.0,0.0,0.0,0.0,0.0,0.0,0.0,0.0,0.0,0.0,0.0,0.0,0.0,0.0,0.0,0.0,0.0,0.0,0.0,0.0,0.0,0.0,0.0,0.0,0.0,0.0,0.0,0.0,0.0,0.0,0.0,0.0,0.0,0.0,0.0,0.0,0.0,0.0,0.0,0.0,0.0,0.0,0.0,0.0,0.0,0.0,0.0,0.0,0.0,0.0,0.0,0.0,0.0,0.0,0.0,0.0,0.0,0.0,0.0,0.0,0.0,0.0,0.0,0.0,0.0,0.0,0.0,0.0,0.0,0.0,0.0,0.0,0.0,0.0,0.0,0.0,0.0,0.0,0.0,0.0,0.0,0.0,0.0,0.0,0.0,0.0,0.0,0.0,0.0,0.0,0.0,0.0,0.0,0.0,0.0,0.0,0.0,0.0,0.0,0.0,0.0,0.0,0.0,0.0,0.0,0.0,0.0,0.0,0.0,0.0,0.0,0.0,0.0,0.0,0.0,0.0,0.0,0.0,0.0,0.0,0.0,0.0,0.0,0.0,0.0,0.0,0.0,0.0,0.0,0.0,0.0,0.0,0.0,0.0,0.0,0.0,0.0,0.0,0.0,0.0,0.0,0.0,0.0,0.0,0.0,0.0,0.0,0.0,0.0,0.0,0.0,0.0,0.0,0.0,0.0,0.0,0.0,0.0,0.0,0.0,0.0,0.0,0.0,0.0,0.0,0.0,0.0,0.0,0.0,0.0,0.0,0.0,0.0,0.0,0.0,0.0,0.0,0.0,0.0,0.0,0.0,0.0,0.0,0.0,0.0,0.0,0.0,0.0,0.0,0.0,0.0,0.0,0.0,0.0,0.0,0.0,0.0,0.0,0.0,0.0,0.0,0.0,0.0,0.0,0.0,0.0,0.0,0.0,0.0,0.0,0.0,0.0,0.0,0.0,0.0,0.0,0.0,0.0,0.0,0.0,0.0,0.0,0.0,0.0,0.0,0.0,0.0,0.0,0.0,0.0,0.0,0.0,0.0,0.0,0.0,0.0,0.0,0.0,0.0,0.0,0.0,0.0,0.0,0.0,0.0,0.0,0.0,0.0,0.0,0.0,0.0,0.0,0.0,0.0,0.0,0.0,0.0,0.0,0.0,0.0,0.0,0.0,0.0,0.0,0.0,0.0,0.0,0.0,0.0,0.0,0.0,0.0,0.0,0.0,0.0,0.0,0.0,0.0,0.0,0.0,0.0,0.0,0.0,0.0,0.0,0.0,0.0,0.0,0.0,0.0,0.0,0.0,0.0,0.0,0.0,0.0,0.0,0.0,0.0,0.0,0.0,0.0,0.0,0.0,0.0,0.0,0.0,0.0,0.0,0.0,0.0,0.0,0.0,0.0,0.0,0.0,0.0,0.0,0.0,0.0,0.0,0.0,0.0,0.0,0.0,0.0,0.0,0.0,0.0,0.0,0.0,0.0,0.0,0.0,0.0,0.0,0.0,0.0,0.0,0.0,0.0,0.0,0.0,0.0,0.0,0.0,0.0,0.0,0.0,0.0,0.0,0.0,0.0,0.0,0.0,0.0,0.0,0.0,0.0,0.0,0.0,0.0,0.0,0.0,0.0,0.0,0.0,0.0,0.0,0.0,0.0,0.0,0.0,0.0,0.0,0.0,0.0,0.0,0.0,0.0,0.0,0.0,0.0,0.0,0.0,0.0,0.0,0.0,0.0,0.0,0.0,0.0,0.0,0.0,0.0,0.0,0.0,0.0,0.0,0.0,0.0,0.0,0.0,0.0,0.0,0.0,0.0,0.0,0.0,0.0,0.0,0.0,0.0,0.0,0.0,0.0,0.0,0.0,0.0,0.0,0.0,0.0,0.0,0.0,0.0,0.0,0.0,0.0,0.0,0.0,0.0,0.0,0.0,0.0,0.0,0.0,0.0,0.0,0.0,0.0,0.0,0.0,0.0,0.0,0.0,0.0,0.0,0.0,0.0,0.0,0.0,0.0,0.0,0.0,0.0,0.0,0.0,0.0,0.0,0.0,0.0,0.0,0.0,0.0,0.0,0.0,0.0,0.0,0.0,0.0,0.0,0.0,0.0,0.0,0.0,0.0,0.0,0.0,0.0,0.0,0.0,0.0,0.0,0.0,0.0,0.0,0.0,0.0,0.0,0.0,0.0,0.0,0.0,0.0,0.0,0.0,0.0,0.0,0.0,0.0,0.0,0.0,0.0,0.0,0.0,0.0,0.0,0.0,0.0,0.0,0.0,0.0,0.0,0.0,0.0,0.0,0.0,0.0,0.0,0.0,0.0,0.0,0.0,0.0,0.0,0.0,0.0,0.0,0.0,0.0,0.0,0.0,0.0,0.0,0.0,0.0,0.0,0.0,0.0,0.0,0.0,0.0,0.0,0.0,0.0,0.0,0.0,0.0,0.0,0.0,0.0,0.0,0.0,0.0,0.0,0.0,0.0,0.0,0.0,0.0,0.0,0.0,0.0,0.0,0.0,0.0,0.0,0.0,0.0,0.0,0.0,0.0,0.0,0.0,0.0,0.0,0.0,0.0,0.0,0.0,0.0,0.0,0.0,0.0,0.0,0.0,0.0,0.0,0.0,0.0,0.0,0.0,0.0,0.0,0.0,0.0,0.0,0.0,0.0,0.0,0.0,0.0,0.0,0.0,0.0,0.0,0.0,0.0,0.0,0.0,0.0,0.0,0.0,0.0,0.0,0.0,0.0,0.0,0.0,0.0,0.0,0.0,0.0,0.0,0.0,0.0,0.0,0.0,0.0,0.0,0.0,0.0,0.0,0.0,0.0,0.0,0.0,0.0,0.0,0.0,0.0,0.0,0.0,0.0,0.0,0.0,0.0,0.0,0.0,0.0,0.0,0.0,0.0,0.0,0.0,0.0,0.0,0.0,0.0,0.0,0.0,0.0,0.0,0.0,0.0,0.0,0.0,0.0,0.0,0.0,0.0,0.0,0.0,0.0,0.0,0.0,0.0,0.0,0.0,0.0,0.0,0.0,0.0,0.0,0.0,0.0,0.0,0.0,0.0,0.0,0.0,0.0,0.0,0.0,0.0,0.0,0.0,0.0,0.0,0.0,0.0,0.0,0.0,0.0,0.0,0.0,0.0,0.0,0.0,0.0,0.0,0.0,0.0,0.0,0.0,0.0,0.0,0.0,0.0,0.0,0.0,0.0,0.0,0.0,0.0,0.0,0.0,0.0,0.0,0.0,0.0,0.0,0.0,0.0,0.0,0.0,0.0,0.0,0.0,0.0,0.0,0.0,0.0,0.0,0.0,0.0,0.0,0.0,0.0,0.0,0.0,0.0,0.0,0.0,0.0,0.0,0.0,0.0,0.0,0.0,0.0,0.0,0.0,0.0,0.0,0.0,0.0,0.0,0.0,0.0,0.0,0.0,0.0,0.0,0.0,0.0,0.0,0.0,0.0,0.0,0.0,0.0,0.0,0.0,0.0,0.0,0.0,0.0,0.0,0.0,0.0,0.0,0.0,0.0,0.0,0.0,0.0,0.0,0.0,0.0,0.0,0.0,0.0,0.0,0.0,0.0,0.0,0.0,0.0,0.0,0.0,0.0,0.0,0.0,0.0,0.0,0.0,0.0,0.0,0.0,0.0,0.0,0.0,0.0,0.0,0.0,0.0,0.0,0.0,0.0,0.0,0.0,0.0,0.0,0.0,0.0,0.0,0.0,0.0,0.0,0.0,0.0,0.0,0.0,0.0,0.0,0.0,0.0,0.0,0.0,0.0,0.0,0.0,0.0,0.0,0.0,0.0,0.0,0.0,0.0,0.0,0.0,0.0,0.0,0.0,0.0,0.0,0.0,0.0,0.0,0.0,0.0,0.0,0.0,0.0,0.0,0.0,0.0,0.0,0.0,0.0,0.0,0.0,0.0,0.0,0.0,0.0,0.0,0.0,0.0,0.0,0.0,0.0,0.0,0.0,0.0,0.0,0.0,0.0,0.0,0.0,0.0,0.0,0.0,0.0,0.0,0.0,0.0,0.0,0.0,0.0,0.0,0.0,0.0,0.0,0.0,0.0,0.0,0.0,0.0,0.0,0.0,0.0,0.0,0.0,0.0,0.0,0.0,0.0,0.0,0.0,0.0,0.0,0.0,0.0,0.0,0.0,0.0,0.0,0.0,0.0,0.0,0.0,0.0,0.0,0.0,0.0,0.0,0.0,0.0,0.0,0.0,0.0,0.0,0.0,0.0,0.0,0.0,0.0,0.0,0.0,0.0,0.0,0.0,0.0,0.0,0.0,0.0,0.0,0.0,0.0,0.0,0.0,0.0,0.0,0.0,0.0,0.0,0.0,0.0,0.0,0.0,0.0,0.0,0.0,0.0,0.0,0.0,0.0,0.0,0.0,0.0,0.0,0.0,0.0,0.0,0.0,0.0,0.0,0.0,0.0,0.0,0.0,0.0,0.0,0.0,0.0,0.0,0.0,0.0,0.0,0.0,0.0,0.0,0.0,0.0,0.0,0.0,0.0,0.0,0.0,0.0,0.0,0.0,0.0,0.0,0.0,0.0,0.0,0.0,0.0,0.0,0.0,0.0,0.0,0.0,-2.8532,0.0,0.0,0.0,0.0,0.0,0.0,0.0,0.0,0.0,0.0,0.0,0.0,0.0,0.0,0.0,0.0,0.0,0.0,0.0,0.0,0.0,0.0,0.0,0.0,0.0,0.0,0.0,0.0,0.0,0.0,0.0,0.0,0.0,0.0,0.0,0.0,0.0,0.0,0.0,0.0,0.0,0.0,0.0,0.0,0.0,0.0,0.0,0.0,0.0,0.0,0.0,0.0,0.0,0.0,0.0,0.0,0.0,0.0,0.0,0.0,0.0,0.0,0.0,0.0,0.0,0.0,0.0,0.0,0.0,0.0,0.0,0.0,0.0,0.0,0.0,0.0,0.0,0.0,0.0,0.0,0.0,0.0,0.0,0.0,0.0,0.0,0.0,0.0,0.0,0.0,0.0,0.0,0.0,0.0,0.0,0.0,0.0,0.0,0.0,0.0,0.0,0.0,0.0,0.0,0.0,0.0,0.0,0.0,0.0,0.0,0.0,0.0,0.0,0.0,0.0,0.0,-2.8514,0.0,0.0,0.0,0.0,0.0,0.0,0.0,0.0,0.0,0.0,0.0,0.0,0.0,0.0,0.0,0.0,0.0,0.0,0.0,0.0,0.0,0.0,0.0,0.0,0.0,0.0,0.0,0.0,0.0,0.0,0.0,0.0,0.0,0.0,0.0,0.0,0.0,0.0,0.0,0.0,0.0,0.0,0.0,0.0,0.0,0.0,0.0,0.0,0.0,0.0,0.0,0.0,0.0,0.0,0.0,0.0,0.0,0.0,0.0,0.0,0.0,0.0,0.0,0.0,0.0,0.0,0.0,0.0,0.0,0.0,0.0,0.0,0.0,0.0,0.0,0.0,0.0,0.0,0.0,0.0,0.0,0.0,0.0,0.0,0.0,0.0,0.0,0.0,0.0,0.0,0.0,0.0,0.0,0.0,0.0,0.0,0.0,0.0,0.0,0.0,0.0,0.0,0.0,0.0,0.0,0.0,0.0,0.0,-3.0162,-3.0249,-3.037,-3.037,-3.0838,-3.1568,-3.0176,-3.0071,-3.0747,-2.9342,0.0,0.0,0.0,0.0,0.0,0.0,0.0,0.0,0.0,0.0,0.0,0.0,0.0,0.0,0.0,0.0,0.0,0.0,0.0,0.0,0.0,0.0,0.0,0.0,0.0,0.0,0.0,0.0,0.0,0.0,0.0,0.0,0.0,0.0,0.0,0.0,0.0,0.0,-2.8387,-2.8405,-2.8268,-2.7908,-2.5977,0.0,0.0,0.0,0.0,0.0,0.0,0.0,0.0,0.0,0.0,0.0,0.0,0.0,0.0,0.0,0.0,0.0,0.0,0.0,0.0,0.0,0.0,0.0,0.0,0.0,0.0,0.0,0.0,0.0,0.0,0.0,0.0,0.0,0.0,0.0,0.0,0.0,0.0,0.0,0.0,0.0,0.0,0.0,-2.6555,-2.7301,0.0,0.0,0.0,0.0,0.0,0.0,0.0,0.0,0.0,0.0,0.0,0.0,0.0,-3.0526,-3.1232,-3.1455,-3.1856,-3.2455,-3.275,-3.3226,-3.3837,-3.3837,-3.398,-3.4213,-3.3984,0.0,-2.9964,-2.9857,0.0,0.0,0.0,0.0,0.0,0.0,0.0,0.0,0.0,0.0,0.0,0.0,0.0,0.0,0.0,0.0,0.0,0.0,0.0,0.0,0.0,0.0,0.0,0.0,0.0,0.0,0.0,0.0,0.0,0.0,0.0,0.0,0.0,0.0,0.0,0.0,-2.8165,-2.9477,-3.0493,-3.0493,-3.0493,-3.0459,-2.965,-2.8019,-2.5844,-2.5093,0.0,0.0,0.0,0.0,0.0,0.0,0.0,0.0,0.0,0.0,0.0,0.0,0.0,0.0,0.0,0.0,0.0,0.0,0.0,0.0,0.0,0.0,0.0,0.0,0.0,0.0,0.0,0.0,0.0,0.0,0.0,0.0,0.0,0.0,0.0,0.0,0.0,0.0,0.0,-2.5692,-2.6652,-2.7263,-2.7444,-2.7514,0.0,0.0,0.0,0.0,0.0,0.0,0.0,0.0,0.0,-3.1869,-3.2316,-3.2771,-3.3305,-3.3343,-3.35,-3.381,-3.394,-3.4189,-3.4504,-3.4504,-3.456,-3.4706,-3.4706,-3.3879,-3.2546,-3.2529,-3.2057,-3.1359,0.0,0.0,0.0,0.0,-3.0924,-3.0577,0.0,0.0,0.0,0.0,0.0,0.0,0.0,0.0,0.0,0.0,0.0,0.0,0.0,0.0,0.0,-2.1088,0.0,0.0,0.0,0.0,0.0,0.0,0.0,0.0,0.0,0.0,0.0,0.0,-2.9797,-3.0548,-3.1617,-3.1727,-3.18,-3.18,-3.1839,-3.0222,-2.7421,-2.6983,-2.6005,0.0,0.0,0.0,0.0,0.0,0.0,0.0,0.0,0.0,0.0,0.0,0.0,0.0,0.0,0.0,0.0,0.0,0.0,0.0,0.0,0.0,0.0,0.0,0.0,0.0,0.0,0.0,0.0,0.0,0.0,0.0,0.0,0.0,0.0,0.0,0.0,0.0,0.0,-2.6432,-2.7378,-2.7844,-2.8546,-2.8762,0.0,0.0,0.0,0.0,0.0,0.0,-3.2334,-3.2865,-3.3254,-3.3519,-3.4,-3.4389,-3.4651,-3.454,-3.4571,-3.4763,-3.4782,-3.4906,-3.5098,-3.5098,-3.5155,-3.5303,-3.5303,-3.5303,-3.5249,-3.4754,-3.4523,-3.4504,-3.4446,-3.4389,-3.4351,-3.4297,-3.3911,-3.346,0.0,0.0,0.0,0.0,0.0,0.0,0.0,0.0,0.0,0.0,0.0,0.0,0.0,0.0,-2.198,-2.211,-2.2049,-2.1855,0.0,0.0,0.0,0.0,0.0,0.0,0.0,0.0,0.0,-2.894,-3.0332,-3.1052,-3.1142,-3.1579,-3.18,-3.18,-3.18,-3.1733,-3.1493,-2.9779,-2.8988,-2.8577,0.0,0.0,0.0,0.0,0.0,0.0,0.0,0.0,0.0,0.0,0.0,0.0,0.0,0.0,0.0,0.0,0.0,0.0,0.0,0.0,0.0,0.0,0.0,0.0,0.0,0.0,0.0,0.0,0.0,0.0,0.0,0.0,0.0,0.0,0.0,0.0,0.0,0.0,0.0,-3.0576,-3.0587,0.0,0.0,0.0,0.0,-3.1323,-3.263,-3.3587,-3.396,-3.401,-3.4164,-3.4433,-3.4409,-3.4427,-3.4504,-3.4446,-3.4772,-3.5449,-3.5584,-3.6025,-3.6686,-3.6686,-3.6766,-3.6884,-3.6884,-3.6884,-3.6779,-3.5285,-3.4615,-3.4504,-3.4504,-3.4373,-3.4241,-3.4411,-3.4411,-3.4373,0.0,0.0,0.0,0.0,0.0,0.0,0.0,0.0,0.0,0.0,0.0,0.0,0.0,-2.1991,-2.2995,-2.3034,-2.3573,-2.3969,-2.4076,0.0,0.0,0.0,0.0,0.0,0.0,0.0,-2.8928,-3.0329,-3.1259,-3.1693,-3.162,-3.1875,-3.1983,-3.1983,-3.2037,-3.2073,-3.2038,-3.1215,-3.0155,-2.888,-2.7582,-2.5713,0.0,0.0,0.0,0.0,0.0,0.0,0.0,0.0,0.0,0.0,0.0,0.0,0.0,0.0,0.0,0.0,0.0,0.0,0.0,0.0,0.0,0.0,0.0,0.0,0.0,0.0,0.0,0.0,0.0,0.0,0.0,0.0,0.0,0.0,0.0,0.0,0.0,-3.0844,-3.1619,0.0,-3.2033,-3.2693,-3.3117,-3.3083,-3.3755,-3.4276,-3.4465,-3.4896,-3.5196,-3.5314,-3.5725,-3.6007,-3.6106,-3.6007,-3.6088,-3.6349,-3.6387,-3.6546,-3.6809,-3.6809,-3.6871,-3.7007,-3.7007,-3.7007,-3.6954,-3.641,-3.6162,-3.6106,-3.6106,-3.6068,-3.6011,-3.6087,-3.577,-3.5313,0.0,0.0,0.0,0.0,0.0,0.0,0.0,0.0,0.0,0.0,0.0,-2.1162,-2.1411,-2.2971,-2.4002,-2.4002,-2.4619,-2.4975,-2.4933,0.0,0.0,0.0,0.0,0.0,0.0,-2.8698,-2.9925,-3.1203,-3.1766,-3.193,-3.1731,-3.1984,-3.209,-3.209,-3.2144,-3.2161,-3.2144,-3.1982,-3.1214,-3.002,-2.9399,-2.7782,-2.5619,0.0,0.0,0.0,0.0,0.0,0.0,0.0,0.0,0.0,0.0,0.0,0.0,0.0,0.0,0.0,0.0,0.0,0.0,0.0,0.0,0.0,0.0,0.0,0.0,0.0,0.0,0.0,0.0,0.0,0.0,0.0,0.0,0.0,0.0,0.0,-3.1331,-3.1625,-3.2764,-3.3477,-3.3424,-3.4192,-3.4658,-3.4606,-3.502,-3.5329,-3.546,-3.5856,-3.6116,-3.6215,-3.6871,-3.7274,-3.7376,-3.7498,-3.7598,-3.7638,-3.7638,-3.7638,-3.7638,-3.7638,-3.7679,-3.7797,-3.7797,-3.7797,-3.7797,-3.7797,-3.7797,-3.7707,-3.72,-3.7007,-3.7007,-3.7007,-3.6654,-3.6197,0.0,0.0,0.0,0.0,0.0,0.0,0.0,0.0,0.0,0.0,-2.1308,-2.2401,-2.3386,-2.4402,-2.5005,-2.5005,-2.5005,-2.4666,-2.3912,-2.3797,0.0,0.0,0.0,0.0,-2.905,-2.9538,-3.0292,-3.1397,-3.1749,-3.1749,-3.1435,-3.1894,-3.2126,-3.2143,-3.2143,-3.2161,-3.2178,-3.2178,-3.2284,-3.2301,-3.0144,-2.9299,-2.8939,0.0,0.0,0.0,0.0,0.0,0.0,0.0,0.0,0.0,0.0,0.0,0.0,0.0,0.0,0.0,0.0,0.0,0.0,0.0,0.0,0.0,0.0,0.0,0.0,0.0,0.0,0.0,0.0,0.0,0.0,0.0,0.0,0.0,-3.0952,-3.191,-3.2872,-3.3149,-3.4101,-3.4537,-3.4037,-3.5103,-3.5845,-3.5845,-3.6431,-3.6869,-3.7042,-3.6923,-3.6904,-3.7077,-3.7697,-3.8061,-3.8146,-3.8797,-3.9182,-3.9284,-3.9284,-3.9284,-3.9284,-3.9284,-3.9284,-3.9284,-3.9284,-3.9284,-3.9284,-3.9284,-3.9284,-3.9164,-3.7674,-3.706,-3.7042,-3.7042,-3.7025,-3.7007,0.0,0.0,0.0,0.0,0.0,0.0,0.0,0.0,0.0,0.0,-2.1413,-2.2463,-2.3343,-2.4516,-2.5158,-2.5005,-2.5005,-2.497,-2.4879,0.0,0.0,0.0,0.0,0.0,-2.9154,-3.0408,-3.1175,-3.1397,-3.1984,-3.2161,-3.1966,-3.2214,-3.2599,-3.3125,-3.3125,-3.344,-3.3983,-3.3983,-3.4019,-3.3897,-3.2109,-3.0748,-2.9666,0.0,0.0,0.0,0.0,0.0,0.0,0.0,0.0,0.0,0.0,0.0,0.0,0.0,0.0,0.0,0.0,0.0,0.0,0.0,0.0,0.0,0.0,0.0,0.0,0.0,0.0,0.0,0.0,0.0,0.0,0.0,0.0,-3.3193,-3.2283,-3.3292,-3.4375,-3.4988,-3.5306,-3.5666,-3.6092,-3.6472,-3.6673,-3.6673,-3.6845,-3.7196,-3.7777,-3.7755,-3.8018,-3.8655,-3.8842,-3.8947,-3.8968,-3.9157,-3.9263,-3.9284,-3.9284,-3.9284,-3.9284,-3.9284,-3.9284,-3.9284,-3.9284,-3.9284,-3.9284,-3.9284,-3.9284,-3.9249,-3.8831,-3.8304,-3.7795,-3.7795,-3.7444,-3.7007,0.0,0.0,0.0,0.0,0.0,0.0,0.0,0.0,0.0,0.0,-2.1598,-2.259,-2.3924,-2.4729,-2.5139,-2.5005,-2.4826,-2.4663,-2.4591,0.0,0.0,0.0,0.0,-2.9332,-2.9972,-3.1196,-3.184,-3.1821,-3.2144,-3.2319,-3.2284,-3.2687,-3.309,-3.3512,-3.3845,-3.4267,-3.4706,-3.4706,-3.4706,-3.46,-3.3651,-3.2734,-3.1868,-3.0963,-3.0379,-2.9955,-2.8918,-2.8818,-2.9055,-2.8208,0.0,0.0,0.0,0.0,0.0,0.0,0.0,0.0,0.0,0.0,0.0,0.0,0.0,0.0,0.0,0.0,0.0,0.0,0.0,0.0,0.0,0.0,0.0,0.0,-3.3688,-3.5003,-3.4569,-3.5166,-3.5811,-3.625,-3.6303,-3.6478,-3.6954,-3.7007,-3.713,-3.7426,-3.7444,-3.7795,-3.8567,-3.8602,-3.881,-3.9284,-3.9638,-3.9796,-3.9796,-4.0112,-4.0424,-4.0779,-4.0779,-4.0937,-4.1236,-4.1236,-4.1236,-4.1236,-4.1236,-4.106,-4.0779,-4.0779,-4.0586,0.0,0.0,0.0,0.0,0.0,-3.8339,-3.7953,0.0,0.0,0.0,0.0,0.0,0.0,0.0,0.0,0.0,0.0,0.0,-2.2724,-2.4827,-2.506,-2.5045,-2.5064,-2.4589,-2.4166,0.0,0.0,0.0,-2.8112,-2.9226,-3.0224,-3.1125,-3.182,-3.2214,-3.2336,-3.2267,-3.2284,-3.2423,-3.3161,-3.3547,-3.3669,-3.4477,-3.4863,-3.497,-3.497,-3.497,-3.497,-3.497,-3.4864,-3.4545,-3.3173,-3.2762,-3.2754,-3.1301,-3.0868,-3.0925,-3.0629,0.0,0.0,0.0,0.0,0.0,0.0,0.0,0.0,0.0,0.0,0.0,0.0,0.0,0.0,0.0,0.0,0.0,0.0,0.0,0.0,0.0,0.0,0.0,0.0,-3.5618,-3.7007,-3.7007,-3.7007,-3.7007,-3.7007,-3.7077,-3.713,-3.713,-3.7218,-3.7514,-3.8199,-3.8251,-3.8602,-3.9371,0.0,0.0,0.0,0.0,-4.0766,-4.0766,-4.1481,-4.2219,-4.2938,-4.2938,-4.3272,-4.3904,-4.3904,-4.3904,-4.3904,-4.3904,-4.3535,-4.2938,-4.2938,-4.2517,-4.171,-4.0077,-3.9445,-3.9427,-3.9319,-3.9284,-3.9284,0.0,0.0,0.0,0.0,0.0,0.0,0.0,0.0,0.0,-2.1828,-2.2129,-2.2994,-2.523,-2.5333,-2.5298,-2.5473,-2.4771,-2.4434,0.0,0.0,-2.8262,-2.8725,-3.0278,-3.1219,-3.1428,-3.1766,-3.1984,-3.2002,-3.2249,-3.2371,-3.2423,-3.3161,-3.3863,-3.4495,-3.5249,-3.5952,-3.6568,-3.6568,-3.6568,-3.6568,-3.6568,-3.5813,-3.467,-3.4365,-3.4294,-3.4259,-3.3972,-3.3883,-3.3704,-3.2479,-3.21,-3.1902,-3.0683,0.0,0.0,0.0,0.0,0.0,0.0,0.0,0.0,0.0,0.0,0.0,0.0,0.0,0.0,0.0,0.0,0.0,0.0,0.0,0.0,-3.4514,-3.5948,-3.7007,-3.7007,-3.7007,-3.7007,-3.7007,-3.7532,-3.7883,-3.7883,-3.848,-3.8918,-3.9056,-3.9076,-3.9427,-4.0221,-4.0274,-4.0533,-4.1148,-4.1938,-4.2359,-4.2359,-4.3079,-4.3535,-4.3693,0.0,0.0,-4.3904,-4.3904,-4.3904,-4.3904,-4.3904,-4.3816,-4.3693,-4.3693,-4.3605,-4.3237,-4.1095,-4.0274,-4.0204,-3.955,-3.9284,-3.9284,0.0,0.0,0.0,0.0,0.0,0.0,0.0,0.0,0.0,0.0,-2.1261,-2.1885,-2.3572,-2.392,-2.4084,-2.4143,-2.4462,0.0,0.0,-2.7583,-2.9011,-2.9679,-3.0861,-3.1485,-3.1485,-3.1748,-3.1984,-3.2144,-3.2144,-3.2232,-3.2423,-3.3582,-3.432,-3.4759,-3.5881,-3.6619,-3.7007,-3.7007,-3.7007,-3.7007,-3.7007,-3.655,-3.5848,-3.5848,-3.5848,-3.5848,-3.5848,-3.5848,-3.574,-3.4996,-3.476,-3.4614,-3.3885,-3.2897,-3.1519,0.0,0.0,0.0,0.0,0.0,0.0,0.0,0.0,0.0,0.0,0.0,0.0,0.0,0.0,-3.2285,0.0,0.0,-3.4898,-3.5758,-3.6512,-3.713,-3.7496,-3.7549,-3.7549,-3.7549,-3.7883,-3.8269,-3.8673,-3.9056,-3.948,-3.9866,-3.9901,-4.0411,-4.1587,-4.1639,-4.199,-4.2728,-4.3149,-4.336,-4.336,-4.3711,-4.4097,-4.4501,-4.4501,-4.4694,-4.5062,-4.5062,-4.5062,-4.5062,-4.5062,-4.4852,-4.4466,-4.4062,-4.3904,-4.3781,-4.2663,-4.1973,-4.1552,-4.0762,-4.0463,-4.0463,0.0,0.0,0.0,0.0,0.0,0.0,0.0,0.0,0.0,0.0,-2.0376,-2.0728,-2.1861,-2.247,-2.2797,0.0,0.0,0.0,0.0,-2.7886,-2.9282,-3.0452,-3.1078,-3.1389,-3.1389,-3.1691,-3.1984,-3.2301,-3.2108,-3.2144,-3.2423,-3.3828,-3.4547,-3.4776,-3.6164,-3.6849,-3.7007,-3.7007,-3.7007,-3.7007,-3.7007,-3.7007,-3.7007,-3.7007,-3.7007,-3.7007,-3.7007,-3.7007,-3.7007,-3.7007,-3.7007,-3.7007,-3.7007,-3.5782,-3.3788,-3.0925,-3.0199,0.0,0.0,0.0,0.0,0.0,0.0,0.0,0.0,0.0,-3.0418,-3.2109,-3.2907,-3.3645,-3.4843,-3.5067,-3.5494,-3.6788,-3.713,-3.7409,-3.8023,-3.8234,-3.8392,-3.855,-3.8567,-3.8831,-3.948,-3.9673,-4.0077,-4.0906,-4.0959,-4.1534,-4.2938,-4.3026,-4.3289,-4.3869,-4.4044,-4.4132,-4.4132,-4.4273,-4.4676,-4.5326,-4.5326,-4.5617,-4.6196,-4.6196,-4.6196,-4.6196,-4.6196,-4.5863,-4.5273,-4.4606,-4.4343,-4.4325,-4.4185,-4.3763,-4.3149,-4.2342,-4.1955,-4.1832,0.0,0.0,0.0,0.0,0.0,0.0,0.0,0.0,0.0,0.0,0.0,0.0,0.0,0.0,0.0,0.0,0.0,0.0,-2.6395,-2.8515,-2.9969,-3.0493,-3.0855,-3.1055,-3.1055,-3.1387,-3.1673,-3.1966,-3.2214,-3.2354,-3.2423,-3.3248,-3.4021,-3.4741,-3.5565,-3.6338,-3.7007,-3.7007,-3.7007,-3.7007,-3.7007,-3.7007,-3.7007,-3.7007,-3.7007,-3.7007,-3.7007,-3.7007,-3.7007,-3.7007,-3.7007,-3.7007,-3.7007,-3.6845,-3.5782,-3.137,0.0,-2.9447,-2.5468,-2.6337,-2.8769,-3.0516,-3.057,-3.1284,0.0,0.0,-3.3973,-3.6176,-3.6696,-3.6745,-3.6733,-3.6731,-3.6788,-3.697,-3.7549,-3.8023,-3.8093,-3.8725,-3.9427,-4.0151,-4.0239,-4.0274,-4.0362,-4.0955,-4.1692,-4.2482,-4.2552,-4.2903,-4.3728,-4.3781,-4.3799,-4.3904,-4.4589,-4.4975,-4.4975,-4.5617,-4.5986,-4.6074,-4.6074,-4.6126,-4.6196,-4.6196,-4.6196,-4.6196,-4.6196,-4.6144,-4.6074,-4.5968,-4.5933,-4.5881,-4.522,-4.4922,-4.4746,-4.3939,-4.3237,-4.2675,0.0,0.0,0.0,0.0,0.0,0.0,0.0,0.0,0.0,0.0,0.0,0.0,0.0,0.0,0.0,0.0,0.0,0.0,-2.6476,-2.8469,-2.9969,-3.076,-3.1098,-3.1291,-3.1291,-3.1579,-3.1785,-3.1894,-3.2037,-3.2214,-3.2423,-3.3161,-3.367,-3.4038,-3.5248,-3.5985,-3.6338,-3.6814,-3.7007,-3.7007,-3.7007,-3.7007,-3.7007,-3.7007,-3.7007,-3.6845,-3.5548,-3.5025,0.0,0.0,-3.5025,-3.52,-3.6573,-3.6125,-3.4416,-3.1066,-3.0455,0.0,-3.0457,-3.0169,0.0,0.0,-3.3139,-3.342,-3.5436,-3.5091,-3.4855,-3.6744,-3.7124,-3.7105,-3.7027,-3.7007,-3.7148,0.0,-3.79,-3.8427,-3.9357,-3.98,-4.027,-4.1042,-4.113,-4.113,-4.113,-4.1832,-4.2447,-4.2758,-4.3202,-4.3781,-4.4553,-4.501,-4.5466,-4.5905,-4.6713,-4.7116,-4.7099,-4.7432,-4.7565,-4.753,-4.753,-4.753,-4.753,-4.753,-4.7284,-4.6906,-4.6906,-4.6618,-4.6196,-4.6196,-4.6196,-4.6161,-4.5846,-4.574,-4.5582,-4.4343,-4.3693,-4.3447,0.0,0.0,0.0,0.0,0.0,0.0,0.0,0.0,0.0,0.0,0.0,0.0,0.0,0.0,0.0,0.0,0.0,0.0,0.0,-2.7817,-2.9393,-3.0503,-3.1075,-3.1406,-3.1485,-3.1748,-3.1948,-3.2037,-3.2037,-3.2161,-3.2406,-3.295,-3.3301,-3.3546,-3.4669,-3.5406,-3.5845,-3.6426,-3.6814,-3.7007,-3.7007,-3.7007,-3.7007,-3.7007,-3.663,-3.5911,-3.4272,-3.3621,0.0,0.0,-3.2635,-3.2866,-3.4556,-3.4023,-3.2337,-3.0157,-2.9724,-3.0399,-3.249,0.0,0.0,-3.4326,-3.5084,-3.5315,-3.5518,-3.5417,-3.5586,-3.6768,-3.7007,-3.7007,-3.7007,-3.7007,-3.7253,-3.7988,-3.8304,-3.8918,-4.0309,-4.0678,-4.099,-4.1552,-4.1797,-4.1938,-4.1938,-4.2464,-4.2991,-4.3412,-4.4132,-4.4887,-4.5694,-4.6425,-4.7091,-4.7678,-4.8275,-4.8556,-4.8495,-4.8573,-4.8468,-4.8205,-4.8205,-4.8074,-4.7863,-4.7863,-4.7565,-4.7064,-4.7064,-4.6748,-4.6196,-4.6196,-4.6196,-4.6196,-4.6196,-4.6196,-4.6056,-4.4957,-4.4413,-4.4237,0.0,0.0,0.0,0.0,0.0,0.0,0.0,0.0,0.0,0.0,0.0,0.0,0.0,0.0,0.0,0.0,0.0,0.0,0.0,-2.6445,-2.8123,-2.9397,-3.0433,-3.1173,-3.1485,-3.1748,-3.2073,-3.2371,-3.2371,-3.2388,-3.2406,-3.2423,-3.2809,-3.3512,-3.3546,-3.4406,-3.5792,-3.5827,-3.6285,-3.7007,-3.7007,-3.7007,-3.7007,-3.7007,-3.5715,-3.3888,-3.3736,0.0,0.0,0.0,-3.0212,-3.0228,-3.0298,-3.0361,0.0,-2.8516,-2.735,0.0,0.0,0.0,-3.2536,-3.4442,-3.5933,-3.6974,-3.7185,-3.7071,-3.6952,-3.6989,-3.7007,-3.7007,-3.7007,-3.7007,-3.7253,-3.7988,-3.874,-3.955,-4.0379,-4.1113,-4.1569,-4.1604,-4.2289,-4.2763,0.0,-4.2798,-4.343,-4.4922,-4.5705,-4.6477,-4.7292,-4.8047,-4.8425,-4.846,-4.8477,-4.8495,-4.8495,-4.8573,-4.8205,-4.7432,-4.7432,-4.7029,-4.6267,-4.6267,-4.6267,-4.6249,-4.6249,-4.6214,-4.6196,-4.6196,-4.6196,-4.6196,-4.6196,-4.6196,-4.6196,-4.6144,-4.567,-4.5062,0.0,0.0,0.0,0.0,0.0,0.0,0.0,0.0,0.0,0.0,0.0,0.0,0.0,0.0,0.0,0.0,0.0,0.0,0.0,-2.5326,-2.718,-2.8803,-3.0158,-3.1157,-3.1748,-3.2073,-3.2179,-3.2073,-3.2284,-3.2406,-3.2406,-3.2406,-3.2529,-3.2792,-3.3283,-3.3792,-3.4318,-3.4846,-3.5513,-3.6197,-3.6197,-3.6513,-3.6845,-3.5427,-3.4424,-3.3425,0.0,0.0,0.0,-2.8301,-2.8281,-2.8833,-3.0293,-3.0065,0.0,-2.7277,-2.7344,-2.8365,-3.0473,0.0,-3.419,-3.6033,-3.6742,-3.7066,-3.7259,-3.7143,-3.7007,-3.7007,-3.6501,-3.6117,-3.6249,-3.6155,-3.653,-3.7944,-3.8802,-3.9761,-4.1042,-4.1446,-4.1604,-4.1604,-4.2324,0.0,0.0,0.0,0.0,-4.574,-4.6555,-4.7345,-4.8099,-4.8872,-4.9293,-4.9293,-4.9802,-4.9837,-4.9293,-4.9311,-4.8942,-4.8205,-4.8152,-4.7986,-4.7723,-4.7783,-4.7503,-4.7011,-4.7011,-4.6688,-4.6196,-4.6196,-4.6196,-4.6196,-4.6196,-4.6196,-4.6196,-4.6196,-4.6039,-4.5828,0.0,0.0,0.0,0.0,0.0,0.0,0.0,0.0,0.0,0.0,0.0,0.0,0.0,0.0,0.0,0.0,0.0,0.0,0.0,0.0,-2.5435,-2.6778,-2.8115,-2.9047,-2.954,-2.99,-3.009,-3.0113,-3.0889,-3.1377,-3.162,-3.2161,-3.2406,-3.2423,-3.2897,-3.3248,-3.3529,-3.4056,-3.4419,-3.4613,-3.4669,-3.4695,-3.453,-3.3194,-3.2218,0.0,0.0,0.0,0.0,-2.5798,-2.6125,-2.686,-2.8189,-2.8232,-2.7731,-2.7318,-2.8059,-2.9595,-3.2348,-3.3789,-3.4995,-3.6935,-3.7259,-3.7182,-3.7447,-3.7297,-3.7105,-3.7105,-3.6305,-3.5657,-3.5851,-3.5783,-3.6139,-3.7519,-3.8384,-3.9399,-4.0925,-4.1088,-4.1197,-4.156,-4.2552,0.0,0.0,0.0,0.0,-4.6582,-4.7625,-4.8433,-4.8907,-4.9416,-4.9706,-4.9706,-4.9908,-4.9785,-4.9276,-4.9258,-4.8889,-4.817,-4.7854,-4.7721,-4.7822,-4.7882,-4.7668,-4.7272,-4.7272,-4.6947,-4.6488,-4.6488,-4.6488,-4.6488,-4.6488,-4.6488,-4.6464,-4.6392,-4.6343,-4.6343,0.0,0.0,0.0,0.0,0.0,0.0,0.0,0.0,0.0,0.0,0.0,0.0,0.0,0.0,0.0,0.0,0.0,0.0,0.0,0.0,0.0,-2.361,-2.4668,-2.5298,-2.533,-2.5735,-2.6262,-2.6914,-2.8415,-2.9467,-3.013,-3.1515,-3.2161,-3.2161,-3.2161,-3.2547,-3.3212,-3.3229,-3.2884,-3.2337,-3.2468,-3.171,-3.0492,-3.0519,0.0,0.0,0.0,0.0,0.0,0.0,0.0,0.0,0.0,0.0,-2.687,-2.8658,-2.9452,-3.0521,-3.3973,-3.4744,-3.505,-3.7086,-3.7447,-3.741,-3.7793,-3.7558,-3.7278,-3.7239,-3.6326,-3.5591,0.0,0.0,-3.6077,-3.6795,-3.7635,-3.8677,-4.012,-4.0256,-4.0525,0.0,0.0,0.0,0.0,0.0,0.0,-4.745,0.0,-4.9653,-4.9653,-4.9653,-4.9653,-4.9653,-4.8907,-4.8477,-4.8425,-4.839,-4.8047,-4.7327,-4.6547,-4.6343,-4.659,-4.659,-4.6749,-4.6998,-4.6998,-4.6998,-4.6998,-4.6998,-4.6998,-4.6998,-4.6998,-4.6998,-4.6957,-4.6684,-4.659,-4.6566,0.0,0.0,0.0,0.0,0.0,0.0,0.0,0.0,0.0,0.0,0.0,0.0,0.0,0.0,0.0,0.0,0.0,0.0,0.0,0.0,0.0,0.0,0.0,0.0,0.0,0.0,0.0,0.0,0.0,-2.8394,-2.8558,-2.8965,-2.9124,-2.9124,-2.9124,-2.9225,-2.9412,-2.9393,-2.9652,-3.0036,0.0,-3.0293,-3.0351,0.0,0.0,0.0,0.0,0.0,0.0,0.0,0.0,0.0,0.0,0.0,-3.08,-3.1407,-3.2457,-3.3587,-3.4497,-3.5747,-3.6885,-3.7282,-3.7447,-3.7521,-3.7466,-3.7372,-3.7069,-3.6205,-3.5374,-3.473,0.0,0.0,0.0,-3.6712,-3.8213,0.0,-4.0547,-4.0984,0.0,0.0,0.0,-4.422,-4.5027,-4.6484,0.0,0.0,-4.8591,-4.8819,-4.8819,-4.8819,-4.8819,-4.8819,-4.8626,-4.8257,-4.7696,-4.7074,-4.6688,-4.6495,-4.6302,-4.6343,-4.659,-4.659,-4.6749,-4.6998,-4.6998,-4.6998,-4.6998,-4.6998,-4.6998,-4.6998,-4.6998,-4.6998,-4.6957,-4.6684,-4.659,-4.6566,0.0,0.0,0.0,0.0,0.0,0.0,0.0,0.0,0.0,0.0,0.0,0.0,0.0,0.0,0.0,0.0,0.0,0.0,0.0,0.0,0.0,0.0,0.0,0.0,0.0,0.0,0.0,0.0,0.0,0.0,0.0,-2.7702,-2.8006,-2.8006,-2.8006,-2.8006,-2.8006,-2.8061,0.0,0.0,0.0,0.0,0.0,0.0,0.0,0.0,0.0,0.0,0.0,0.0,0.0,-3.0413,-3.2155,-3.2538,-3.2497,-3.3351,0.0,-3.4976,-3.565,-3.6645,-3.7447,-3.7334,-3.7447,-3.7467,-3.6999,-3.6902,-3.6611,-3.554,-3.4603,0.0,0.0,0.0,0.0,0.0,0.0,0.0,-4.0123,-4.072,-4.1208,0.0,-4.3065,0.0,-4.5027,-4.6484,-4.7573,0.0,-4.8302,-4.8495,-4.8495,-4.8205,-4.808,-4.8181,-4.7854,-4.7516,-4.7232,-4.6652,-4.644,-4.656,-4.644,-4.6566,-4.6898,-4.6898,-4.7053,-4.7312,0.0,-4.7312,-4.7312,-4.7312,-4.7312,-4.7312,-4.7312,-4.7312,-4.7272,-4.7007,-4.6898,-4.6875,0.0,0.0,0.0,0.0,0.0,0.0,0.0,0.0,0.0,0.0,0.0,0.0,0.0,0.0,0.0,0.0,0.0,0.0,0.0,0.0,0.0,0.0,0.0,0.0,0.0,0.0,0.0,0.0,0.0,0.0,0.0,0.0,0.0,0.0,0.0,0.0,0.0,0.0,0.0,0.0,0.0,0.0,0.0,0.0,0.0,0.0,0.0,0.0,0.0,0.0,-3.1396,-3.2195,-3.3138,-3.3334,-3.349,-3.4961,-3.5364,-3.5634,-3.6973,-3.7353,-3.7372,-3.7372,-3.7521,-3.7431,-3.6599,-3.6383,-3.6059,-3.4973,0.0,0.0,-3.4355,0.0,-3.5291,-3.5945,0.0,-3.8592,-3.9437,-4.0078,-4.0747,-4.1547,-4.3217,-4.4534,-4.5099,-4.6421,-4.7299,-4.743,-4.7906,-4.8179,-4.8179,-4.7616,-4.7414,-4.77,-4.7009,-4.6754,-4.6998,-4.6772,-4.6772,-4.6998,-4.6754,-4.6893,-4.7302,-4.7302,-4.7446,-4.7717,-4.7717,-4.7717,-4.7717,-4.7717,-4.7717,-4.7717,-4.7717,-4.7717,-4.7657,-4.7407,-4.7302,-4.7276,0.0,0.0,0.0,0.0,0.0,0.0,0.0,0.0,0.0,0.0,-1.8851,-1.8955,0.0,0.0,0.0,0.0,0.0,0.0,0.0,0.0,0.0,0.0,0.0,0.0,0.0,0.0,0.0,0.0,0.0,0.0,0.0,0.0,0.0,0.0,0.0,0.0,0.0,0.0,0.0,0.0,0.0,0.0,0.0,0.0,0.0,0.0,0.0,0.0,0.0,0.0,-3.2636,-3.5101,-3.6738,-3.7131,-3.7022,-3.7309,-3.7273,-3.7198,-3.7486,-3.7667,-3.7793,-3.7793,-3.7828,-3.7577,-3.6621,-3.626,0.0,0.0,0.0,-3.3668,-3.4043,-3.4566,0.0,-3.6688,0.0,0.0,0.0,0.0,-4.1004,0.0,0.0,0.0,0.0,0.0,0.0,0.0,0.0,-4.66,-4.66,-4.668,-4.685,-4.7125,-4.6982,-4.6957,-4.6998,-4.6957,-4.6957,-4.6998,-4.6957,-4.7053,-4.7302,-4.7302,-4.7446,-4.7717,-4.7717,0.0,-4.7717,-4.7717,-4.7717,-4.7717,-4.7717,-4.7717,-4.7657,-4.7407,-4.7302,-4.7276,0.0,0.0,0.0,0.0,0.0,0.0,0.0,-1.7547,-1.8042,-1.8399,-1.8763,-1.8993,-1.8993,-1.9059,0.0,0.0,0.0,0.0,0.0,0.0,0.0,0.0,0.0,0.0,0.0,0.0,0.0,0.0,0.0,0.0,0.0,0.0,0.0,0.0,0.0,0.0,0.0,0.0,0.0,0.0,0.0,0.0,0.0,0.0,0.0,0.0,0.0,0.0,0.0,0.0,-3.1798,-3.5455,-3.7536,-3.8123,-3.8056,-3.7916,-3.7916,-3.7846,-3.7539,-3.7594,-3.7721,-3.7613,-3.7667,-3.7376,-3.5975,0.0,0.0,0.0,0.0,-3.3154,-3.3737,0.0,0.0,0.0,0.0,0.0,0.0,0.0,0.0,0.0,0.0,0.0,0.0,0.0,0.0,0.0,0.0,-4.6607,-4.6607,-4.6847,-4.6985,-4.6998,-4.7245,-4.7377,-4.7377,-4.7227,-4.7227,-4.7377,-4.7227,-4.7276,-4.7511,-4.7511,-4.7593,-4.7717,-4.7717,0.0,-4.7717,-4.7717,-4.7717,-4.7717,-4.7717,-4.7717,-4.7678,-4.7572,-4.7511,-4.749,0.0,0.0,0.0,0.0,0.0,0.0,0.0,-1.71,-1.771,-1.7908,-1.8296,-1.8576,-1.8609,-1.8937,-1.9176,0.0,0.0,0.0,0.0,0.0,0.0,0.0,0.0,0.0,0.0,0.0,0.0,0.0,0.0,0.0,0.0,0.0,0.0,0.0,0.0,0.0,0.0,0.0,0.0,0.0,0.0,0.0,0.0,0.0,0.0,0.0,0.0,0.0,0.0,0.0,-3.0097,-3.3597,-3.597,-3.7127,-3.7574,-3.7238,-3.7345,-3.7541,-3.7449,-3.7521,-3.7577,-3.7503,-3.7521,-3.7113,-3.544,-3.5132,0.0,0.0,-3.248,-3.2767,-3.3575,0.0,0.0,0.0,0.0,0.0,0.0,0.0,0.0,0.0,0.0,0.0,0.0,0.0,0.0,0.0,0.0,0.0,-4.707,-4.7209,-4.7254,-4.7138,-4.7508,-4.7717,-4.7717,-4.749,-4.749,-4.7696,-4.749,-4.749,-4.7717,-4.7717,-4.7717,-4.7717,-4.7717,0.0,-4.7717,-4.7717,-4.7717,-4.7717,-4.7717,-4.7717,-4.7717,-4.7717,-4.7717,-4.7717,0.0,0.0,0.0,0.0,0.0,0.0,0.0,-1.6519,-1.6749,-1.7298,-1.7259,-1.7219,-1.7354,-1.8509,-1.9302,0.0,0.0,0.0,0.0,0.0,0.0,0.0,0.0,0.0,0.0,0.0,0.0,0.0,0.0,0.0,0.0,0.0,0.0,0.0,0.0,0.0,0.0,0.0,0.0,0.0,0.0,0.0,0.0,0.0,0.0,0.0,0.0,0.0,0.0,0.0,0.0,-2.8665,-3.1071,-3.364,-3.5625,-3.4935,0.0,0.0,-3.7399,-3.7721,-3.7667,-3.8038,-3.7721,-3.6976,-3.5594,0.0,0.0,0.0,-3.2746,-3.3045,-3.373,-3.4451,0.0,0.0,0.0,0.0,0.0,0.0,0.0,0.0,0.0,0.0,0.0,0.0,0.0,0.0,0.0,0.0,-4.7298,-4.728,-4.7407,-4.7615,-4.7696,-4.7717,-4.7717,-4.7696,-4.7696,-4.7717,-4.7696,-4.7696,-4.7717,-4.7717,-4.7717,-4.7717,-4.7717,0.0,0.0,-4.7717,-4.7717,-4.7717,-4.7717,-4.7717,-4.7717,-4.7717,-4.7717,-4.7717,0.0,0.0,0.0,0.0,0.0,0.0,-1.6099,-1.6259,-1.6458,-1.6781,-1.6984,-1.7149,-1.7248,-1.7819,-1.8197,0.0,0.0,0.0,0.0,0.0,0.0,0.0,0.0,0.0,0.0,0.0,0.0,0.0,0.0,0.0,0.0,0.0,0.0,0.0,0.0,0.0,0.0,0.0,0.0,0.0,0.0,0.0,0.0,0.0,0.0,0.0,0.0,0.0,0.0,0.0,0.0,0.0,-2.7194,-2.9373,0.0,0.0,-3.495,-3.576,-3.7435,-3.7846,-3.7828,-3.7969,-3.7468,-3.6669,-3.5659,0.0,0.0,-3.3022,-3.2843,-3.3018,-3.3365,-3.3904,-3.4453,0.0,0.0,0.0,0.0,0.0,0.0,0.0,0.0,0.0,0.0,0.0,0.0,0.0,0.0,0.0,-4.7533,-4.7533,-4.7511,-4.7468,-4.7615,-4.7717,-4.7717,-4.7717,-4.7717,-4.7717,-4.7717,-4.7717,-4.7717,-4.7717,-4.7717,-4.7717,-4.7717,0.0,0.0,-4.7717,-4.7717,-4.7717,-4.7717,-4.7717,-4.7717,-4.7717,-4.7717,-4.7717,0.0,0.0,0.0,0.0,0.0,-1.59,-1.5871,-1.6025,-1.6169,-1.6229,-1.6502,-1.6715,-1.6764,-1.6828,-1.6875,-1.6875,0.0,0.0,0.0,0.0,0.0,0.0,0.0,0.0,0.0,0.0,0.0,-2.0168,0.0,0.0,0.0,0.0,0.0,0.0,0.0,0.0,0.0,0.0,0.0,0.0,0.0,0.0,0.0,0.0,0.0,0.0,0.0,0.0,0.0,0.0,0.0,0.0,0.0,0.0,0.0,0.0,-3.3842,-3.5201,-3.6826,-3.7578,-3.7899,-3.7969,-3.7301,-3.6429,0.0,0.0,0.0,-3.3134,-3.3005,-3.3058,-3.3123,-3.3661,-3.4089,0.0,0.0,0.0,0.0,0.0,0.0,0.0,0.0,0.0,0.0,0.0,0.0,0.0,0.0,0.0,-4.7717,-4.7717,-4.7615,-4.7428,-4.7615,-4.7717,-4.7717,-4.7717,-4.7717,-4.7717,-4.7717,-4.7717,-4.7717,-4.7717,-4.7717,-4.7717,-4.7717,0.0,0.0,-4.7717,-4.7717,-4.7717,-4.7717,-4.7717,-4.7717,-4.7717,-4.7717,-4.7717,0.0,0.0,0.0,0.0,0.0,0.0,-1.5813,-1.5799,-1.577,-1.5639,-1.5566,-1.5522,-1.5522,-1.5462,-1.5463,-1.561,0.0,0.0,0.0,0.0,0.0,0.0,0.0,0.0,0.0,0.0,-2.0304,-2.0304,-2.0371,-2.0405,0.0,0.0,0.0,0.0,0.0,0.0,0.0,0.0,0.0,0.0,0.0,0.0,0.0,0.0,0.0,0.0,0.0,0.0,0.0,0.0,0.0,0.0,0.0,0.0,0.0,0.0,-3.097,-3.3679,-3.5297,-3.6791,-3.7934,-3.8158,-3.7302,-3.6243,0.0,0.0,0.0,-3.324,-3.3203,-3.3309,-3.3309,-3.3942,-3.4455,-3.4315,0.0,0.0,0.0,0.0,0.0,0.0,0.0,0.0,0.0,0.0,0.0,0.0,0.0,0.0,-4.7717,-4.7717,-4.7717,-4.7696,-4.7717,-4.7717,-4.7717,-4.7717,-4.7717,-4.7717,-4.7717,-4.7717,-4.7717,-4.7717,-4.7717,-4.7717,0.0,0.0,0.0,-4.7717,-4.7717,-4.7717,-4.7717,-4.7717,-4.7717,-4.7717,-4.7717,-4.7717,0.0,0.0,0.0,0.0,0.0,0.0,0.0,-1.5927,-1.5827,-1.5755,-1.5726,-1.5712,-1.5712,-1.5682,-1.5712,-1.5799,0.0,0.0,0.0,0.0,0.0,0.0,0.0,0.0,0.0,0.0,-2.0321,-2.0371,-2.0252,-2.027,-2.0405,-2.027,-2.022,0.0,0.0,0.0,0.0,0.0,0.0,0.0,0.0,0.0,0.0,0.0,0.0,0.0,0.0,0.0,0.0,0.0,0.0,0.0,0.0,0.0,0.0,0.0,0.0,0.0,-3.3742,-3.4569,-3.4971,-3.5047,-3.4717,-3.4365,-3.4174,0.0,-3.3642,-3.3293,-3.3346,-3.345,-3.345,-3.3625,-3.3768,-3.3636,-3.4986,0.0,0.0,0.0,0.0,0.0,0.0,0.0,0.0,0.0,0.0,0.0,0.0,0.0,-4.7717,-4.7717,-4.7717,-4.7717,-4.7717,-4.7717,-4.7717,-4.7717,-4.7717,-4.7717,-4.7717,-4.7717,-4.7717,-4.7717,-4.7717,0.0,0.0,0.0,0.0,-4.7717,-4.7717,-4.7717,-4.7717,-4.7717,-4.7717,-4.7717,-4.7717,-4.7717,0.0,0.0,0.0,0.0,0.0,0.0,0.0,-1.597,-1.5885,-1.5885,-1.5856,-1.5856,-1.5913,-1.5884,-1.5912,-1.6041,0.0,0.0,0.0,0.0,0.0,0.0,0.0,0.0,0.0,-2.0131,-2.0354,-2.0371,-2.0289,-2.0323,-2.0424,-2.0306,-2.0306,-2.039,-2.0424,0.0,0.0,0.0,0.0,0.0,0.0,0.0,-2.0909,0.0,0.0,0.0,0.0,0.0,0.0,0.0,0.0,0.0,0.0,0.0,0.0,0.0,-2.8446,0.0,0.0,-3.3118,-3.3605,-3.3605,-3.3556,0.0,0.0,0.0,-3.3477,-3.3398,-3.3477,-3.3555,-3.3503,-3.3555,-3.3529,-3.3398,0.0,0.0,0.0,0.0,0.0,0.0,0.0,0.0,0.0,0.0,0.0,0.0,0.0,0.0,-4.7717,-4.7717,-4.7717,-4.7717,-4.7717,-4.7717,-4.7717,-4.7717,-4.7717,-4.7717,-4.7717,-4.7717,-4.7717,-4.7717,-4.7717,0.0,0.0,0.0,0.0,-4.7717,-4.7717,-4.7717,-4.7717,-4.7717,-4.7717,-4.7717,-4.7717,-4.7717,0.0,0.0,0.0,0.0,0.0,0.0,0.0,-1.597,-1.5942,-1.6011,-1.5956,-1.597,-1.6095,-1.6067,-1.6094,-1.6287,0.0,0.0,0.0,0.0,0.0,0.0,0.0,0.0,-1.903,-1.9842,-2.0248,-2.0244,-2.0365,-2.0464,-2.051,-2.051,-2.051,-2.051,-2.051,-2.0527,-2.0527,-2.0527,-2.0645,-2.0827,-2.0893,-2.1006,0.0,0.0,0.0,0.0,0.0,0.0,0.0,0.0,0.0,0.0,0.0,0.0,0.0,0.0,0.0,0.0,0.0,0.0,0.0,0.0,0.0,0.0,0.0,0.0,0.0,-3.3503,-3.3633,-3.3684,-3.3555,-3.3658,-3.3668,-3.3555,0.0,0.0,0.0,0.0,0.0,0.0,0.0,0.0,0.0,0.0,0.0,0.0,0.0,0.0,-4.7717,-4.7717,-4.7717,-4.7717,-4.7717,-4.7717,-4.7717,-4.7717,-4.7717,-4.7717,-4.7717,-4.7717,-4.7717,-4.7717,-4.7717,0.0,0.0,-4.7717,-4.7717,-4.7717,-4.7717,-4.7717,-4.7717,-4.7717,-4.7717,-4.7717,-4.7717,-4.7717,0.0,0.0,0.0,0.0,0.0,0.0,0.0,0.0,0.0,0.0,-1.6111,-1.6139,-1.618,-1.622,-1.6274,0.0,0.0,0.0,0.0,0.0,0.0,0.0,0.0,0.0,-1.8406,-1.8717,-1.9137,-1.9682,-1.9731,-2.0061,-2.0644,-2.0544,-2.051,-2.051,-2.061,-2.0712,-2.0811,-2.0811,-2.0893,-2.1038,-2.1103,-2.1151,0.0,0.0,0.0,0.0,-2.322,-2.4113,0.0,0.0,0.0,0.0,0.0,0.0,0.0,0.0,-2.7944,-2.884,-2.9669,0.0,-3.0297,-3.0297,0.0,0.0,0.0,0.0,0.0,0.0,0.0,0.0,0.0,0.0,0.0,0.0,0.0,0.0,0.0,0.0,0.0,0.0,0.0,0.0,0.0,0.0,0.0,0.0,0.0,-4.7717,-4.7717,-4.7717,-4.7717,-4.7717,-4.7717,-4.7717,-4.7717,-4.7717,-4.7717,-4.7717,-4.7717,-4.7717,-4.7717,-4.7717,-4.7717,0.0,0.0,-4.7717,-4.7717,-4.7717,-4.7717,-4.7717,-4.7717,-4.7717,-4.7717,-4.7717,-4.7717,-4.7717,0.0,0.0,0.0,0.0,0.0,0.0,0.0,0.0,0.0,0.0,0.0,0.0,0.0,0.0,0.0,0.0,0.0,0.0,0.0,0.0,0.0,0.0,0.0,-1.7867,-1.7927,-1.8298,-1.8843,-1.9562,-1.9609,-2.0034,-2.0794,-2.0712,-2.0712,-2.0793,-2.0842,-2.0924,-2.099,-2.099,-2.1038,-2.1151,-2.1231,0.0,0.0,0.0,0.0,0.0,-2.3836,-2.4626,0.0,-2.5492,-2.5451,-2.5429,0.0,0.0,0.0,0.0,-2.8271,-2.9149,-2.9607,-2.957,-2.9412,-2.948,-3.0589,-3.1702,0.0,0.0,0.0,0.0,0.0,0.0,0.0,0.0,0.0,0.0,0.0,0.0,0.0,0.0,0.0,0.0,0.0,0.0,0.0,0.0,0.0,0.0,0.0,-4.7717,-4.7717,-4.7717,-4.7717,-4.7717,-4.7717,-4.7717,-4.7717,-4.7717,-4.7717,-4.7717,-4.7717,-4.7717,-4.7717,-4.7717,-4.7717,0.0,-4.7717,-4.7717,-4.7717,-4.7717,-4.7717,-4.7717,-4.7717,-4.7717,-4.7717,-4.7717,-4.7717,-4.7717,0.0,0.0,0.0,0.0,0.0,0.0,0.0,0.0,0.0,0.0,0.0,0.0,0.0,0.0,0.0,0.0,0.0,0.0,0.0,0.0,0.0,0.0,0.0,-1.7341,-1.7441,-1.8117,-1.8808,-1.95,-1.972,-2.0226,-2.0958,-2.0974,-2.1023,-2.1151,-2.1151,-2.1151,-2.1167,-2.1167,-2.1215,-2.1262,-2.1341,0.0,0.0,0.0,0.0,0.0,0.0,0.0,0.0,-2.5772,-2.5696,-2.5651,-2.5637,0.0,0.0,0.0,0.0,0.0,-2.9973,-2.9995,-2.9911,-2.978,-3.0755,-3.181,0.0,0.0,0.0,0.0,0.0,0.0,0.0,0.0,0.0,0.0,0.0,0.0,0.0,0.0,0.0,0.0,0.0,0.0,0.0,0.0,0.0,0.0,0.0,-4.7866,-4.7868,-4.7785,-4.7783,-4.7824,-4.7741,-4.7717,-4.7717,-4.7717,-4.7717,-4.7717,-4.7826,-4.7877,-4.7877,-4.8025,-4.8079,-4.8079,0.0,0.0,-4.7877,-4.7877,-4.7805,-4.7717,-4.7717,-4.7717,-4.7717,-4.7717,-4.7606,-4.7518,0.0,0.0,0.0,0.0,0.0,0.0,0.0,0.0,0.0,0.0,0.0,0.0,0.0,0.0,0.0,0.0,0.0,0.0,0.0,0.0,0.0,-1.657,-1.6664,-1.6714,-1.6671,-1.749,-1.8273,-1.9017,-1.9711,-2.0428,-2.1151,-2.1198,-2.1277,-2.134,-2.134,-2.1419,-2.1528,-2.1528,-2.1528,-2.1543,-2.1619,0.0,0.0,0.0,0.0,0.0,0.0,0.0,0.0,-2.5881,-2.5862,-2.5959,-2.6561,0.0,0.0,0.0,0.0,0.0,-3.0146,-3.1087,-3.1705,-3.0303,-3.0674,-3.1508,-3.2004,0.0,0.0,0.0,0.0,0.0,0.0,0.0,0.0,0.0,0.0,0.0,0.0,0.0,0.0,0.0,0.0,0.0,0.0,0.0,0.0,0.0,0.0,-4.8514,-4.8622,-4.8251,-4.8114,-4.8289,-4.7911,-4.7717,-4.7717,-4.7717,-4.7717,-4.7717,-4.8384,-4.871,-4.8728,-4.942,-4.9749,-4.9749,0.0,-4.9347,-4.871,-4.871,-4.8312,-4.7717,-4.7717,-4.7717,-4.7717,-4.7717,-4.7283,-4.6595,0.0,0.0,0.0,0.0,0.0,0.0,0.0,0.0,0.0,0.0,0.0,0.0,0.0,0.0,0.0,0.0,0.0,0.0,0.0,0.0,0.0,-1.6811,-1.6863,-1.6821,-1.6717,-1.7468,-1.8239,-1.906,-1.9841,-2.0628,-2.1419,-2.145,-2.1433,-2.1402,-2.148,-2.1542,-2.1604,-2.1604,-2.1664,-2.1753,0.0,0.0,0.0,0.0,0.0,0.0,0.0,0.0,0.0,0.0,-2.6028,-2.6085,-2.6808,0.0,0.0,0.0,0.0,0.0,-3.0547,-3.0978,-3.1443,-3.1573,-3.2727,-3.3916,-3.4206,0.0,0.0,0.0,0.0,0.0,0.0,0.0,0.0,0.0,0.0,0.0,0.0,0.0,0.0,0.0,0.0,0.0,0.0,0.0,0.0,0.0,0.0,0.0,-4.8799,-4.8656,-4.8603,-4.8622,-4.8477,-4.8365,-4.8307,-4.8174,-4.7994,-4.7717,-4.8058,-4.8239,-4.8257,-4.8641,-4.8804,-4.8804,0.0,-4.8586,-4.8239,-4.8239,-4.8022,-4.7717,-4.7717,-4.7446,-4.7032,-4.6721,-4.648,-4.6157,0.0,0.0,0.0,0.0,0.0,0.0,0.0,0.0,0.0,0.0,0.0,0.0,0.0,0.0,0.0,0.0,0.0,0.0,0.0,0.0,-1.6905,-1.7052,-1.7099,-1.7151,-1.7194,-1.7883,-1.866,-1.9502,-2.0262,-2.0972,-2.165,-2.165,-2.1587,-2.1494,-2.1603,-2.1748,-2.1943,-2.1943,-2.2115,-2.246,0.0,0.0,0.0,0.0,0.0,0.0,0.0,0.0,0.0,0.0,0.0,0.0,0.0,0.0,0.0,-2.9616,-3.0194,-3.063,-3.081,-3.0996,-3.1401,-3.2687,0.0,-3.503,-3.5934,0.0,0.0,0.0,0.0,0.0,0.0,0.0,0.0,0.0,0.0,0.0,0.0,0.0,0.0,0.0,0.0,0.0,0.0,0.0,0.0,0.0,0.0,0.0,-4.88,-4.8982,-4.9078,-4.9017,-4.9013,-4.893,-4.8799,-4.8674,-4.8365,-4.7891,-4.8091,-4.8141,-4.8136,-4.8361,-4.8413,-4.839,-4.8324,-4.8194,-4.8031,-4.7989,-4.7772,-4.7469,-4.7493,-4.7064,-4.6345,-4.5717,-4.5589,-4.5621,0.0,0.0,0.0,0.0,0.0,0.0,0.0,0.0,0.0,0.0,0.0,0.0,0.0,0.0,0.0,0.0,0.0,0.0,0.0,0.0,-1.7052,-1.719,-1.7186,-1.7479,-1.8095,-1.8882,-1.9661,-2.041,-2.1221,-2.1658,-2.1797,-2.1797,-2.1766,-2.1766,-2.1766,-2.2192,-2.2901,-2.2901,-2.3378,-2.4123,-2.4201,0.0,0.0,0.0,0.0,0.0,0.0,0.0,0.0,0.0,0.0,0.0,0.0,0.0,-2.9831,-3.057,-3.0821,-3.0851,-3.0733,-3.1781,-3.2943,-3.2976,-3.2124,0.0,-3.5523,-3.5314,0.0,0.0,0.0,0.0,0.0,0.0,0.0,0.0,0.0,0.0,0.0,0.0,0.0,0.0,0.0,0.0,0.0,0.0,0.0,0.0,0.0,0.0,-4.8783,-4.9169,-4.9449,-4.9618,-4.9218,-4.893,-4.8799,-4.8913,-4.8795,-4.844,-4.9214,-4.9487,-4.9403,-5.0278,-5.0589,-5.0464,-5.0174,-4.9625,-4.8992,-4.8865,-4.7995,-4.6775,-4.6899,-4.6617,-4.6044,-4.5249,-4.4815,-4.451,0.0,0.0,0.0,0.0,0.0,0.0,0.0,0.0,0.0,0.0,0.0,0.0,0.0,0.0,0.0,0.0,0.0,0.0,0.0,-1.7099,-1.717,-1.7321,-1.779,-1.8418,-1.9173,-1.9328,-1.9783,-2.0548,-2.136,-2.1783,-2.1812,-2.184,-2.184,-2.1829,-2.2415,-2.2842,-2.3157,-2.3608,-2.4068,-2.4492,-2.4477,-2.4979,0.0,0.0,0.0,0.0,0.0,0.0,0.0,0.0,-2.75,-2.7901,0.0,-2.98,-3.0192,-3.0937,-3.1157,-3.1157,-3.119,-3.2218,-3.3301,-3.3354,0.0,0.0,0.0,0.0,0.0,0.0,0.0,0.0,0.0,0.0,0.0,0.0,0.0,0.0,0.0,0.0,0.0,0.0,0.0,0.0,0.0,0.0,0.0,0.0,0.0,0.0,-4.804,-4.8289,-4.8403,-4.8397,-4.8307,-4.8183,-4.8051,-4.7971,-4.788,-4.7766,-4.8777,-4.9156,-4.8955,-4.9399,-4.9215,-4.8586,-4.8454,-4.7957,-4.7241,-4.7166,-4.6837,-4.6287,-4.5827,-4.5634,-4.5465,-4.4519,-4.4206,-4.4184,0.0,0.0,0.0,0.0,0.0,0.0,0.0,0.0,0.0,0.0,0.0,0.0,0.0,0.0,0.0,0.0,0.0,0.0,-1.7191,-1.7253,-1.7338,-1.7425,-1.8194,-1.8993,-1.9749,-1.9856,-2.0268,-2.1007,-2.1562,-2.184,-2.1869,-2.1897,-2.1928,-2.1963,-2.2835,-2.338,-2.3693,-2.445,-2.4998,-2.5358,-2.5327,-2.5712,0.0,0.0,0.0,0.0,0.0,0.0,0.0,0.0,-2.8251,0.0,0.0,0.0,-3.0725,-3.1217,-3.168,-3.2044,-3.208,-3.2756,-3.3576,0.0,0.0,0.0,0.0,0.0,0.0,0.0,0.0,0.0,0.0,0.0,0.0,0.0,0.0,0.0,0.0,0.0,0.0,0.0,0.0,0.0,0.0,0.0,0.0,0.0,0.0,0.0,0.0,-4.7602,-4.7754,-4.7674,-4.7754,-4.7732,-4.7596,-4.7516,-4.7422,-4.7333,-4.8207,-4.8456,-4.8124,-4.8268,-4.7919,-4.7235,-4.7151,-4.6802,-4.6283,-4.6231,-4.6116,-4.5902,-4.5114,-4.4972,-4.508,-4.4337,-4.4147,-4.4206,0.0,0.0,0.0,0.0,0.0,0.0,0.0,0.0,0.0,0.0,0.0,0.0,0.0,0.0,0.0,0.0,0.0,0.0,-1.7396,-1.7479,-1.7502,-1.7512,-1.8279,-1.9027,-1.9701,-2.0582,-2.1301,-2.1913,-2.1913,-2.1926,-2.2013,-2.2013,-2.2073,-2.2257,-2.3001,-2.3801,-2.4681,-2.5462,-2.6276,-2.7007,-2.7087,-2.7101,-2.7101,0.0,0.0,0.0,0.0,0.0,0.0,0.0,-2.9072,-3.0391,0.0,0.0,0.0,-3.1498,-3.2491,-3.3558,-3.342,-3.3506,0.0,0.0,0.0,0.0,0.0,0.0,0.0,0.0,0.0,0.0,0.0,0.0,0.0,0.0,0.0,0.0,0.0,0.0,0.0,0.0,0.0,0.0,0.0,0.0,0.0,0.0,0.0,0.0,0.0,-4.7311,-4.7769,-4.7769,-4.7769,-4.7713,-4.7577,-4.7713,-4.7643,-4.7384,-4.7655,-4.7552,-4.7104,-4.7248,-4.7235,-4.7071,-4.6802,-4.6678,-4.6678,-4.6529,-4.6166,-4.5627,-4.4898,-4.4714,-4.4895,-4.4895,-4.4732,-4.4506,0.0,0.0,0.0,0.0,0.0,0.0,0.0,0.0,0.0,0.0,0.0,0.0,0.0,0.0,0.0,0.0,0.0,0.0,-1.7607,-1.763,-1.7946,-1.8608,-1.9312,-2.0098,-2.096,-2.1651,-2.2032,-2.2104,-2.2149,-2.2194,-2.2206,-2.2262,-2.2601,-2.3227,-2.404,-2.488,-2.5706,-2.6464,-2.6977,-2.7279,-2.731,-2.7324,-2.7371,0.0,0.0,0.0,0.0,0.0,0.0,0.0,0.0,0.0,0.0,0.0,0.0,-3.1893,-3.2141,-3.2424,-3.2477,-3.3856,0.0,0.0,0.0,0.0,0.0,0.0,0.0,0.0,0.0,0.0,0.0,0.0,0.0,0.0,0.0,0.0,0.0,0.0,0.0,0.0,0.0,0.0,0.0,0.0,0.0,0.0,0.0,0.0,0.0,-4.5889,-4.6042,-4.6042,-4.6042,-4.6031,-4.5968,-4.6031,-4.6009,-4.5913,-4.6009,-4.6496,-4.7318,-4.7441,-4.71,-4.6391,-4.6307,-4.5959,-4.543,-4.5385,-4.5279,-4.5117,-4.4896,-4.4858,-4.4883,-4.4688,-4.4578,-4.446,0.0,0.0,0.0,0.0,0.0,0.0,0.0,0.0,0.0,0.0,0.0,0.0,0.0,0.0,0.0,0.0,0.0,0.0,0.0,-1.8121,-1.8546,-1.9121,-2.013,-2.1096,-2.1953,-2.2342,-2.2515,-2.2467,-2.2419,-2.2422,-2.246,-2.2863,-2.3292,-2.3812,-2.4985,-2.5769,-2.6264,-2.7011,-2.7371,-2.7481,-2.7509,-2.7539,-2.7585,0.0,0.0,0.0,0.0,0.0,0.0,0.0,0.0,0.0,0.0,0.0,0.0,-3.2703,-3.2859,-3.3049,-3.4186,0.0,0.0,0.0,0.0,0.0,0.0,0.0,0.0,0.0,0.0,0.0,0.0,0.0,0.0,0.0,0.0,0.0,0.0,0.0,0.0,0.0,0.0,0.0,0.0,0.0,0.0,0.0,0.0,0.0,0.0,-4.5307,-4.5307,-4.5307,-4.5307,-4.5307,-4.5307,-4.5307,-4.5307,-4.5307,-4.5307,-4.5737,-4.6578,-4.6641,-4.6355,-4.5791,-4.5791,-4.5506,-4.5068,-4.5068,-4.5068,-4.5068,-4.5068,-4.5068,-4.5038,-4.4881,-4.4826,-4.4782,0.0,0.0,0.0,0.0,0.0,0.0,0.0,0.0,0.0,0.0,0.0,0.0,0.0,0.0,0.0,0.0,0.0,0.0,0.0,0.0,-1.9258,-1.9338,-2.0873,-2.2038,-2.2708,-2.2725,-2.2825,-2.3023,-2.2693,-2.264,-2.2859,-2.3657,-2.4097,-2.4301,-2.5767,-2.6475,-2.658,-2.726,-2.7587,-2.7647,-2.7686,-2.773,-2.7748,-2.7944,0.0,0.0,0.0,0.0,0.0,0.0,0.0,0.0,0.0,-3.2126,-3.2371,-3.3596,-3.4085,-3.4733,0.0,0.0,0.0,0.0,0.0,0.0,0.0,0.0,0.0,0.0,0.0,0.0,0.0,0.0,0.0,0.0,0.0,0.0,0.0,0.0,0.0,0.0,0.0,0.0,0.0,0.0,0.0,0.0,0.0,0.0,0.0,-4.5307,-4.5307,-4.5307,-4.5307,-4.5307,-4.5307,-4.5307,-4.5307,-4.5307,-4.5307,-4.5307,-4.5307,-4.5307,-4.5307,-4.5307,-4.5307,-4.5307,-4.5307,-4.5307,-4.5307,-4.5307,-4.5307,-4.5307,-4.5307,-4.5307,-4.5307,-4.5307,0.0,0.0,0.0,0.0,0.0,0.0,0.0,0.0,0.0,0.0,0.0,0.0,0.0,0.0,0.0,0.0,0.0,0.0,0.0,0.0,-1.9657,-2.0349,-2.1876,-2.2745,-2.285,-2.2855,-2.3215,-2.3929,-2.3228,-2.3271,-2.3955,-2.4156,-2.4914,-2.6128,-2.6493,-2.7028,-2.7667,-2.7844,-2.7896,-2.7929,-2.7925,-2.794,-2.801,-2.8611,-2.8455,0.0,0.0,0.0,0.0,0.0,0.0,0.0,-3.2404,-3.2404,-3.2474,-3.2767,-3.3536,-3.441,0.0,0.0,0.0,0.0,0.0,0.0,0.0,0.0,0.0,0.0,0.0,0.0,0.0,0.0,0.0,0.0,0.0,0.0,0.0,0.0,0.0,0.0,0.0,0.0,0.0,0.0,0.0,0.0,0.0,0.0,-4.5269,-4.5307,-4.5307,-4.5307,-4.5307,-4.5307,-4.5307,-4.5307,-4.5307,-4.5307,-4.5307,-4.5307,-4.5307,-4.5307,-4.5307,-4.5307,-4.5307,-4.5307,-4.5307,-4.5307,-4.5307,-4.5307,-4.5307,-4.5307,-4.5307,-4.5307,-4.5307,-4.5307,0.0,0.0,0.0,0.0,0.0,0.0,0.0,0.0,0.0,0.0,0.0,0.0,0.0,0.0,0.0,0.0,0.0,0.0,0.0,0.0,-2.0619,-2.1902,-2.268,-2.3077,-2.3095,-2.345,-2.3874,-2.438,-2.4358,-2.4526,-2.4892,-2.5401,-2.6056,-2.6813,-2.7272,-2.7704,-2.8095,-2.8095,-2.8109,-2.8172,-2.856,-2.872,-2.8795,-2.9535,-2.9541,-2.9299,-3.0462,0.0,0.0,0.0,0.0,0.0,0.0,0.0,-3.2677,-3.3323,-3.351,-3.3898,0.0,0.0,0.0,0.0,0.0,0.0,0.0,0.0,0.0,0.0,0.0,0.0,0.0,0.0,0.0,0.0,0.0,0.0,0.0,0.0,0.0,0.0,0.0,0.0,0.0,0.0,0.0,0.0,0.0,-4.3615,-4.4074,-4.4093,-4.4093,-4.4093,-4.4093,-4.4284,-4.4666,-4.4685,-4.4895,-4.5307,-4.5307,-4.5307,-4.5307,-4.5307,-4.5307,-4.5307,-4.5307,-4.5307,-4.5307,-4.5307,-4.5307,-4.5307,-4.5307,-4.5307,-4.5307,-4.5307,-4.5307,-4.5307,0.0,0.0,0.0,0.0,0.0,0.0,0.0,0.0,0.0,0.0,0.0,0.0,0.0,0.0,0.0,0.0,0.0,0.0,0.0,0.0,0.0,-2.3242,-2.3277,-2.3277,-2.3336,-2.4079,-2.4577,-2.4817,-2.5638,-2.6019,-2.6012,-2.6741,-2.7115,-2.7188,-2.7969,-2.8286,-2.8228,-2.8228,-2.8344,-2.8578,-2.9241,-2.96,-2.9815,-3.0549,-3.0686,-3.0573,-3.146,-3.1677,-3.171,-3.2423,0.0,0.0,0.0,0.0,-3.2891,-3.4,-3.37,-3.37,0.0,0.0,0.0,0.0,0.0,0.0,0.0,0.0,0.0,0.0,0.0,0.0,0.0,0.0,0.0,0.0,0.0,0.0,0.0,0.0,0.0,0.0,0.0,0.0,0.0,0.0,0.0,0.0,0.0,-4.2641,-4.2794,-4.2794,-4.2794,-4.2794,-4.2794,-4.3119,-4.3796,-4.3796,-4.415,-4.4857,-4.4857,-4.4857,-4.4857,-4.501,-4.5163,-4.5307,-4.5307,-4.5307,-4.5307,-4.5307,-4.5307,-4.5307,-4.5307,-4.5307,-4.5307,-4.5307,-4.5307,-4.5307,0.0,0.0,0.0,0.0,0.0,0.0,0.0,0.0,0.0,0.0,0.0,0.0,0.0,0.0,0.0,0.0,0.0,0.0,-2.0904,0.0,0.0,-2.3348,-2.343,-2.3453,-2.3464,-2.4254,-2.4985,-2.5645,-2.6557,0.0,0.0,0.0,0.0,-2.8125,-2.8299,-2.8367,-2.8367,-2.8367,-2.8775,-2.9431,-2.9539,-3.0002,-3.0722,-3.1516,-3.1358,-3.093,-3.2373,-3.2481,-3.2032,-3.2648,-3.293,0.0,0.0,0.0,-3.3057,-3.318,-3.3912,0.0,0.0,0.0,0.0,0.0,0.0,0.0,0.0,0.0,0.0,0.0,0.0,0.0,0.0,0.0,0.0,0.0,0.0,0.0,0.0,0.0,0.0,0.0,0.0,0.0,0.0,0.0,0.0,0.0,-4.1667,-4.1991,-4.2756,-4.2794,-4.2794,-4.2794,-4.2794,-4.2851,-4.2966,-4.2966,-4.3023,-4.3138,-4.3138,-4.3138,-4.3157,-4.3864,-4.459,-4.5307,-4.5307,-4.5307,-4.5307,-4.5307,-4.5307,-4.5307,-4.5307,-4.5307,-4.5307,-4.5307,-4.5307,-4.5307,0.0,0.0,0.0,0.0,0.0,0.0,0.0,0.0,0.0,0.0,0.0,0.0,0.0,0.0,0.0,-2.0588,-2.0909,-2.1322,-2.1852,-2.2689,-2.3286,-2.3602,-2.4073,-2.4347,-2.4347,-2.5577,-2.6381,-2.6699,0.0,0.0,0.0,-2.8131,-2.8167,0.0,0.0,0.0,-2.8648,-2.9075,-2.9442,-2.9853,-3.0717,-3.1696,-3.2649,-3.2708,-3.2938,-3.3241,-3.3135,-3.2886,-3.2652,-3.2916,-3.3055,-3.3086,-3.3024,0.0,0.0,0.0,0.0,0.0,0.0,0.0,0.0,0.0,0.0,0.0,0.0,0.0,0.0,0.0,0.0,0.0,0.0,0.0,0.0,0.0,0.0,0.0,0.0,0.0,0.0,0.0,0.0,0.0,0.0,0.0,0.0,0.0,-4.0826,-4.0998,-4.138,-4.1399,-4.1399,-4.1399,-4.1399,-4.1628,-4.2068,-4.2068,-4.2316,-4.2794,-4.2794,-4.2794,-4.2813,-4.3176,-4.3787,-4.4609,-4.5086,-4.5307,-4.5307,-4.5307,-4.5307,-4.5307,-4.5307,-4.5307,-4.5307,-4.5307,-4.5307,-4.5307,0.0,0.0,0.0,0.0,0.0,0.0,0.0,0.0,0.0,0.0,0.0,0.0,0.0,0.0,0.0,0.0,-2.1752,-2.215,-2.2816,-2.3508,-2.3987,-2.4177,-2.4758,-2.5176,-2.5397,-2.6779,-2.75,-2.75,0.0,0.0,-2.87,-2.8761,-2.8761,0.0,-2.8737,-2.887,0.0,0.0,0.0,-3.0659,-3.2117,-3.3395,-3.442,-3.4345,-3.4909,-3.5548,-3.4169,-3.3666,-3.3604,-3.3277,-3.3165,-3.318,-3.318,-3.3196,0.0,0.0,0.0,0.0,0.0,0.0,0.0,0.0,0.0,0.0,0.0,0.0,0.0,0.0,0.0,0.0,0.0,0.0,0.0,0.0,0.0,0.0,0.0,0.0,0.0,0.0,0.0,0.0,0.0,0.0,0.0,0.0,-4.0345,-4.0318,-4.0318,-4.031,-4.0301,-4.0301,-4.0301,-4.0597,-4.1189,-4.1189,-4.1514,-4.2163,-4.2163,-4.2163,-4.2163,-4.2374,-4.2794,-4.3414,-4.4284,-4.4647,-4.4647,-4.4647,-4.4781,-4.4972,-4.4972,-4.5105,-4.5307,-4.5307,-4.5307,-4.5307,0.0,0.0,0.0,0.0,0.0,0.0,0.0,0.0,0.0,0.0,0.0,0.0,-2.1189,-2.199,-2.255,-2.2628,-2.3252,-2.3707,-2.3813,-2.3878,-2.4304,-2.5173,-2.5256,0.0,-2.6494,-2.7346,-2.7776,0.0,0.0,0.0,-2.8982,-2.8982,-2.9028,-2.9074,-2.887,-2.9217,-2.994,0.0,0.0,0.0,-3.3596,-3.4599,-3.5472,-3.6643,-3.7126,-3.7007,0.0,-3.5194,-3.4994,-3.3712,-3.3337,-3.3378,-3.3378,-3.3437,-3.3491,0.0,0.0,0.0,0.0,0.0,0.0,0.0,0.0,0.0,0.0,0.0,0.0,0.0,0.0,0.0,0.0,0.0,0.0,0.0,0.0,0.0,0.0,0.0,0.0,0.0,0.0,0.0,0.0,0.0,0.0,0.0,-4.0462,-4.0389,-4.0389,-4.0326,-4.0301,-4.0301,-4.0301,-4.032,-4.0358,-4.0358,-4.0377,-4.0435,-4.0435,-4.0435,-4.0454,-4.1227,-4.159,-4.1686,-4.2545,-4.2928,-4.2928,-4.2928,-4.3386,-4.4064,-4.4064,-4.4571,-4.5307,-4.5307,-4.5307,-4.5307,0.0,0.0,0.0,0.0,0.0,0.0,0.0,0.0,0.0,0.0,0.0,0.0,0.0,-2.3275,-2.3527,-2.3595,-2.3873,-2.4296,-2.4886,-2.4924,-2.5332,-2.6222,-2.6794,-2.7249,-2.7559,-2.8355,-2.8751,0.0,0.0,-2.9185,-2.9185,-2.9185,-2.9502,-3.0061,-2.9851,-2.994,-3.0318,-3.1305,0.0,0.0,0.0,0.0,0.0,0.0,0.0,0.0,0.0,0.0,0.0,-3.481,-3.4176,-3.3591,-3.3534,-3.3534,-3.3577,0.0,0.0,0.0,0.0,0.0,0.0,0.0,0.0,0.0,0.0,0.0,0.0,0.0,0.0,0.0,0.0,0.0,0.0,0.0,0.0,0.0,0.0,0.0,0.0,0.0,0.0,0.0,0.0,0.0,0.0,0.0,0.0,-4.0524,-4.0524,-4.0515,-4.0441,-4.0368,-4.0368,-4.0344,-4.0301,-4.0301,-4.0301,-4.0301,-4.0301,-4.0301,-4.0301,-4.0597,-4.0731,-4.075,-4.1055,-4.182,-4.2794,-4.2794,-4.2966,-4.3233,-4.3233,-4.3424,-4.3749,-4.4284,-4.4475,-4.4551,0.0,0.0,0.0,0.0,0.0,0.0,0.0,0.0,0.0,-2.4638,0.0,0.0,0.0,0.0,-2.4921,-2.5,-2.504,-2.5337,-2.5958,-2.5976,-2.6366,-2.7269,-2.7844,-2.8263,-2.8554,-2.9094,-2.9373,0.0,0.0,0.0,0.0,-2.9802,-3.0248,-3.1078,-3.1218,-3.1261,0.0,0.0,0.0,-3.3252,0.0,0.0,-3.691,0.0,0.0,0.0,0.0,0.0,0.0,0.0,-3.5528,-3.4833,0.0,0.0,0.0,0.0,0.0,0.0,0.0,0.0,0.0,0.0,0.0,0.0,0.0,0.0,0.0,0.0,0.0,0.0,0.0,0.0,0.0,0.0,0.0,0.0,0.0,0.0,0.0,0.0,0.0,0.0,0.0,0.0,0.0,0.0,0.0,0.0,-4.0699,-4.0667,-4.059,-4.0494,-4.0494,-4.0469,-4.0422,-4.0417,-4.0394,-4.037,-4.0335,-4.0318,-4.0301,-4.0301,-4.0301,-4.0301,-4.0301,-4.0931,-4.1953,-4.1953,-4.2125,-4.2354,-4.2354,-4.2545,-4.287,-4.3395,-4.3605,-4.372,0.0,0.0,0.0,0.0,0.0,0.0,0.0,0.0,-2.5509,-2.6315,0.0,0.0,0.0,0.0,0.0,-2.6802,-2.6812,-2.6878,-2.7037,-2.6981,-2.7354,-2.8306,-2.8268,-2.8642,-2.9483,-2.9521,-2.9539,0.0,0.0,0.0,0.0,0.0,-3.1269,-3.2083,-3.2857,-3.3101,-3.2944,0.0,-3.3309,-3.4216,0.0,-3.6938,-3.6283,0.0,0.0,0.0,-3.8743,-3.8665,0.0,0.0,0.0,0.0,0.0,0.0,0.0,0.0,0.0,0.0,0.0,0.0,0.0,0.0,0.0,0.0,0.0,0.0,0.0,0.0,0.0,0.0,0.0,0.0,0.0,0.0,0.0,0.0,0.0,0.0,0.0,0.0,0.0,0.0,0.0,0.0,0.0,0.0,-4.0945,-4.0913,-4.0913,-4.0781,-4.0715,-4.0715,-4.069,-4.071,-4.071,-4.0633,-4.0572,-4.0518,-4.0434,-4.0366,-4.031,-4.031,-4.031,-4.031,-4.031,-4.031,-4.031,-4.031,-4.0769,-4.1457,-4.1457,-4.1972,-4.2727,-4.2756,-4.2766,-4.288,0.0,0.0,0.0,0.0,0.0,0.0,0.0,-2.6295,-2.6368,0.0,0.0,0.0,-2.6698,-2.678,-2.6887,-2.7019,-2.7028,-2.7279,-2.7905,-2.7923,-2.8316,-2.9204,-2.9213,-2.9345,-2.9645,-3.0265,-3.0584,0.0,0.0,0.0,0.0,0.0,0.0,0.0,-3.3256,-3.3604,-3.405,-3.3999,0.0,0.0,-3.6777,-3.7507,0.0,0.0,0.0,0.0,0.0,-3.9032,-3.8873,0.0,-3.7526,-3.5822,0.0,0.0,0.0,0.0,0.0,0.0,-3.3518,0.0,0.0,0.0,0.0,0.0,0.0,0.0,0.0,0.0,0.0,0.0,0.0,0.0,0.0,0.0,0.0,0.0,0.0,0.0,0.0,0.0,0.0,0.0,0.0,0.0,0.0,0.0,-4.1067,-4.1045,-4.1045,-4.0914,-4.0839,-4.0839,-4.0742,-4.071,-4.071,-4.0674,-4.0651,-4.0647,-4.0629,-4.0604,-4.0597,-4.0597,-4.0597,-4.0597,-4.0597,-4.0597,-4.0578,-4.0368,-4.0435,-4.0635,-4.0635,-4.0815,-4.1135,-4.1648,-4.197,-4.2266,0.0,0.0,0.0,0.0,0.0,0.0,-2.72,-2.7266,-2.7395,0.0,0.0,0.0,-2.7917,-2.7996,-2.8082,-2.8184,-2.8174,-2.8398,-2.8895,-2.9279,-2.9683,-3.0208,-3.0547,-3.0735,-3.0791,-3.129,-3.1544,0.0,0.0,0.0,0.0,0.0,0.0,0.0,0.0,0.0,0.0,0.0,0.0,0.0,-3.6845,0.0,0.0,-3.9113,-3.9974,0.0,0.0,0.0,-3.9666,-3.9953,-3.8453,0.0,0.0,0.0,0.0,0.0,0.0,0.0,0.0,0.0,0.0,0.0,0.0,0.0,-3.6583,-3.7836,0.0,0.0,0.0,0.0,0.0,0.0,0.0,0.0,0.0,0.0,0.0,0.0,0.0,0.0,0.0,0.0,0.0,-4.1109,-4.1109,-4.1109,-4.1097,-4.109,-4.109,-4.1037,-4.0974,-4.0974,-4.0905,-4.0867,-4.0867,-4.0867,-4.0842,-4.0776,-4.0772,-4.0747,-4.071,-4.071,-4.071,-4.071,-4.071,-4.071,-4.0693,-4.0535,-4.0477,-4.0477,-4.0477,-4.0484,-4.0574,-4.1001,-4.128,-4.1519,0.0,0.0,0.0,0.0,0.0,0.0,0.0,-2.8199,-2.8468,0.0,-2.927,-2.9373,-2.9502,-2.9663,-2.9767,-2.9861,-2.9944,-3.0027,-3.0081,-3.0807,-3.125,-3.125,-3.193,-3.2307,-3.2298,-3.2402,-3.2458,0.0,0.0,0.0,0.0,0.0,0.0,0.0,0.0,0.0,0.0,0.0,0.0,-3.4932,-3.7056,-3.7318,0.0,0.0,-3.9965,0.0,-4.0272,-4.0601,-4.0558,-4.078,-3.9579,0.0,0.0,0.0,0.0,0.0,-3.2852,0.0,0.0,0.0,0.0,0.0,0.0,0.0,-3.6968,-3.7537,-3.8174,0.0,0.0,0.0,0.0,0.0,0.0,0.0,0.0,0.0,0.0,0.0,0.0,0.0,0.0,0.0,-4.1109,-4.1109,-4.1109,-4.1109,-4.1109,-4.1109,-4.1109,-4.1109,-4.1109,-4.1109,-4.1109,-4.1109,-4.1109,-4.1109,-4.1042,-4.0926,-4.091,-4.0861,-4.0738,-4.0738,-4.0738,-4.0738,-4.0738,-4.0738,-4.0738,-4.0738,-4.0736,-4.071,-4.071,-4.0715,-4.0721,-4.0715,-4.0701,-4.0833,-2.7905,0.0,0.0,0.0,0.0,0.0,0.0,-2.9148,-2.9204,-2.9343,-2.9423,-2.9502,-2.9645,-3.0255,-3.0688,-3.0816,-3.1466,-3.1871,-3.1896,-3.2056,-3.2151,-3.2151,-3.2303,-3.238,-3.2381,-3.3071,-3.3403,0.0,0.0,0.0,0.0,0.0,0.0,0.0,0.0,0.0,0.0,0.0,0.0,-3.707,-3.8167,0.0,-3.8597,-4.018,-4.0714,-4.0688,-4.0923,-4.0857,-4.0528,0.0,-3.927,-3.8757,0.0,0.0,0.0,0.0,0.0,0.0,0.0,0.0,0.0,0.0,0.0,0.0,-3.5111,-3.5901,-3.6653,0.0,0.0,0.0,0.0,0.0,0.0,0.0,0.0,0.0,0.0,0.0,0.0,0.0,0.0,0.0,-4.1109,-4.1109,-4.1109,-4.1109,-4.1109,-4.1109,-4.1109,-4.1109,-4.1109,-4.1109,-4.1109,-4.1109,-4.1109,-4.1104,-4.1081,-4.1056,-4.1053,-4.1046,-4.102,-4.102,-4.102,-4.102,-4.102,-4.102,-4.102,-4.102,-4.0886,-4.071,-4.071,-4.0771,-4.0839,-4.0736,-4.0791,-4.0956,-2.8904,0.0,0.0,0.0,0.0,0.0,0.0,0.0,-2.9632,-3.0053,-3.0544,-3.0884,-3.0979,-3.1402,-3.1684,-3.1736,-3.2215,-3.2505,-3.2503,-3.2883,-3.3092,-3.3092,-3.351,-3.3748,-3.3749,-3.4176,-3.4385,0.0,0.0,0.0,0.0,0.0,0.0,0.0,0.0,0.0,0.0,0.0,-3.7667,-3.8204,-3.8777,0.0,-3.9364,-4.0526,-4.1019,-4.11,-4.11,-4.1003,-4.0808,-4.024,-3.9701,0.0,0.0,-3.7738,-3.7352,0.0,-3.575,-3.5964,0.0,0.0,0.0,-3.4645,0.0,0.0,0.0,-3.5916,-3.6473,-3.7033,0.0,0.0,0.0,0.0,0.0,0.0,0.0,0.0,0.0,0.0,0.0,0.0,0.0,0.0,-4.1109,-4.1109,-4.1109,-4.1109,-4.1109,-4.1109,-4.1109,-4.1109,-4.1109,-4.1109,-4.1109,-4.1109,-4.1109,-4.1109,-4.1109,-4.1109,-4.1109,-4.1109,-4.1109,-4.1109,-4.1109,-4.1109,-4.1109,-4.1109,-4.1109,-4.1109,-4.102,-4.0889,-4.0889,-4.0945,-4.0986,-4.0919,-4.0961,-4.1057,-2.9726,0.0,0.0,0.0,0.0,0.0,0.0,0.0,-3.0349,-3.0986,-3.1911,-3.2529,-3.2581,-3.2955,-3.3195,-3.3228,-3.347,-3.3547,-3.3398,-3.4003,-3.4366,-3.4366,-3.4863,-3.5208,-3.5368,-3.5219,-3.5101,-3.5092,0.0,0.0,0.0,0.0,0.0,0.0,0.0,0.0,0.0,0.0,0.0,-3.9095,0.0,-3.9549,-3.9757,-4.0664,-4.1033,-4.106,-4.1086,-4.1107,-4.1106,-4.1061,0.0,-3.9529,-3.9457,-3.888,0.0,0.0,0.0,0.0,0.0,0.0,0.0,0.0,0.0,-3.5029,0.0,0.0,0.0,-3.7218,0.0,0.0,0.0,0.0,0.0,0.0,0.0,0.0,0.0,0.0,0.0,0.0,0.0,0.0,0.0,-4.0877,-4.0883,-4.1088,-4.0904,-4.0883,-4.1088,-4.1109,-4.1109,-4.1109,-4.1109,-4.1109,-4.1109,-4.1109,-4.1109,-4.1109,-4.1109,-4.1109,-4.1109,-4.1109,-4.1109,-4.1109,-4.1109,-4.1109,-4.1109,-4.1109,-4.1109,-4.1109,-4.1109,-4.1109,-4.1109,-4.1109,-4.1109,-4.1109,-2.9806,-2.979,0.0,0.0,0.0,0.0,0.0,0.0,-3.2025,-3.2119,-3.3,-3.3618,0.0,0.0,0.0,0.0,0.0,0.0,-3.6279,0.0,-3.6362,-3.6362,-3.5668,-3.5612,-3.6325,-3.558,-3.5155,-3.5092,0.0,0.0,0.0,0.0,0.0,0.0,-3.7674,0.0,0.0,0.0,-3.9503,0.0,-4.0431,-4.0359,0.0,-4.0533,-4.0766,-4.0942,-4.1058,-4.1107,-4.1084,0.0,-4.0835,-4.0525,0.0,-3.9785,-3.996,0.0,0.0,0.0,0.0,0.0,0.0,0.0,-3.4798,0.0,0.0,0.0,-3.502,-3.5211,0.0,0.0,0.0,0.0,0.0,0.0,0.0,0.0,0.0,0.0,0.0,0.0,0.0,0.0,0.0,-4.0104,-4.0078,-4.1028,-4.0229,-4.01,-4.1048,-4.1109,-4.1109,-4.1109,-4.1109,-4.1109,-4.1109,-4.1109,-4.1109,-4.1109,-4.1109,-4.1109,-4.1109,-4.1109,-4.1109,-4.1109,-4.1109,-4.1109,-4.1109,-4.1109,-4.1109,-4.1109,-4.1109,-4.1109,-4.1109,-4.1109,-4.1109,-4.1109,-3.014,-3.0288,0.0,0.0,0.0,0.0,0.0,0.0,-3.3164,-3.3164,-3.3985,0.0,0.0,0.0,0.0,0.0,0.0,-3.7063,0.0,0.0,-3.6473,0.0,0.0,0.0,0.0,-3.6267,-3.6293,-3.6776,-3.6811,0.0,0.0,0.0,0.0,0.0,-3.8656,0.0,-3.9897,0.0,0.0,0.0,0.0,0.0,0.0,-4.0703,-4.0879,-4.0973,-4.1019,-4.1031,-4.1034,0.0,-4.0825,0.0,0.0,0.0,0.0,0.0,0.0,0.0,0.0,0.0,0.0,0.0,0.0,0.0,-3.504,0.0,-3.4879,0.0,0.0,0.0,0.0,0.0,0.0,0.0,-3.5854,0.0,0.0,0.0,0.0,0.0,0.0,0.0,0.0,0.0,0.0,0.0,-4.0676,-4.0613,-4.1088,-4.1109,-4.1109,-4.1109,-4.1109,-4.1109,-4.1109,-4.1109,-4.1109,-4.1109,-4.1109,-4.1109,-4.1109,-4.1109,-4.1109,-4.1109,-4.1109,-4.1109,-4.1109,-4.1109,-4.1109,-4.1109,-4.1109,-4.1109,-4.1109,-4.1109,-4.1109,-4.1109,-3.1028,0.0,0.0,0.0,0.0,0.0,0.0,0.0,0.0,0.0,0.0,0.0,-3.5537,-3.6027,0.0,0.0,0.0,-3.7707,0.0,0.0,-3.7183,0.0,0.0,0.0,0.0,0.0,-3.7383,-3.8038,0.0,0.0,0.0,0.0,0.0,0.0,0.0,-3.9981,-4.0604,0.0,0.0,-4.0488,-4.0535,-4.0536,-4.054,-4.0801,-4.0956,-4.099,-4.099,-4.099,-4.0997,-4.0944,-4.076,0.0,-4.0791,0.0,0.0,0.0,0.0,0.0,-3.5687,0.0,0.0,0.0,0.0,0.0,0.0,0.0,0.0,0.0,0.0,0.0,0.0,0.0,0.0,0.0,0.0,-3.612,0.0,0.0,0.0,0.0,0.0,0.0,0.0,0.0,0.0,-4.0658,-4.0656,-4.0781,-4.1072,-4.109,-4.1109,-4.1109,-4.1109,-4.1109,-4.1109,-4.1109,-4.1109,-4.1109,-4.1109,-4.1109,-4.1109,-4.1109,-4.1109,-4.1109,-4.1109,-4.1109,-4.1109,-4.1109,-4.109,-4.1093,-4.1093,-4.1094,-4.1095,-4.1091,-4.1109,-4.1109,-3.2722,-3.2623,0.0,0.0,0.0,0.0,0.0,0.0,0.0,0.0,0.0,0.0,0.0,0.0,0.0,0.0,0.0,-4.0286,-3.9366,0.0,-3.9367,0.0,0.0,-3.841,0.0,0.0,0.0,0.0,0.0,0.0,0.0,0.0,0.0,0.0,0.0,-4.0637,-4.0599,-4.068,-4.0698,-4.0699,-4.0694,-4.0723,-4.0782,0.0,-4.0826,-4.099,-4.099,0.0,0.0,-4.0782,-4.0698,0.0,0.0,0.0,0.0,0.0,0.0,0.0,0.0,0.0,0.0,-3.5238,0.0,0.0,0.0,0.0,-3.5092,0.0,0.0,0.0,0.0,0.0,0.0,-3.5101,0.0,0.0,0.0,0.0,0.0,0.0,0.0,0.0,0.0,0.0,-3.9348,-3.9532,-3.9544,-3.9997,-4.1037,-4.1093,-4.1109,-4.1109,-4.1109,-4.1109,-4.1109,-4.1109,-4.1109,-4.1109,-4.1109,-4.1109,-4.1109,-4.1109,-4.1109,-4.1109,-4.1109,-4.1109,-4.1109,-4.1109,-4.1093,-4.1098,-4.1098,-4.1102,-4.1106,-4.1095,-4.1109,-4.1109,0.0,0.0,0.0,0.0,0.0,0.0,0.0,-3.5239,0.0,0.0,0.0,0.0,0.0,0.0,-3.8715,0.0,0.0,-3.977,-3.9481,-3.9489,0.0,0.0,0.0,-3.8624,0.0,0.0,0.0,0.0,0.0,0.0,0.0,0.0,0.0,0.0,0.0,-4.0735,0.0,0.0,0.0,0.0,0.0,-4.0747,-4.0796,0.0,-4.0806,-4.0877,-4.0877,-4.0877,0.0,-4.0781,-4.0711,-4.0641,-4.0672,-4.0244,-3.9647,-3.9351,-3.8867,-3.8252,0.0,0.0,-3.7972,-3.6434,0.0,0.0,0.0,0.0,0.0,0.0,0.0,0.0,0.0,0.0,-3.5196,-3.5168,-3.516,0.0,0.0,0.0,0.0,0.0,0.0,0.0,0.0,0.0,0.0,-3.9539,-4.0122,-4.0676,-4.1085,-4.1103,-4.1102,-4.1102,-4.1098,-4.1095,-4.1095,-4.1091,-4.1109,-4.1109,-4.1109,-4.1109,-4.1109,-4.1094,-4.1095,-4.1095,-4.11,-4.1102,-4.1102,-4.1102,-4.1103,-4.1104,-4.1104,-4.1106,-4.1107,-4.1103,-4.1102,-4.1102,-3.5547,0.0,0.0,0.0,0.0,0.0,0.0,0.0,0.0,0.0,-3.6724,0.0,-3.7942,0.0,-3.8732,0.0,-3.9669,-3.9886,-3.9928,-3.9936,0.0,-3.912,-3.9124,0.0,0.0,0.0,0.0,0.0,0.0,-4.0833,0.0,0.0,0.0,0.0,0.0,0.0,0.0,0.0,-4.078,0.0,0.0,-4.0766,0.0,0.0,-4.0792,-4.0795,0.0,-4.0797,-4.0797,-4.0797,-4.0747,-4.0692,-4.0759,-4.0318,-3.9772,-3.9812,-3.9402,-3.8834,-3.8437,-3.8816,0.0,-3.7432,-3.75,0.0,-3.6078,0.0,0.0,0.0,0.0,0.0,0.0,0.0,0.0,-3.5673,-3.5445,-3.5258,0.0,-3.5744,-3.6053,0.0,0.0,0.0,0.0,0.0,-3.9601,-3.944,-4.005,-4.0605,0.0,-4.1033,-4.1035,-4.1054,-4.1053,-4.1089,-4.1102,-4.1099,-4.1097,-4.1097,-4.1097,-4.1097,-4.1097,-4.11,-4.1102,-4.1102,-4.1106,-4.1107,-4.1107,-4.1107,-4.1108,-4.1109,-4.1109,-4.111,-4.113,-4.1108,-4.1107,-4.1107,0.0,0.0,0.0,0.0,-3.5315,0.0,0.0,0.0,-3.5784,0.0,-3.6858,-3.7259,-3.8124,-3.8965,-3.9458,-3.9457,-4.0214,0.0,-4.0699,-4.0699,0.0,0.0,-4.0701,-4.0703,-4.0695,0.0,0.0,0.0,0.0,0.0,0.0,0.0,0.0,0.0,-4.0798,0.0,-4.0799,-4.08,-4.0799,-4.0797,-4.0797,-4.0803,-4.0796,-4.0803,-4.0806,-4.0795,-4.0807,-4.0797,-4.0797,-4.0797,-4.0797,-4.0797,-4.0797,-4.0797,-4.0797,-4.0797,-4.0797,-4.0585,-3.962,-3.9418,-3.9228,-3.822,-3.8017,0.0,0.0,0.0,-3.6763,0.0,0.0,0.0,0.0,0.0,0.0,-3.6503,-3.5893,-3.53,-3.53,0.0,0.0,0.0,0.0,0.0,0.0,-3.7758,-3.8248,-3.916,-3.9344,0.0,0.0,-4.0859,-4.0886,-4.1007,-4.1008,-4.1034,-4.109,-4.1108,-4.1107,-4.1107,-4.1107,-4.1107,-4.1107,-4.1108,-4.1108,-4.1108,-4.1108,-4.1108,-4.1108,-4.1108,-4.111,-4.1092,-4.1092,-4.1132,-4.1191,-4.113,-4.1108,-4.1108,-3.5604,-3.556,-3.5541,0.0,-3.5475,-3.5474,0.0,0.0,0.0,0.0,-3.8275,-3.8987,-3.9869,-4.0159,-4.0293,-4.0287,-4.0494,0.0,0.0,0.0,0.0,-4.0629,-4.0676,-4.0703,-4.0695,-4.0779,0.0,-4.0797,0.0,0.0,-4.0965,0.0,0.0,0.0,0.0,0.0,-4.0799,-4.0799,-4.0808,-4.0797,-4.0797,-4.0804,0.0,0.0,-4.0806,-4.0795,-4.0807,-4.0797,-4.0797,-4.0797,-4.0797,-4.0797,-4.0797,-4.0797,-4.0797,-4.0797,-4.0797,-4.0738,-4.0483,-4.0435,-4.0213,-3.9253,-3.9029,-3.8795,0.0,0.0,0.0,0.0,0.0,0.0,0.0,0.0,0.0,0.0,0.0,0.0,0.0,0.0,0.0,-3.5424,0.0,0.0,0.0,-3.7623,-3.8689,-3.8283,-3.8978,0.0,0.0,0.0,-4.0208,-4.0972,-4.1008,-4.1006,-4.103,-4.1073,-4.1107,-4.1107,-4.1107,-4.1107,-4.1108,-4.111,-4.1091,-4.1091,-4.1151,-4.1171,-4.1171,-4.1171,-4.1172,-4.1172,-4.1172,-4.1151,-4.1122,-4.1152,-4.1171,-4.1171,-3.674,0.0,0.0,-3.6775,0.0,0.0,-3.6169,0.0,0.0,-3.8496,-3.9058,0.0,-4.1078,-4.1184,-4.1314,-4.1665,-4.1685,0.0,-4.1718,0.0,0.0,-4.117,-4.0806,-4.0611,-4.0618,-4.0683,0.0,-4.0801,0.0,0.0,-4.0999,0.0,0.0,0.0,0.0,-4.0883,0.0,-4.0807,-4.0805,-4.081,-4.0794,0.0,0.0,-4.0792,-4.0801,-4.0795,-4.0806,-4.0797,-4.0797,-4.0797,-4.0797,-4.0797,-4.0797,-4.0797,-4.0797,-4.0797,-4.0797,-4.0797,-4.0797,-4.0797,-4.0672,-4.0141,-4.0002,-3.9765,-3.8825,-3.8606,-3.8607,0.0,-3.8301,-3.8142,0.0,0.0,0.0,0.0,0.0,0.0,0.0,0.0,0.0,0.0,-3.5925,0.0,0.0,-3.728,-3.8429,-3.7949,0.0,0.0,0.0,0.0,-3.9696,-4.0288,-4.0735,-4.0981,-4.1035,-4.1071,-4.1113,-4.1131,-4.1131,-4.1131,-4.1131,-4.1132,-4.1132,-4.1152,-4.1172,-4.1191,-4.1191,-4.1169,-4.1167,-4.1147,-4.1119,-4.1083,-4.1066,-4.1106,-4.1114,-4.1114,0.0,0.0,0.0,0.0,0.0,0.0,0.0,-3.7203,0.0,-3.9331,0.0,-4.0325,-4.1969,-4.208,-4.2345,-4.3026,0.0,-4.3125,-4.3189,-4.2423,-4.1996,-4.205,-4.1175,-4.0669,-4.0669,-4.0618,0.0,0.0,0.0,0.0,0.0,0.0,0.0,0.0,0.0,0.0,0.0,-4.0812,-4.0793,-4.0766,-4.0765,-4.0765,-4.0765,-4.0765,-4.0765,-4.0765,-4.0784,-4.079,-4.0797,-4.0797,-4.0797,-4.0797,-4.0797,-4.0797,-4.0797,-4.0797,-4.0797,-4.0797,-4.0797,-4.0797,-4.0797,-4.0797,-4.0797,-4.0579,-3.977,-3.9588,-3.9588,-3.9588,-3.8986,-3.8897,-4.0368,0.0,0.0,0.0,0.0,0.0,0.0,0.0,0.0,0.0,0.0,0.0,0.0,0.0,0.0,0.0,0.0,0.0,0.0,0.0,-3.9265,-3.9566,-4.0434,-4.0964,-4.1074,-4.108,-4.1116,-4.117,-4.117,-4.1171,-4.1191,-4.1191,-4.1191,-4.1191,-4.1191,-4.1191,-4.1191,-4.112,-4.1087,-4.108,-4.1022,-4.0994,-4.0997,-4.0997,-4.097,-4.0986,0.0,0.0,0.0,0.0,0.0,-3.9437,-3.9938,-3.9359,-3.9226,-4.0256,-4.097,-4.1768,-4.2791,-4.2911,-4.2948,-4.3102,-4.3094,0.0,0.0,0.0,0.0,-4.2896,-4.204,-4.1566,-4.1566,-4.0922,-4.0673,0.0,0.0,0.0,0.0,0.0,0.0,0.0,0.0,0.0,-4.0828,-4.0792,0.0,-4.0636,-4.0648,-4.0635,-4.0635,-4.0635,-4.0635,-4.0635,-4.07,-4.0746,-4.0797,-4.0797,-4.0797,-4.0797,-4.0797,-4.0797,-4.0797,-4.0797,-4.0797,-4.0797,-4.0797,-4.0797,-4.0797,-4.0797,-4.0797,-4.077,-4.0599,-4.0552,-4.0552,-4.0552,-4.043,-4.0209,-3.9797,0.0,0.0,0.0,0.0,0.0,0.0,0.0,0.0,0.0,0.0,0.0,0.0,0.0,0.0,0.0,0.0,0.0,0.0,0.0,-3.8945,0.0,-4.0791,0.0,0.0,0.0,-4.1014,-4.1044,-4.1044,-4.1066,-4.1116,-4.1116,-4.1146,-4.1191,-4.1191,-4.1191,-4.1191,-4.112,-4.107,-4.1014,-4.1068,-4.1009,-4.0911,-4.0911,-4.0878,-4.0851,0.0,0.0,0.0,0.0,0.0,0.0,0.0,-4.1485,0.0,-4.1893,-4.2269,-4.2808,-4.3678,-4.374,-4.3893,-4.4355,-4.4393,-4.4393,-4.4393,-4.397,-4.372,-4.372,-4.2912,0.0,-4.247,-4.1651,-4.1315,-4.1462,0.0,0.0,-4.1045,0.0,0.0,0.0,0.0,-4.0912,0.0,0.0,0.0,-4.0649,-4.0604,-4.0595,-4.0595,-4.0595,-4.0595,-4.0595,-4.0647,-4.0668,-4.0707,-4.0739,-4.0746,-4.0746,-4.0746,-4.0746,-4.0752,-4.079,-4.0797,-4.0797,-4.0797,-4.0797,-4.0797,-4.0797,-4.0797,-4.0797,-4.0797,-4.0797,-4.0797,-4.0797,-4.0797,-4.0533,-3.9664,-3.8796,0.0,0.0,0.0,0.0,0.0,0.0,0.0,0.0,0.0,0.0,0.0,0.0,0.0,0.0,0.0,0.0,0.0,0.0,-3.8629,0.0,0.0,0.0,-4.0907,0.0,-4.0972,-4.099,-4.099,-4.1028,-4.1054,-4.1054,-4.1068,-4.1104,-4.1104,-4.1104,-4.1083,-4.1017,-4.0964,-4.0907,-4.0937,-4.0897,-4.0846,-4.0846,-4.0825,-4.0815,0.0,-4.1159,0.0,0.0,-4.2301,0.0,-4.3085,-4.3428,-4.3578,-4.3452,-4.3397,-4.3687,-4.4549,-4.4616,-4.4855,-4.5537,-4.5594,-4.5594,-4.5594,-4.496,-4.4586,-4.4586,-4.3797,-4.3355,-4.3355,-4.2508,-4.2067,0.0,0.0,0.0,0.0,0.0,0.0,0.0,0.0,0.0,0.0,0.0,-4.0532,-4.0516,-4.0511,-4.0481,-4.0439,-4.0545,-4.0545,-4.0523,-4.0586,-4.06,-4.06,-4.0666,-4.068,-4.0687,-4.0687,-4.0687,-4.0694,-4.0746,-4.0752,-4.0752,-4.0752,-4.0752,-4.0752,-4.0752,-4.0752,-4.0752,-4.0752,-4.0752,-4.0752,-4.0752,-4.0752,-4.0496,-3.963,-3.9051,0.0,0.0,0.0,0.0,0.0,0.0,0.0,0.0,0.0,0.0,0.0,0.0,0.0,0.0,0.0,0.0,0.0,0.0,0.0,0.0,0.0,-4.0528,-4.0589,0.0,-4.0917,-4.0964,-4.0964,-4.0953,-4.099,-4.099,-4.0997,-4.099,-4.099,-4.0984,-4.0986,-4.0941,-4.0868,-4.0797,-4.0827,-4.0821,-4.0797,-4.0797,-4.0797,-4.0797,0.0,0.0,0.0,0.0,0.0,0.0,-4.4239,-4.4885,-4.5084,-4.43,-4.4193,-4.452,-4.5387,-4.5477,-4.5518,-4.5594,-4.5594,-4.5594,-4.5594,-4.5518,-4.5479,-4.5479,-4.4643,-4.4182,-4.4182,-4.3393,-4.2628,0.0,0.0,-4.1607,0.0,0.0,0.0,0.0,0.0,0.0,0.0,-4.0069,-3.9998,-3.9897,-4.0148,-4.0101,-3.9924,-4.0353,-4.0389,-4.0278,-4.0508,-4.0595,-4.0595,-4.0615,-4.0605,-4.0614,-4.0614,-4.0614,-4.0614,-4.0621,-4.0621,-4.0621,-4.0621,-4.0621,-4.0621,-4.0621,-4.0621,-4.0621,-4.0621,-4.0621,-4.0621,-4.0621,-4.0621,-4.0365,-3.9561,-3.9934,-4.0148,0.0,0.0,0.0,0.0,0.0,0.0,0.0,0.0,0.0,0.0,-3.7868,0.0,0.0,0.0,0.0,0.0,0.0,0.0,-3.9369,-3.9487,-3.9539,-3.9546,-4.0378,-4.0821,-4.0814,-4.0814,-4.0851,-4.0902,-4.0902,-4.0945,-4.099,-4.099,-4.0972,-4.0906,-4.0976,-4.093,-4.0809,-4.0877,-4.0851,-4.0797,-4.0797,-4.0797,-4.0797,0.0,0.0,0.0,0.0,0.0,0.0,0.0,-4.5295,-4.5479,-4.5133,-4.5075,-4.521,-4.5556,-4.5594,-4.5594,-4.5594,-4.5594,-4.5594,-4.5594,-4.5594,-4.5594,-4.5594,-4.5267,-4.5075,-4.5075,-4.4239,-4.362,0.0,0.0,0.0,0.0,0.0,0.0,0.0,0.0,-4.0153,-3.9994,-3.9909,-3.9849,-3.9808,-3.9922,-3.9983,-4.0062,-4.0241,-4.0339,-4.0372,-4.0347,-4.0366,-4.0349,-4.0167,-4.0336,-4.0591,-4.0591,-4.0591,-4.0598,-4.0607,-4.0595,-4.0595,-4.0595,-4.0595,-4.0595,-4.0595,-4.0595,-4.0595,-4.0595,-4.0595,-4.0595,-4.0595,-4.0595,-4.0506,-4.0176,-3.999,-3.9924,-4.0091,0.0,0.0,0.0,0.0,0.0,0.0,0.0,0.0,0.0,0.0,0.0,0.0,0.0,0.0,0.0,0.0,0.0,-3.9448,0.0,-4.0238,-4.0238,-4.0612,-4.0797,-4.0797,-4.0797,-4.0802,-4.0848,-4.0848,-4.0856,-4.0878,-4.0878,-4.0853,-4.0834,-4.0877,-4.0846,-4.0803,-4.0831,-4.082,-4.0797,-4.0797,-4.0797,-4.0797,-4.3084,0.0,-4.3605,0.0,-4.4647,-4.5045,-4.5388,-4.5595,-4.5716,-4.5716,-4.5505,-4.5419,-4.5577,-4.5594,-4.5594,-4.5594,-4.5594,-4.5594,-4.5594,-4.5594,-4.5594,-4.5594,-4.5522,0.0,-4.5485,-4.4787,-4.4279,-4.3922,-4.3008,0.0,0.0,0.0,0.0,0.0,-4.0021,-3.9822,-3.9728,-3.9626,-3.9595,-3.9595,-3.9675,-3.9835,-4.0011,-4.0052,-4.0167,-4.0285,-4.0129,-4.0072,-4.0052,-3.9861,-4.0053,-4.0372,-4.046,-4.0516,-4.058,-4.0571,-4.0579,-4.0579,-4.0579,-4.0579,-4.0579,-4.0579,-4.0579,-4.0579,-4.0579,-4.0579,-4.0579,-4.0579,-4.0579,-4.0579,-4.0579,-4.012,-3.9915,-4.0501,0.0,0.0,0.0,0.0,0.0,0.0,-3.9693,-3.9345,-3.9332,0.0,0.0,0.0,0.0,0.0,0.0,0.0,0.0,0.0,0.0,0.0,-4.0396,-4.0659,-4.0797,-4.0797,-4.0797,-4.0797,-4.0797,-4.0797,-4.0797,-4.0797,-4.0797,-4.0797,-4.0797,-4.0797,-4.0797,-4.0797,-4.0797,-4.0797,-4.0797,-4.0797,-4.079,-4.0778,-4.3545,-4.3685,-4.3922,-4.4652,-4.5451,-4.5982,-4.5988,-4.5988,-4.5988,-4.5988,-4.53,-4.5019,-4.5531,-4.5594,-4.5594,-4.5594,-4.5594,-4.5594,-4.5594,-4.5594,-4.5594,0.0,0.0,-4.5211,-4.5211,-4.4931,-4.4371,-4.3507,0.0,0.0,-4.2383,0.0,-4.1208,-4.0857,-3.9992,-3.9415,-3.9096,-3.9115,-3.9115,-3.9142,-3.9401,-3.9514,-3.9532,-3.9739,-3.9808,-3.9808,-3.9808,-3.9808,-3.9808,-3.9808,-3.9808,-3.9851,-4.0129,-4.0339,-4.0496,-4.0496,-4.0496,-4.0496,-4.0496,-4.0496,-4.0496,-4.0496,-4.0496,-4.0496,-4.0496,-4.0496,-4.0496,-4.0496,-4.0496,-4.0496,-4.0496,-4.0477,-4.0512,-4.058,0.0,0.0,0.0,0.0,0.0,0.0,-3.9464,-3.9477,-3.9408,-3.9453,0.0,0.0,0.0,0.0,0.0,0.0,0.0,-3.939,-3.9409,0.0,-3.9415,-4.0334,-4.0797,-4.0797,-4.0797,-4.0797,-4.0797,-4.0797,-4.0797,-4.0797,-4.0797,-4.0797,-4.0797,-4.0797,-4.0797,-4.0797,-4.0797,-4.0797,-4.0797,-4.0797,-4.0752,-4.07,-4.4228,-4.4317,-4.452,-4.4756,-4.5015,-4.5186,-4.5186,-4.5186,-4.5186,-4.5186,-4.4959,-4.4879,-4.5041,-4.5052,-4.5052,0.0,-4.5052,-4.5052,0.0,-4.5052,-4.5052,-4.5052,-4.4985,-4.4938,-4.4938,-4.4837,-4.4569,-4.4111,0.0,0.0,0.0,-4.1982,-4.1686,-4.1368,-4.1087,-4.0592,-3.9974,-3.9974,-3.964,-3.9115,-3.9192,-3.9337,-3.9514,-3.9561,-3.9683,-3.9786,-3.9637,-3.9597,-3.9573,-3.9389,-3.9439,-3.9609,-3.9709,-3.9859,-4.0014,-4.0014,-4.0014,-4.0014,-4.0014,-4.0157,-4.0295,-4.0295,-4.0408,-4.0496,-4.0496,-4.0389,-4.033,-4.0473,-4.0381,-4.0295,-4.0295,-4.0295,-4.0304,-4.0313,-4.0304,0.0,-4.0516,0.0,0.0,0.0,-4.0165,-4.0165,-4.0145,-4.0205,0.0,0.0,0.0,0.0,0.0,0.0,0.0,0.0,-3.9927,0.0,-4.0231,-4.0514,-4.0668,-4.0668,-4.0668,-4.0668,-4.0668,-4.0668,-4.0668,-4.0668,-4.0668,-4.0668,-4.0668,-4.0668,-4.0668,-4.0668,-4.0668,-4.0668,-4.0668,-4.0668,-4.0661,-4.0628,-4.5298,-4.5312,-4.5439,-4.5439,-4.5702,-4.5876,-4.5876,-4.5627,-4.5439,-4.5439,-4.4893,-4.4511,-4.4511,-4.4511,0.0,-4.4776,-4.4788,-4.4788,-4.4788,-4.4788,-4.4788,-4.4788,-4.4701,-4.465,-4.465,-4.4546,0.0,-4.425,-4.3964,-4.3459,-4.2806,-4.2498,-4.224,-4.2036,-4.172,-4.1311,-4.0847,-4.0847,-4.0531,-4.003,-4.003,-4.0191,-4.039,-4.0325,-4.0416,-4.0524,-4.0033,-3.9836,-3.9754,-3.9281,-3.9205,-3.935,-3.935,-3.9439,-3.9571,-3.9754,-3.9808,-3.9808,-3.9808,-3.9922,-4.0052,-4.0052,-4.0148,-4.0239,-4.0239,-4.0139,-4.0091,-4.0212,-4.0139,-4.0052,-4.0052,-4.0052,-4.0052,-4.0052,-4.0052,-4.0091,-4.0221,0.0,0.0,0.0,0.0,0.0,0.0,-3.9926,-3.9926,0.0,0.0,0.0,0.0,0.0,-4.0089,-3.9851,-4.0333,-4.0595,-4.0595,-4.0595,-4.0595,-4.0595,-4.0595,-4.0595,-4.0595,-4.0595,-4.0595,-4.0595,-4.0595,-4.0595,-4.0595,-4.0595,-4.0595,-4.0595,-4.0595,-4.0595,-4.0595,-4.0595,-4.06,-4.0605,-4.6513,-4.6494,-4.6494,-4.6494,-4.7125,-4.7627,-4.7627,-4.6977,-4.6494,-4.6494,-4.5082,-4.4098,-4.4098,-4.4042,-4.421,-4.4701,0.0,0.0,-4.4739,-4.4739,-4.4739,-4.4739,-4.4506,-4.4374,-4.4374,-4.4121,-4.4005,-4.4005,-4.4005,-4.4005,-4.3986,-4.3225,-4.2872,-4.2853,-4.2092,-4.1739,-4.1683,-4.1683,-4.1646,-4.159,-4.159,-4.1712,-4.1863,-4.1673,-4.1726,-4.1769,-4.0817,-4.0476,-4.0346,-3.9547,-3.9268,-3.9268,-3.9268,-3.9268,-3.9341,-3.9656,-3.9754,-3.9754,-3.9754,-3.9765,-3.9775,-3.9775,-3.9786,-3.9808,-3.9808,-3.9786,-3.9786,-3.9797,-3.9786,-3.9775,-3.9775,-3.9775,-3.9775,-3.9775,-3.9775,-3.9786,-3.9797,-3.9808,0.0,0.0,0.0,0.0,-3.8772,-3.8955,-3.9333,0.0,0.0,0.0,0.0,0.0,-3.9814,-4.0576,-4.0586,-4.0588,-4.0588,-4.0588,-4.0588,-4.0588,-4.0588,-4.0588,-4.0588,-4.0588,-4.0588,-4.0588,-4.0588,-4.0588,-4.0588,-4.0588,-4.0588,-4.0588,-4.0588,-4.0588,-4.0588,-4.0588,-4.0598,-4.06,0.0,0.0,-4.6494,-4.6494,-4.6661,-4.6773,-4.6773,-4.6624,-4.6494,-4.6494,-4.5621,-4.4989,-4.4989,-4.4395,-4.4048,-4.4181,-4.4196,-4.4196,-4.4196,-4.4196,-4.4196,-4.4196,-4.4121,-4.4091,-4.4091,-4.4033,-4.4005,-4.4005,-4.4005,-4.4005,-4.4005,-4.3819,-4.3726,-4.3708,-4.3522,-4.3095,-4.2519,-4.2519,-4.2166,-4.159,-4.159,-4.1634,-4.1673,-4.1619,-4.1634,-4.1636,-4.1396,-4.1311,-4.1274,-4.107,-4.1014,-4.1014,-4.1014,-4.1014,-4.0783,-3.96,-3.9266,-3.9266,-3.9266,-3.9433,-3.9561,-3.9561,-3.9683,-3.9808,-3.9808,-3.9683,-3.9621,-3.9765,-3.9683,-3.9561,-3.9561,-3.9561,-3.9561,-3.9561,-3.9561,-3.9614,-3.9775,-3.9808,-3.9745,0.0,-3.9535,-3.9535,-3.9535,-3.9584,-3.9461,0.0,0.0,-3.9188,-3.9347,-3.9192,-3.9554,-4.0492,-4.0519,-4.0527,-4.0527,-4.0527,-4.0527,-4.0527,-4.0527,-4.0527,-4.0527,-4.0527,-4.0527,-4.0527,-4.0527,-4.0527,-4.0527,-4.0527,-4.0527,-4.0527,-4.0527,-4.0527,-4.0527,-4.0527,-4.0519,-4.062,-4.7683,-4.7608,-4.7608,-4.7608,-4.7608,-4.7608,-4.7608,-4.7274,-4.7051,-4.7051,-4.6345,-4.5714,-4.5342,-4.4878,-4.4432,-4.4023,-4.4005,-4.4005,-4.4005,-4.4005,-4.4005,-4.4005,-4.4005,-4.4005,-4.4005,-4.4005,-4.4005,-4.4005,-4.4005,-4.4005,-4.4005,-4.4005,-4.4005,-4.4005,-4.4005,-4.3763,-4.3355,-4.3355,-4.3095,-4.2705,-4.2705,-4.2705,-4.2705,-4.2705,-4.2705,-4.2649,-4.2277,-4.2147,-4.2092,-4.172,-4.159,-4.159,-4.159,-4.159,-4.1423,-4.0513,-3.9974,-3.9602,-3.9212,-3.9205,-3.9324,-3.9324,-3.9389,-3.9482,-3.9482,-3.9389,-3.9344,-3.9458,-3.9389,-3.9324,-3.9324,-3.9324,-3.9324,-3.9324,-3.9137,-3.9116,-3.9419,-3.9309,-3.9242,-3.9462,-3.9482,-3.9482,-3.9482,-3.959,-3.9504,-3.9097,-3.9147,0.0,-3.9352,-3.938,-3.9709,-4.0477,-4.0496,-4.0496,-4.0496,-4.0496,-4.0496,-4.0496,-4.0496,-4.0496,-4.0496,-4.0496,-4.0496,-4.0496,-4.0496,-4.0496,-4.0496,-4.0496,-4.0496,-4.0496,-4.0496,-4.0496,-4.0496,-4.0496,-4.0746,-4.1162,-4.8909,-4.8909,-4.8909,-4.8909,-4.8909,-4.8909,-4.8909,-4.8314,-4.7887,-4.7887,-4.7181,-4.642,-4.5732,-4.5454,-4.4989,-4.4265,-4.4079,-4.4005,-4.4005,-4.4005,-4.4005,-4.4005,-4.4005,-4.4005,-4.4005,-4.4005,-4.4005,-4.4005,-4.4005,-4.4005,-4.4005,-4.4005,-4.4005,-4.4005,-4.4005,-4.4005,-4.4005,-4.4005,-4.4005,-4.4005,-4.4005,-4.4005,-4.4005,-4.4005,-4.4005,-4.3912,-4.3225,-4.2983,-4.2872,-4.2184,-4.1962,-4.1962,-4.1962,-4.1962,-4.1943,-4.1813,-4.1293,-4.0564,-3.9547,-3.9194,-3.9101,-3.9101,-3.9101,-3.9101,-3.9101,-3.9101,-3.9101,-3.9101,-3.9101,-3.9101,-3.9101,-3.9101,-3.9087,-3.9,-3.8722,-3.861,-3.8949,0.0,-3.8641,-3.9058,-3.9101,-3.9101,-3.9101,-3.9311,-3.9452,-3.9452,-3.9602,-3.9709,-3.9742,-3.9754,-3.9944,-4.0389,-4.0397,-4.0414,-4.0457,-4.0481,-4.0496,-4.0496,-4.0496,-4.0496,-4.0496,-4.0496,-4.0496,-4.0496,-4.0496,-4.0496,-4.0496,-4.0496,-4.0481,-4.0457,-4.0457,-4.0422,-4.0417,-4.0551,-4.1061,-4.1733,-4.8909,-4.8909,-4.8909,-4.8909,-4.8909,-4.8909,-4.8909,-4.8797,-4.8723,-4.8723,-4.8017,-4.746,-4.7348,-4.6104,-4.5249,-4.5101,-4.4413,-4.4005,-4.4005,-4.4005,-4.4005,-4.4005,-4.4005,-4.4005,-4.4005,-4.4005,-4.4005,-4.4005,-4.4005,-4.4005,-4.4005,-4.4005,-4.4005,-4.4005,-4.4005,-4.4005,-4.4005,-4.4005,-4.4005,-4.4005,-4.4005,-4.4005,-4.4005,-4.4005,-4.4005,-4.3986,-4.3856,-4.3819,-4.3782,-4.367,-4.3633,-4.3633,-4.3633,-4.3633,-4.3485,-4.2816,-4.2519,-4.2092,-4.0587,-3.9658,-3.9101,-3.9101,-3.9101,-3.9101,-3.9101,-3.9101,-3.9101,-3.9101,-3.9101,-3.9101,-3.9101,-3.9101,-3.896,-3.8572,-3.877,-3.8871,-3.8556,0.0,-3.9024,-3.9096,-3.9101,-3.9101,-3.9101,-3.9142,-3.9151,-3.9151,-3.9192,-3.9305,-3.9532,-3.9556,-3.9667,-3.9903,-3.9913,-4.0013,-4.0251,-4.0425,-4.0496,-4.0496,-4.0496,-4.0496,-4.0496,-4.0496,-4.0496,-4.0496,-4.0496,-4.0496,-4.0496,-4.0496,-4.0389,-4.0251,-4.0251,-4.011,-3.9998,-4.0729,-4.1089,-4.1412,-4.875,-4.875,-4.875,-4.875,-4.875,-4.875,-4.875,-4.875,-4.875,-4.875,-4.8435,-4.8027,-4.7601,-4.6879,-4.6251,-4.5825,-4.5419,-4.4994,-4.4566,-4.4199,-4.4005,-4.4005,-4.4005,-4.4005,-4.4005,-4.4005,-4.4005,-4.4005,-4.4005,-4.4005,-4.4005,-4.4005,-4.4005,-4.4005,-4.4005,-4.4005,-4.4005,-4.4005,-4.4005,-4.4005,-4.4005,-4.4005,-4.4005,-4.4005,-4.4005,-4.4005,-4.4005,-4.4005,-4.4005,-4.4005,-4.4005,-4.4005,-4.4005,-4.4005,-4.3931,-4.3559,-4.2835,-4.198,-4.1237,-4.0438,-3.9788,-3.9788,-3.9454,-3.9101,-3.9101,-3.9101,-3.9101,-3.9101,-3.9101,-3.9101,-3.9101,-3.9101,-3.9029,-3.8808,-3.8742,-3.8736,-3.8763,-3.8742,-3.8827,-3.9068,-3.9101,-3.9101,-3.9101,-3.9101,-3.9101,-3.9101,-3.9101,-3.9137,-3.9272,-3.9285,-3.9331,-3.9408,-3.9664,-3.9851,-3.9973,-4.0072,-4.012,-4.012,-4.012,-4.0194,-4.0339,-4.0339,-4.0408,-4.0489,-4.04,-4.0339,-4.033,-4.0185,-4.0062,-4.003,-4.0506,-4.0604,-4.0601,-4.1442,-4.2029,-4.2503,-4.8605,-4.8605,-4.8605,-4.8605,-4.8605,-4.8605,-4.8605,-4.8605,-4.8605,-4.8605,-4.8605,-4.8365,-4.7737,-4.7497,-4.7147,-4.6538,-4.6317,-4.5947,-4.5337,-4.4807,-4.435,-4.3992,-4.3989,-4.4005,-4.4005,-4.4005,-4.4005,-4.4005,-4.4005,-4.4005,-4.4005,-4.4005,-4.4005,-4.4005,-4.4005,-4.4005,-4.4005,-4.4005,-4.4005,-4.4005,-4.4005,-4.4005,-4.4005,-4.4005,-4.4005,-4.4005,-4.4005,-4.4005,-4.4005,-4.4005,-4.4005,-4.4005,-4.4005,-4.4005,-4.4005,-4.4005,-4.3132,-4.211,-4.1924,-4.1293,-4.0624,-4.0438,-3.99,-3.9342,-3.9138,-3.9101,-3.9101,-3.9101,-3.9101,-3.9101,-3.9101,-3.9101,-3.9063,-3.8968,0.0,-3.8652,-3.8901,-3.871,-3.8707,-3.9063,-3.9101,-3.9101,-3.9101,-3.9101,-3.9101,-3.9101,-3.9101,-3.9101,-3.9101,-3.9101,-3.9101,-3.9101,-3.9507,-3.9739,-3.9739,-3.9984,-4.01,-4.01,-4.01,-4.0216,-4.0396,-4.0206,-4.0195,-4.0347,-4.0387,-4.0415,-4.0406,-4.0403,-4.0352,-4.0352,-4.1021,-4.125,-4.1316,-4.2115,-4.2813,-4.336,-4.8605,-4.8605,-4.8605,-4.8605,-4.8605,-4.8605,-4.8605,-4.8605,-4.8605,-4.8605,-4.8605,-4.8587,-4.8531,-4.7848,-4.7368,-4.7313,-4.663,-4.617,-4.6132,-4.6058,-4.5389,-4.3971,-4.3958,-4.4005,-4.4005,-4.4005,-4.4005,-4.4005,-4.4005,-4.4005,-4.4005,-4.4005,-4.4005,-4.4005,-4.4005,-4.4005,-4.4005,-4.4005,-4.4005,-4.4005,-4.4005,-4.4005,-4.4005,-4.4005,-4.4005,-4.4005,-4.4005,-4.4005,-4.4005,-4.4005,-4.4005,-4.4005,-4.4005,-4.4005,-4.4005,-4.4005,-4.3912,-4.3652,-4.2909,-4.211,-4.133,-4.0601,-4.0346,-4.0085,-3.9287,-3.9101,-3.9101,-3.9101,-3.9101,-3.9101,-3.9101,-3.9101,-3.8954,-3.8512,0.0,0.0,-3.8515,-3.8795,-3.9063,-3.9115,-3.9101,-3.9101,-3.9101,-3.9101,-3.9101,-3.9101,-3.9101,-3.9101,-3.9101,-3.9101,-3.9101,-3.9101,-3.937,-3.952,-3.952,-4.0518,-4.0999,-4.0999,-4.0999,-4.101,-4.1002,-4.0198,-3.984,-3.9908,-4.0691,-4.1021,-4.1097,-4.1821,-4.1963,-4.1749,-4.1824,-4.172,-4.1663,-4.2467,-4.2798,-4.2966,-4.8402,-4.8402,-4.8402,-4.8402,-4.8402,-4.8402,-4.8402,-4.8402,-4.8402,-4.8402,-4.8402,-4.8402,-4.8402,-4.8144,-4.796,-4.796,-4.7666,-4.7298,-4.6801,-4.6764,-4.6119,-4.465,-4.4126,-4.3883,-4.3883,-4.3883,-4.3883,-4.3883,-4.3883,-4.3883,-4.3883,-4.3883,-4.3883,-4.3883,-4.3883,-4.3883,-4.3883,-4.3883,-4.3883,-4.3883,-4.3883,-4.3897,-4.3945,-4.3945,-4.3958,-4.4005,-4.4005,-4.4005,-4.4005,-4.4005,-4.3974,-4.3945,-4.3945,-4.3913,-4.3883,-4.3883,-4.3883,-4.3809,-4.3495,-4.2888,-4.2259,-4.1962,-4.1126,-4.0323,-3.9974,-3.9491,-3.9101,-3.9101,-3.9101,-3.9101,-3.9101,-3.9101,-3.9034,-3.8858,0.0,-3.8998,-3.8858,-3.8909,-3.8993,-3.9036,-3.9007,-3.8979,-3.8979,-3.8979,-3.8993,-3.9036,-3.9036,-3.9064,-3.9101,-3.9045,-3.9021,-3.8979,-3.9556,-3.9914,-4.0047,-4.0454,-4.0892,-4.1343,-4.1343,-4.1392,-4.1454,-4.1167,-4.1116,-4.1297,-4.1511,-4.16,-4.1607,-4.179,-4.1824,-4.1763,-4.2253,-4.2418,-4.2445,-4.3243,-4.354,-4.3596,-4.8306,-4.8306,-4.8306,-4.8306,-4.8306,-4.8306,-4.8306,-4.8306,-4.8306,-4.8306,-4.8306,-4.8306,-4.8306,-4.8306,-4.8306,-4.8306,-4.8306,-4.8086,-4.7498,-4.7241,-4.6581,-4.5396,-4.4581,-4.4192,-4.4192,-4.3933,-4.3804,-4.3804,-4.3804,-4.3804,-4.3804,-4.3804,-4.3804,-4.3804,-4.3804,-4.3804,-4.3804,-4.3804,-4.3804,-4.3804,-4.3804,-4.3837,-4.3867,-4.3867,-4.3913,-4.3958,-4.3958,-4.3958,-4.3974,-4.3989,-4.3961,-4.3897,-4.3897,-4.3851,-4.3804,-4.3804,-4.3804,-4.3804,-4.3804,-4.346,-4.3055,-4.2777,-4.1887,-4.0922,-4.0422,-3.9847,-3.9346,-3.9087,-3.9031,-3.9031,-3.9031,-3.9031,-3.9031,-3.9031,-3.9007,-3.8979,-3.9017,-3.8964,-3.8925,-3.895,-3.8939,-3.891,-3.891,-3.891,-3.8925,-3.8983,-3.8964,-3.8993,-3.9031,-3.8993,-3.9065,-3.9261,-3.9815,-4.0411,-4.1052,-4.1071,-4.1319,-4.1813,-4.1813,-4.1853,-4.1932,-4.1729,-4.174,-4.1916,-4.2029,-4.2086,-4.209,-4.2222,-4.2294,-4.235,-4.2906,-4.311,-4.3185,-4.3741,-4.3945,-4.3945,-4.8306,-4.8306,-4.8306,-4.8306,-4.8306,-4.8306,-4.8306,-4.8306,-4.8306,-4.8306,-4.8306,-4.8306,-4.8306,-4.8306,-4.8306,-4.8306,-4.8306,-4.8306,-4.8306,-4.7553,-4.682,-4.6156,-4.5396,-4.5004,-4.5004,-4.4229,-4.3788,-4.3788,-4.3788,-4.3788,-4.3788,-4.3788,-4.3788,-4.3788,-4.3788,-4.3788,-4.3788,-4.3788,-4.3788,-4.3788,-4.3788,-4.3804,-4.3804,-4.3804,-4.3835,-4.3897,-4.3897,-4.3897,-4.3913,-4.3974,-4.3942,-4.3915,-4.3915,-4.3851,-4.3788,-4.3788,-4.3788,-4.3788,-4.3788,-4.3788,-4.3584,-4.2735,-4.2514,-4.2071,-4.048,-4.0111,-3.9871,-3.9076,-3.891,-3.891,-3.891,-3.891,-3.891,-3.891,-3.891,-3.891,-3.891,-3.891,-3.891,-3.891,-3.891,-3.891,-3.891,-3.891,-3.891,-3.891,-3.891,-3.891,-3.891,-3.891,-3.928,-4.0074,-4.0111,-4.0886,-4.2495,-4.2495,-4.2495,-4.2514,-4.2514,-4.2514,-4.2495,-4.1667,-4.1317,-4.1354,-4.2163,-4.2514,-4.2588,-4.3437,-4.3804,-4.3804,-4.3804,-4.3804,-4.3804,-4.3804,-4.3804,-4.3804,-4.8416,-4.8306,-4.8306,-4.8306,-4.8306,-4.8306,-4.8306,-4.8306,-4.8306,-4.8306,-4.8306,-4.8306,-4.8306,-4.8306,-4.8306,-4.8306,-4.8306,-4.8306,-4.8306,-4.8067,-4.7847,-4.7646,-4.636,-4.5367,-4.4798,-4.454,-4.4136,-4.3583,-4.3583,-4.3583,-4.3583,-4.3583,-4.3583,-4.3583,-4.3583,-4.3583,-4.3583,-4.3583,-4.3583,-4.3583,-4.3583,-4.3617,-4.3667,-4.3667,-4.3736,-4.3837,-4.3837,-4.3837,-4.3818,-4.3851,-4.3783,-4.3666,-4.3615,-4.36,-4.3583,-4.3583,-4.3583,-4.3583,-4.3583,-4.3583,-4.3562,-4.3439,-4.2957,-4.2366,-4.1886,-4.1351,-4.0705,-3.9907,-3.9741,-3.9575,-3.9003,-3.891,-3.891,-3.891,-3.8866,-3.8851,-3.8877,-3.8807,-3.878,-3.8822,-3.8795,-3.8765,-3.8765,-3.8765,-3.878,-3.8837,-3.8862,-3.8881,-3.8837,-3.9356,-3.9749,-3.9942,-4.1045,-4.1856,-4.2353,-4.2449,-4.2758,-4.3264,-4.3264,-4.3266,-4.3197,-4.3008,-4.2914,-4.2932,-4.3273,-4.34,-4.3418,-4.3693,-4.3804,-4.3804,-4.3804,-4.3804,-4.3804,-4.3804,-4.3804,-4.3804,-4.8912,-4.8545,-4.8306,-4.8306,-4.8306,-4.8306,-4.8306,-4.8306,-4.8306,-4.8306,-4.8306,-4.8306,-4.8306,-4.8306,-4.8306,-4.8306,-4.8306,-4.8306,-4.8306,-4.8306,-4.8306,-4.8306,-4.737,-4.6471,-4.5663,-4.5021,-4.447,-4.3975,-4.3662,-4.3515,-4.3515,-4.3515,-4.3515,-4.3515,-4.3515,-4.3515,-4.3515,-4.3515,-4.3515,-4.3515,-4.3515,-4.3513,-4.3548,-4.3548,-4.3634,-4.3719,-4.3719,-4.3719,-4.3736,-4.3788,-4.3719,-4.3582,-4.3548,-4.3513,-4.3515,-4.3515,-4.3515,-4.3515,-4.3515,-4.3515,-4.3497,-4.3463,-4.3163,-4.2803,-4.249,-4.2048,-4.1477,-4.0649,-4.0501,-4.0243,-3.9448,-3.9301,-3.919,-3.8877,-3.8795,-3.8762,-3.8825,-3.875,-3.8723,-3.8765,-3.8719,-3.8707,-3.8707,-3.8707,-3.8723,-3.8765,-3.9086,-3.9271,-3.924,-3.9997,-4.0554,-4.0836,-4.1791,-4.2451,-4.2763,-4.2864,-4.312,-4.3548,-4.3548,-4.3531,-4.3515,-4.3531,-4.3548,-4.3565,-4.3652,-4.3686,-4.3686,-4.3686,-4.3686,-4.3686,-4.3686,-4.3686,-4.3686,-4.3686,-4.3686,-4.3686,-4.9629,-4.8948,-4.8398,-4.8324,-4.8306,-4.8306,-4.8306,-4.8306,-4.8306,-4.8306,-4.8306,-4.8306,-4.8306,-4.8306,-4.8306,-4.8306,-4.8306,-4.8306,-4.8306,-4.8306,-4.8306,-4.8306,-4.8306,-4.7957,-4.7223,-4.57,-4.4838,-4.4691,-4.3975,-4.357,-4.3515,-4.3515,-4.3479,-4.3444,-4.3444,-4.3427,-4.3392,-4.3392,-4.3392,-4.3392,-4.3392,-4.3392,-4.3392,-4.3392,-4.3409,-4.3478,-4.3478,-4.3478,-4.3513,-4.3669,-4.3634,-4.3548,-4.3582,-4.3548,-4.3479,-4.3463,-4.3444,-4.3427,-4.3392,-4.3392,-4.3304,-4.292,-4.3105,-4.3191,-4.2459,-4.2294,-4.2056,-4.1302,-4.1137,-4.0916,-4.0157,-4.001,-3.9772,-3.9038,-3.8854,-3.8817,-3.8817,-3.8762,-3.8707,-3.8707,-3.8707,-3.8726,-3.8799,-3.8872,-3.8909,-3.8909,-3.9588,-4.001,-4.001,-4.0781,-4.1535,-4.2286,-4.2378,-4.2763,-4.3496,-4.3515,-4.3515,-4.3515,-4.3515,-4.3515,-4.3515,-4.3515,-4.3515,-4.3515,-4.3515,-4.3515,-4.3515,-4.3515,-4.3515,-4.3515,-4.3515,-4.3515,-4.3515,-4.3515,-4.3515,-4.3515,-4.9849,-4.9445,-4.9095,-4.8416,-4.8306,-4.8306,-4.8306,-4.8306,-4.8306,-4.8306,-4.8306,-4.8306,-4.8306,-4.8306,-4.8306,-4.8306,-4.8306,-4.8306,-4.8306,-4.8306,-4.8306,-4.8306,-4.8306,-4.8233,-4.8049,-4.7076,-4.5957,-4.4691,-4.4544,-4.4121,-4.3515,-4.3515,-4.3339,-4.3032,-4.3032,-4.2826,-4.248,-4.248,-4.248,-4.248,-4.248,-4.248,-4.248,-4.248,-4.248,-4.25,-4.25,-4.25,-4.2559,-4.2976,-4.3087,-4.3105,-4.3427,-4.3496,-4.3427,-4.3124,-4.3032,-4.2957,-4.2577,-4.248,-4.246,-4.236,-4.2418,-4.2444,-4.2245,-4.2209,-4.2091,-4.1597,-4.1488,-4.1377,-4.0918,-4.0838,-4.0765,-4.06,-4.0047,-3.9643,-3.9643,-3.9093,-3.8707,-3.8707,-3.8707,-3.8946,-3.957,-4.0212,-4.0581,-4.0581,-4.0728,-4.0838,-4.0838,-4.1607,-4.2121,-4.2286,-4.291,-4.3331,-4.3515,-4.3515,-4.3515,-4.3515,-4.3515,-4.3515,-4.3515,-4.3515,-4.3515,-4.3515,-4.3515,-4.3515,-4.3515,-4.3515,-4.3515,-4.3515,-4.3515,-4.3515,-4.3515,-4.3515,-4.3515,-4.3496,-5.0914,-5.0143,-4.9463,-4.9003,-4.8581,-4.8306,-4.8306,-4.8306,-4.821,-4.7995,-4.7975,-4.7877,-4.765,-4.763,-4.7713,-4.7955,-4.7975,-4.7975,-4.7975,-4.7754,-4.763,-4.763,-4.763,-4.763,-4.763,-4.7231,-4.6615,-4.5828,-4.4876,-4.4199,-4.378,-4.3177,-4.277,-4.2575,-4.2575,-4.2438,-4.2198,-4.2198,-4.2198,-4.2198,-4.2198,-4.2198,-4.2198,-4.2198,-4.2198,-4.2198,-4.2198,-4.2198,-4.2257,-4.2478,-4.2575,-4.2596,-4.2808,-4.2884,-4.2846,-4.2616,-4.2575,-4.2498,-4.2277,-4.2198,-4.2154,-4.1927,-4.1864,-4.1927,-4.2136,-4.2198,-4.2152,-4.1921,-4.1889,-4.1714,-4.1162,-4.1053,-4.0926,-4.0546,-4.0287,-4.0133,-4.0133,-3.9971,-3.9829,-3.9829,-3.9829,-3.9912,-4.0113,-4.0516,-4.0685,-4.0492,-4.0836,-4.1053,-4.1053,-4.2032,-4.2594,-4.2594,-4.3172,-4.3515,-4.3515,-4.3515,-4.3515,-4.3515,-4.3515,-4.3515,-4.3515,-4.3515,-4.3515,-4.3515,-4.3515,-4.3515,-4.3515,-4.3515,-4.3515,-4.3515,-4.3515,-4.3515,-4.3515,-4.3515,-4.3515,-4.3515,-5.2013,-5.0932,-4.9922,-4.9647,-4.9003,-4.8452,-4.8228,-4.8172,-4.8015,-4.7548,-4.7485,-4.7335,-4.6954,-4.6908,-4.7066,-4.7442,-4.7485,-4.7485,-4.7485,-4.7133,-4.6908,-4.6908,-4.6908,-4.6908,-4.6908,-4.6908,-4.6892,-4.6866,-4.5187,-4.4231,-4.3942,-4.288,-4.2282,-4.2074,-4.2074,-4.2032,-4.1987,-4.1987,-4.1987,-4.1987,-4.1987,-4.1987,-4.1987,-4.1987,-4.1987,-4.1987,-4.1987,-4.1987,-4.199,-4.2053,-4.2074,-4.2095,-4.2177,-4.2198,-4.2177,-4.2095,-4.2074,-4.2053,-4.2008,-4.1987,-4.1885,-4.149,-4.1401,-4.1512,-4.1903,-4.1987,-4.2008,-4.2053,-4.2074,-4.1899,-4.1321,-4.1214,-4.1,-4.0319,-4.0377,-4.0492,-4.0492,-4.0706,-4.0876,-4.0876,-4.1003,-4.0938,-4.0546,-4.0636,-4.056,-4.0251,-4.082,-4.1214,-4.1214,-4.2215,-4.2787,-4.2787,-4.3105,-4.3322,-4.3392,-4.3392,-4.3427,-4.3515,-4.3515,-4.3515,-4.3515,-4.3515,-4.3515,-4.3515,-4.3515,-4.3515,-4.3515,-4.3515,-4.3515,-4.3515,-4.3515,-4.3515,-4.3515,-4.3515,-4.3515,-4.3515,-5.2142,-5.1811,-5.1244,-4.9849,-4.95,-4.9014,-4.7884,-4.7695,-4.7527,-4.7066,-4.6981,-4.6976,-4.6908,-4.6908,-4.6931,-4.6999,-4.6981,-4.6981,-4.6981,-4.6931,-4.6908,-4.6908,-4.6908,-4.6908,-4.6908,-4.6908,-4.6561,-4.5889,-4.5626,-4.4761,-4.34,-4.323,-4.259,-4.1583,-4.1583,-4.1401,-4.1065,-4.1065,-4.1065,-4.1065,-4.1065,-4.1065,-4.1065,-4.1065,-4.1065,-4.1065,-4.1065,-4.1065,-4.1134,-4.149,-4.1583,-4.167,-4.2074,-4.2198,-4.2115,-4.1713,-4.1583,-4.1534,-4.1163,-4.1065,-4.1065,-4.1012,-4.0989,-4.1012,-4.1065,-4.1065,-4.1163,-4.1516,-4.1583,-4.1678,-4.1973,-4.2037,-4.2002,-4.1874,-4.1346,-4.0919,-4.0919,-4.0386,-3.9994,-3.9994,-4.0586,-4.0997,-4.0939,-4.1544,-4.1937,-4.1895,-4.1984,-4.2037,-4.2037,-4.2206,-4.2279,-4.2279,-4.2358,-4.2577,-4.2994,-4.2976,-4.316,-4.3515,-4.3515,-4.3515,-4.3515,-4.3515,-4.3515,-4.3515,-4.3515,-4.3515,-4.3515,-4.3515,-4.3515,-4.3515,-4.3515,-4.3515,-4.3515,-4.3515,-4.3515,-4.3515,-5.1845,-5.1411,-5.0742,-4.9567,-4.9007,-4.8381,-4.7374,-4.7204,-4.7026,-4.656,-4.6507,-4.6387,-4.6094,-4.6339,-4.6507,-4.6507,-4.6507,-4.6507,-4.6507,-4.6242,-4.607,-4.607,-4.607,-4.607,-4.607,-4.607,-4.5887,-4.5537,-4.5394,-4.4951,-4.4221,-4.3102,-4.2294,-4.1771,-4.1354,-4.1065,-4.0912,-4.0912,-4.0912,-4.0912,-4.0912,-4.0912,-4.0912,-4.0912,-4.0912,-4.0912,-4.0912,-4.0912,-4.0918,-4.1094,-4.1163,-4.1209,-4.1418,-4.1485,-4.144,-4.1232,-4.1163,-4.1117,-4.0942,-4.0912,-4.0912,-4.0912,-4.0912,-4.0912,-4.0912,-4.0912,-4.0942,-4.1117,-4.1163,-4.1232,-4.144,-4.1485,-4.1485,-4.1485,-4.1366,-4.1287,-4.1287,-4.1194,-4.1123,-4.1123,-4.1446,-4.1579,-4.129,-4.1587,-4.1731,-4.1485,-4.1485,-4.1485,-4.1485,-4.1687,-4.1799,-4.1799,-4.2053,-4.2297,-4.2498,-4.2498,-4.2596,-4.277,-4.277,-4.3032,-4.3515,-4.3515,-4.3515,-4.3515,-4.3515,-4.3515,-4.3515,-4.3515,-4.3515,-4.348,-4.325,-4.2995,-4.277,-4.277,-4.277,-4.277]},{"header":{"parameterUnit":"m.s-1","parameterCategory":1,"la1":30.6,"la2":28.766,"lo1":-90.7593,"lo2":-88.6598,"dy":0.0162,"dx":0.0183,"nx":116,"ny":114,"refTime":"2023-08-08T12:00:00:Z","depth":0,"parameterNumber":3,"parameterNumberName":"V-component_of_WINDS"},"data":[0.0,0.0,0.0,0.0,0.0,0.0,0.0,0.0,0.0,0.0,0.0,0.0,0.0,0.0,0.0,0.0,0.0,0.0,0.0,0.0,0.0,0.0,0.0,0.0,0.0,0.0,0.0,0.0,0.0,0.0,0.0,0.0,0.0,0.0,0.0,0.0,0.0,0.0,0.0,0.0,0.0,0.0,0.0,0.0,0.0,0.0,0.0,0.0,0.0,0.0,0.0,0.0,0.0,0.0,0.0,0.0,0.0,0.0,0.0,0.0,0.0,0.0,0.0,0.0,0.0,0.0,0.0,0.0,0.0,0.0,0.0,0.0,0.0,0.0,0.0,0.0,0.0,0.0,0.0,0.0,0.0,0.0,0.0,0.0,0.0,0.0,0.0,0.0,0.0,0.0,0.0,0.0,0.0,0.0,0.0,0.0,0.0,0.0,0.0,0.0,0.0,0.0,0.0,0.0,0.0,0.0,0.0,0.0,0.0,0.0,0.0,0.0,0.0,0.0,0.0,0.0,0.0,0.0,0.0,0.0,0.0,0.0,0.0,0.0,0.0,0.0,0.0,0.0,0.0,0.0,0.0,0.0,0.0,0.0,0.0,0.0,0.0,0.0,0.0,0.0,0.0,0.0,0.0,0.0,0.0,0.0,0.0,0.0,0.0,0.0,0.0,0.0,0.0,0.0,0.0,0.0,0.0,0.0,0.0,0.0,0.0,0.0,0.0,0.0,0.0,0.0,0.0,0.0,0.0,0.0,0.0,0.0,0.0,0.0,0.0,0.0,0.0,0.0,0.0,0.0,0.0,0.0,0.0,0.0,0.0,0.0,0.0,0.0,0.0,0.0,0.0,0.0,0.0,0.0,0.0,0.0,0.0,0.0,0.0,0.0,0.0,0.0,0.0,0.0,0.0,0.0,0.0,0.0,0.0,0.0,0.0,0.0,0.0,0.0,0.0,0.0,0.0,0.0,0.0,0.0,0.0,0.0,0.0,0.0,0.0,0.0,0.0,0.0,0.0,0.0,0.0,0.0,0.0,0.0,0.0,0.0,0.0,0.0,0.0,0.0,0.0,0.0,0.0,0.0,0.0,0.0,0.0,0.0,0.0,0.0,0.0,0.0,0.0,0.0,0.0,0.0,0.0,0.0,0.0,0.0,0.0,0.0,0.0,0.0,0.0,0.0,0.0,0.0,0.0,0.0,0.0,0.0,0.0,0.0,0.0,0.0,0.0,0.0,0.0,0.0,0.0,0.0,0.0,0.0,0.0,0.0,0.0,0.0,0.0,0.0,0.0,0.0,0.0,0.0,0.0,0.0,0.0,0.0,0.0,0.0,0.0,0.0,0.0,0.0,0.0,0.0,0.0,0.0,0.0,0.0,0.0,0.0,0.0,0.0,0.0,0.0,0.0,0.0,0.0,0.0,0.0,0.0,0.0,0.0,0.0,0.0,0.0,0.0,0.0,0.0,0.0,0.0,0.0,0.0,0.0,0.0,0.0,0.0,0.0,0.0,0.0,0.0,0.0,0.0,0.0,0.0,0.0,0.0,0.0,0.0,0.0,0.0,0.0,0.0,0.0,0.0,0.0,0.0,0.0,0.0,0.0,0.0,0.0,0.0,0.0,0.0,0.0,0.0,0.0,0.0,0.0,0.0,0.0,0.0,0.0,0.0,0.0,0.0,0.0,0.0,0.0,0.0,0.0,0.0,0.0,0.0,0.0,0.0,0.0,0.0,0.0,0.0,0.0,0.0,0.0,0.0,0.0,0.0,0.0,0.0,0.0,0.0,0.0,0.0,0.0,0.0,0.0,0.0,0.0,0.0,0.0,0.0,0.0,0.0,0.0,0.0,0.0,0.0,0.0,0.0,0.0,0.0,0.0,0.0,0.0,0.0,0.0,0.0,0.0,0.0,0.0,0.0,0.0,0.0,0.0,0.0,0.0,0.0,0.0,0.0,0.0,0.0,0.0,0.0,0.0,0.0,0.0,0.0,0.0,0.0,0.0,0.0,0.0,0.0,0.0,0.0,0.0,0.0,0.0,0.0,0.0,0.0,0.0,0.0,0.0,0.0,0.0,0.0,0.0,0.0,0.0,0.0,0.0,0.0,0.0,0.0,0.0,0.0,0.0,0.0,0.0,0.0,0.0,0.0,0.0,0.0,0.0,0.0,0.0,0.0,0.0,0.0,0.0,0.0,0.0,0.0,0.0,0.0,0.0,0.0,0.0,0.0,0.0,0.0,0.0,0.0,0.0,0.0,0.0,0.0,0.0,0.0,0.0,0.0,0.0,0.0,0.0,0.0,0.0,0.0,0.0,0.0,0.0,0.0,0.0,0.0,0.0,0.0,0.0,0.0,0.0,0.0,0.0,0.0,0.0,0.0,0.0,0.0,0.0,0.0,0.0,0.0,0.0,0.0,0.0,0.0,0.0,0.0,0.0,0.0,0.0,0.0,0.0,0.0,0.0,0.0,0.0,0.0,0.0,0.0,0.0,0.0,0.0,0.0,0.0,0.0,0.0,0.0,0.0,0.0,0.0,0.0,0.0,0.0,0.0,0.0,0.0,0.0,0.0,0.0,0.0,0.0,0.0,0.0,0.0,0.0,0.0,0.0,0.0,0.0,0.0,0.0,0.0,0.0,0.0,0.0,0.0,0.0,0.0,0.0,0.0,0.0,0.0,0.0,0.0,0.0,0.0,0.0,0.0,0.0,0.0,0.0,0.0,0.0,0.0,0.0,0.0,0.0,0.0,0.0,0.0,0.0,0.0,0.0,0.0,0.0,0.0,0.0,0.0,0.0,0.0,0.0,0.0,0.0,0.0,0.0,0.0,0.0,0.0,0.0,0.0,0.0,0.0,0.0,0.0,0.0,0.0,0.0,0.0,0.0,0.0,0.0,0.0,0.0,0.0,0.0,0.0,0.0,0.0,0.0,0.0,0.0,0.0,0.0,0.0,0.0,0.0,0.0,0.0,0.0,0.0,0.0,0.0,0.0,0.0,0.0,0.0,0.0,0.0,0.0,0.0,0.0,0.0,0.0,0.0,0.0,0.0,0.0,0.0,0.0,0.0,0.0,0.0,0.0,0.0,0.0,0.0,0.0,0.0,0.0,0.0,0.0,0.0,0.0,0.0,0.0,0.0,0.0,0.0,0.0,0.0,0.0,0.0,0.0,0.0,0.0,0.0,0.0,0.0,0.0,0.0,0.0,0.0,0.0,0.0,0.0,0.0,0.0,0.0,0.0,0.0,0.0,0.0,0.0,0.0,0.0,0.0,0.0,0.0,0.0,0.0,0.0,0.0,0.0,0.0,0.0,0.0,0.0,0.0,0.0,0.0,0.0,0.0,0.0,0.0,0.0,0.0,0.0,0.0,0.0,0.0,0.0,0.0,0.0,0.0,0.0,0.0,0.0,0.0,0.0,0.0,0.0,0.0,0.0,0.0,0.0,0.0,0.0,0.0,0.0,0.0,0.0,0.0,0.0,0.0,0.0,0.0,0.0,0.0,0.0,0.0,0.0,0.0,0.0,0.0,0.0,0.0,0.0,0.0,0.0,0.0,0.0,0.0,0.0,0.0,0.0,0.0,0.0,0.0,0.0,0.0,0.0,0.0,0.0,0.0,0.0,0.0,0.0,0.0,0.0,0.0,0.0,0.0,0.0,0.0,0.0,0.0,0.0,0.0,0.0,0.0,0.0,0.0,0.0,0.0,0.0,0.0,0.0,0.0,0.0,0.0,0.0,0.0,0.0,0.0,0.0,0.0,0.0,0.0,0.0,0.0,0.0,0.0,0.0,0.0,0.0,0.0,0.0,0.0,0.0,0.0,0.0,0.0,0.0,0.0,0.0,0.0,0.0,0.0,0.0,0.0,0.0,0.0,0.0,0.0,0.0,0.0,0.0,0.0,0.0,0.0,0.0,0.0,0.0,0.0,0.0,0.0,0.0,0.0,0.0,0.0,0.0,0.0,0.0,0.0,0.0,0.0,0.0,0.0,0.0,0.0,0.0,0.0,0.0,0.0,0.0,0.0,0.0,0.0,0.0,0.0,0.0,0.0,0.0,0.0,0.0,0.0,0.0,0.0,0.0,0.0,0.0,0.0,0.0,0.0,0.0,0.0,0.0,0.0,0.0,0.0,0.0,0.0,0.0,0.0,0.0,0.0,0.0,0.0,0.0,0.0,0.0,0.0,0.0,0.0,0.0,0.0,0.0,0.0,0.0,0.0,0.0,0.0,0.0,0.0,0.0,0.0,0.0,0.0,0.0,0.0,0.0,0.0,0.0,0.0,0.0,0.0,0.0,0.0,0.0,0.0,0.0,0.0,0.0,0.0,0.0,0.0,0.0,0.0,0.0,0.0,0.0,0.0,0.0,0.0,0.0,0.0,0.0,0.0,0.0,0.0,0.0,0.0,0.0,0.0,0.0,0.0,0.0,0.0,0.0,0.0,0.0,0.0,0.0,0.0,0.0,0.0,0.0,0.0,0.0,0.0,0.0,0.0,0.0,0.0,0.0,0.0,0.0,0.0,0.0,0.0,0.0,0.0,0.0,0.0,0.0,0.0,0.0,0.0,0.0,0.0,0.0,0.0,0.0,0.0,0.0,0.0,0.0,0.0,0.0,0.0,0.0,0.0,0.0,0.0,0.0,0.0,0.0,0.0,0.0,0.0,0.0,0.0,0.0,0.0,0.0,0.0,0.0,0.0,0.0,0.0,0.0,0.0,0.0,0.0,0.0,0.0,0.0,0.0,0.0,0.0,0.0,0.0,0.0,0.0,0.0,0.0,0.0,0.0,0.0,0.0,0.0,0.0,0.0,0.0,0.0,0.0,0.0,0.0,0.0,0.0,0.0,0.0,0.0,0.0,0.0,0.0,0.0,0.0,0.0,0.0,0.0,0.0,0.0,0.0,0.0,0.0,0.0,0.0,0.0,0.0,0.0,0.0,0.0,0.0,0.0,0.0,0.0,0.0,0.0,0.0,0.0,0.0,0.0,0.0,0.0,0.0,0.0,0.0,0.0,0.0,0.0,0.0,0.0,0.0,0.0,0.0,0.0,0.0,0.0,0.0,0.0,0.0,0.0,0.0,0.0,0.0,0.0,0.0,0.0,0.0,0.0,0.0,0.0,0.0,0.0,0.0,0.0,0.0,0.0,0.0,0.0,0.0,0.0,0.0,0.0,0.0,0.0,0.0,0.0,0.0,0.0,0.0,0.0,0.0,0.0,0.0,0.0,0.0,0.0,0.0,0.0,0.0,0.0,0.0,0.0,0.0,0.0,0.0,0.0,0.0,0.0,0.0,0.0,0.0,0.0,0.0,0.0,0.0,0.0,0.0,0.0,0.0,0.0,0.0,0.0,0.0,0.0,0.0,0.0,0.0,0.0,0.0,0.0,0.0,0.0,0.0,0.0,0.0,0.0,0.0,0.0,0.0,0.0,0.0,0.0,0.0,0.0,0.0,0.0,0.0,0.0,0.0,0.0,0.0,0.0,0.0,0.0,0.0,0.0,0.0,0.0,0.0,0.0,0.0,0.0,0.0,0.0,0.0,0.0,0.0,0.0,0.0,0.0,0.0,0.0,0.0,0.0,0.0,0.0,0.0,0.0,0.0,0.0,0.0,0.0,0.0,0.0,0.0,0.0,0.0,0.0,0.0,0.0,0.0,0.0,0.0,0.0,0.0,0.0,0.0,0.0,0.0,0.0,0.0,0.0,0.0,0.0,0.0,0.0,0.0,0.0,0.0,0.0,0.0,0.0,0.0,0.0,0.0,0.0,0.0,0.0,0.0,0.0,0.0,0.0,0.0,0.0,0.0,0.0,0.0,0.0,0.0,0.0,0.0,0.0,0.0,0.0,0.0,0.0,0.0,0.0,0.0,0.0,0.0,0.0,0.0,0.0,0.0,0.0,0.0,0.0,0.0,0.0,0.0,0.0,0.0,0.0,0.0,0.0,0.0,0.0,0.0,0.0,0.0,0.0,0.0,0.0,0.0,0.0,0.0,0.0,0.0,0.0,0.0,0.0,0.0,0.0,0.0,0.0,0.0,0.0,0.0,0.0,0.0,0.0,0.0,0.0,0.0,0.0,0.0,0.0,0.0,0.0,0.0,0.0,0.0,0.0,0.0,0.0,-1.4813,0.0,0.0,0.0,0.0,0.0,0.0,0.0,0.0,0.0,0.0,0.0,0.0,0.0,0.0,0.0,0.0,0.0,0.0,0.0,0.0,0.0,0.0,0.0,0.0,0.0,0.0,0.0,0.0,0.0,0.0,0.0,0.0,0.0,0.0,0.0,0.0,0.0,0.0,0.0,0.0,0.0,0.0,0.0,0.0,0.0,0.0,0.0,0.0,0.0,0.0,0.0,0.0,0.0,0.0,0.0,0.0,0.0,0.0,0.0,0.0,0.0,0.0,0.0,0.0,0.0,0.0,0.0,0.0,0.0,0.0,0.0,0.0,0.0,0.0,0.0,0.0,0.0,0.0,0.0,0.0,0.0,0.0,0.0,0.0,0.0,0.0,0.0,0.0,0.0,0.0,0.0,0.0,0.0,0.0,0.0,0.0,0.0,0.0,0.0,0.0,0.0,0.0,0.0,0.0,0.0,0.0,0.0,0.0,0.0,0.0,0.0,0.0,0.0,0.0,0.0,0.0,-1.4764,0.0,0.0,0.0,0.0,0.0,0.0,0.0,0.0,0.0,0.0,0.0,0.0,0.0,0.0,0.0,0.0,0.0,0.0,0.0,0.0,0.0,0.0,0.0,0.0,0.0,0.0,0.0,0.0,0.0,0.0,0.0,0.0,0.0,0.0,0.0,0.0,0.0,0.0,0.0,0.0,0.0,0.0,0.0,0.0,0.0,0.0,0.0,0.0,0.0,0.0,0.0,0.0,0.0,0.0,0.0,0.0,0.0,0.0,0.0,0.0,0.0,0.0,0.0,0.0,0.0,0.0,0.0,0.0,0.0,0.0,0.0,0.0,0.0,0.0,0.0,0.0,0.0,0.0,0.0,0.0,0.0,0.0,0.0,0.0,0.0,0.0,0.0,0.0,0.0,0.0,0.0,0.0,0.0,0.0,0.0,0.0,0.0,0.0,0.0,0.0,0.0,0.0,0.0,0.0,0.0,0.0,0.0,0.0,-1.5827,-1.583,-1.5894,-1.5894,-1.5882,-1.5868,-1.5375,-1.528,-1.5414,-1.4991,0.0,0.0,0.0,0.0,0.0,0.0,0.0,0.0,0.0,0.0,0.0,0.0,0.0,0.0,0.0,0.0,0.0,0.0,0.0,0.0,0.0,0.0,0.0,0.0,0.0,0.0,0.0,0.0,0.0,0.0,0.0,0.0,0.0,0.0,0.0,0.0,0.0,0.0,-1.6805,-1.6774,-1.6776,-1.6769,-1.6549,0.0,0.0,0.0,0.0,0.0,0.0,0.0,0.0,0.0,0.0,0.0,0.0,0.0,0.0,0.0,0.0,0.0,0.0,0.0,0.0,0.0,0.0,0.0,0.0,0.0,0.0,0.0,0.0,0.0,0.0,0.0,0.0,0.0,0.0,0.0,0.0,0.0,0.0,0.0,0.0,0.0,0.0,0.0,-1.5177,-1.5643,0.0,0.0,0.0,0.0,0.0,0.0,0.0,0.0,0.0,0.0,0.0,0.0,0.0,-1.6921,-1.7179,-1.6725,-1.676,-1.7257,-1.6777,-1.6702,-1.7009,-1.7009,-1.6896,-1.6733,-1.6667,0.0,-1.5144,-1.4967,0.0,0.0,0.0,0.0,0.0,0.0,0.0,0.0,0.0,0.0,0.0,0.0,0.0,0.0,0.0,0.0,0.0,0.0,0.0,0.0,0.0,0.0,0.0,0.0,0.0,0.0,0.0,0.0,0.0,0.0,0.0,0.0,0.0,0.0,0.0,0.0,-1.7986,-1.7494,-1.6859,-1.6859,-1.6859,-1.684,-1.6647,-1.6545,-1.6504,-1.6335,0.0,0.0,0.0,0.0,0.0,0.0,0.0,0.0,0.0,0.0,0.0,0.0,0.0,0.0,0.0,0.0,0.0,0.0,0.0,0.0,0.0,0.0,0.0,0.0,0.0,0.0,0.0,0.0,0.0,0.0,0.0,0.0,0.0,0.0,0.0,0.0,0.0,0.0,0.0,-1.5938,-1.6054,-1.6666,-1.6818,-1.7151,0.0,0.0,0.0,0.0,0.0,0.0,0.0,0.0,0.0,-1.6945,-1.7228,-1.7287,-1.7107,-1.6989,-1.7069,-1.732,-1.7107,-1.7046,-1.7203,-1.7203,-1.709,-1.688,-1.688,-1.6616,-1.6139,-1.6174,-1.6114,-1.5978,0.0,0.0,0.0,0.0,-1.6098,-1.6002,0.0,0.0,0.0,0.0,0.0,0.0,0.0,0.0,0.0,0.0,0.0,0.0,0.0,0.0,0.0,-1.7345,0.0,0.0,0.0,0.0,0.0,0.0,0.0,0.0,0.0,0.0,0.0,0.0,-1.7948,-1.7637,-1.7166,-1.7003,-1.6908,-1.6908,-1.6751,-1.6623,-1.6517,-1.6374,-1.6249,0.0,0.0,0.0,0.0,0.0,0.0,0.0,0.0,0.0,0.0,0.0,0.0,0.0,0.0,0.0,0.0,0.0,0.0,0.0,0.0,0.0,0.0,0.0,0.0,0.0,0.0,0.0,0.0,0.0,0.0,0.0,0.0,0.0,0.0,0.0,0.0,0.0,0.0,-1.6597,-1.6777,-1.7653,-1.745,-1.7583,0.0,0.0,0.0,0.0,0.0,0.0,-1.7193,-1.7567,-1.7542,-1.6987,-1.7464,-1.7475,-1.6994,-1.7174,-1.7331,-1.7427,-1.7389,-1.7403,-1.7499,-1.7499,-1.7384,-1.7171,-1.7171,-1.7171,-1.7192,-1.7139,-1.7165,-1.7203,-1.7362,-1.7475,-1.755,-1.7569,-1.7465,-1.7233,0.0,0.0,0.0,0.0,0.0,0.0,0.0,0.0,0.0,0.0,0.0,0.0,0.0,0.0,-1.7641,-1.7509,-1.7617,-1.7857,0.0,0.0,0.0,0.0,0.0,0.0,0.0,0.0,0.0,-1.8839,-1.8271,-1.7973,-1.7935,-1.7235,-1.6908,-1.6908,-1.6908,-1.6784,-1.6569,-1.6253,-1.611,-1.6086,0.0,0.0,0.0,0.0,0.0,0.0,0.0,0.0,0.0,0.0,0.0,0.0,0.0,0.0,0.0,0.0,0.0,0.0,0.0,0.0,0.0,0.0,0.0,0.0,0.0,0.0,0.0,0.0,0.0,0.0,0.0,0.0,0.0,0.0,0.0,0.0,0.0,0.0,0.0,-1.8282,-1.7173,0.0,0.0,0.0,0.0,-1.7497,-1.8321,-1.857,-1.7962,-1.8036,-1.7784,-1.7214,-1.7391,-1.74,-1.7203,-1.7362,-1.7669,-1.8062,-1.7838,-1.7961,-1.8341,-1.8341,-1.8181,-1.794,-1.794,-1.794,-1.7889,-1.7209,-1.7023,-1.7203,-1.7203,-1.742,-1.7635,-1.7345,-1.7345,-1.742,0.0,0.0,0.0,0.0,0.0,0.0,0.0,0.0,0.0,0.0,0.0,0.0,0.0,-1.7689,-1.7804,-1.7754,-1.7885,-1.8268,-1.9022,0.0,0.0,0.0,0.0,0.0,0.0,0.0,-1.8786,-1.8314,-1.7372,-1.6985,-1.7079,-1.6682,-1.6517,-1.6517,-1.6412,-1.6342,-1.628,-1.651,-1.6543,-1.6423,-1.6247,-1.6381,0.0,0.0,0.0,0.0,0.0,0.0,0.0,0.0,0.0,0.0,0.0,0.0,0.0,0.0,0.0,0.0,0.0,0.0,0.0,0.0,0.0,0.0,0.0,0.0,0.0,0.0,0.0,0.0,0.0,0.0,0.0,0.0,0.0,0.0,0.0,0.0,0.0,-1.8214,-1.7527,0.0,-1.8541,-1.8169,-1.7841,-1.7823,-1.7807,-1.7653,-1.7325,-1.7684,-1.774,-1.7415,-1.7861,-1.7952,-1.7708,-1.7952,-1.814,-1.8272,-1.8241,-1.8271,-1.8402,-1.8402,-1.8233,-1.8,-1.8,-1.8,-1.7974,-1.7709,-1.7638,-1.7708,-1.7708,-1.7787,-1.7856,-1.7747,-1.764,-1.7462,0.0,0.0,0.0,0.0,0.0,0.0,0.0,0.0,0.0,0.0,0.0,-1.7561,-1.7689,-1.7867,-1.7964,-1.7964,-1.8051,-1.8522,-1.948,0.0,0.0,0.0,0.0,0.0,0.0,-1.8637,-1.8114,-1.7789,-1.6846,-1.6577,-1.6872,-1.6473,-1.6307,-1.6307,-1.6202,-1.6167,-1.6202,-1.656,-1.6553,-1.6342,-1.6296,-1.6447,-1.6637,0.0,0.0,0.0,0.0,0.0,0.0,0.0,0.0,0.0,0.0,0.0,0.0,0.0,0.0,0.0,0.0,0.0,0.0,0.0,0.0,0.0,0.0,0.0,0.0,0.0,0.0,0.0,0.0,0.0,0.0,0.0,0.0,0.0,0.0,0.0,-1.7322,-1.8582,-1.7836,-1.7706,-1.8862,-1.8276,-1.785,-1.7823,-1.7699,-1.7518,-1.7295,-1.7731,-1.7909,-1.7663,-1.8233,-1.8432,-1.8179,-1.8594,-1.8745,-1.8663,-1.8663,-1.8663,-1.8663,-1.8663,-1.8581,-1.8384,-1.8384,-1.8384,-1.8384,-1.8384,-1.8384,-1.8391,-1.8094,-1.8,-1.8,-1.8,-1.7877,-1.7655,0.0,0.0,0.0,0.0,0.0,0.0,0.0,0.0,0.0,0.0,-1.7722,-1.7739,-1.7904,-1.8016,-1.8084,-1.8084,-1.8084,-1.8545,-1.9537,-1.9617,0.0,0.0,0.0,0.0,-1.8596,-1.7924,-1.7533,-1.7404,-1.6837,-1.6837,-1.7335,-1.6603,-1.6281,-1.6289,-1.6289,-1.6298,-1.6307,-1.6307,-1.614,-1.5842,-1.6028,-1.5991,-1.5917,0.0,0.0,0.0,0.0,0.0,0.0,0.0,0.0,0.0,0.0,0.0,0.0,0.0,0.0,0.0,0.0,0.0,0.0,0.0,0.0,0.0,0.0,0.0,0.0,0.0,0.0,0.0,0.0,0.0,0.0,0.0,0.0,0.0,-1.8414,-1.8008,-1.8128,-1.938,-1.7989,-1.7267,-1.8193,-1.7838,-1.7531,-1.7531,-1.8065,-1.8282,-1.8017,-1.8259,-1.8299,-1.8034,-1.859,-1.8821,-1.8605,-1.9185,-1.9376,-1.9213,-1.9213,-1.9213,-1.9213,-1.9213,-1.9213,-1.9213,-1.9213,-1.9213,-1.9213,-1.9213,-1.9213,-1.9102,-1.8324,-1.8025,-1.8017,-1.8017,-1.8008,-1.8,0.0,0.0,0.0,0.0,0.0,0.0,0.0,0.0,0.0,0.0,-1.7534,-1.7629,-1.7993,-1.7894,-1.7904,-1.8084,-1.8084,-1.8561,-1.9613,0.0,0.0,0.0,0.0,0.0,-1.8395,-1.7644,-1.7281,-1.7404,-1.6473,-1.6167,-1.6464,-1.6105,-1.6076,-1.6291,-1.6291,-1.6446,-1.6759,-1.6759,-1.6684,-1.6579,-1.6228,-1.6349,-1.6699,0.0,0.0,0.0,0.0,0.0,0.0,0.0,0.0,0.0,0.0,0.0,0.0,0.0,0.0,0.0,0.0,0.0,0.0,0.0,0.0,0.0,0.0,0.0,0.0,0.0,0.0,0.0,0.0,0.0,0.0,0.0,0.0,-1.8069,-1.7941,-1.747,-1.7373,-1.802,-1.7651,-1.754,-1.8044,-1.7937,-1.7837,-1.7837,-1.802,-1.8192,-1.8425,-1.8516,-1.8645,-1.8853,-1.9049,-1.9101,-1.9059,-1.9204,-1.9256,-1.9213,-1.9213,-1.9213,-1.9213,-1.9213,-1.9213,-1.9213,-1.9213,-1.9213,-1.9213,-1.9213,-1.9213,-1.9196,-1.8939,-1.8682,-1.8434,-1.8434,-1.8263,-1.8,0.0,0.0,0.0,0.0,0.0,0.0,0.0,0.0,0.0,0.0,-1.7647,-1.7689,-1.8069,-1.7966,-1.7931,-1.8084,-1.8329,-1.8839,-1.9692,0.0,0.0,0.0,0.0,-1.8552,-1.8187,-1.7203,-1.6707,-1.6742,-1.6202,-1.5938,-1.5964,-1.5987,-1.6139,-1.6345,-1.6507,-1.6667,-1.688,-1.688,-1.688,-1.6876,-1.6549,-1.6679,-1.6989,-1.6855,-1.7144,-1.7645,-1.7591,-1.779,-1.8112,-1.8494,0.0,0.0,0.0,0.0,0.0,0.0,0.0,0.0,0.0,0.0,0.0,0.0,0.0,0.0,0.0,0.0,0.0,0.0,0.0,0.0,0.0,0.0,0.0,0.0,-1.8386,-1.8076,-1.7852,-1.7581,-1.7466,-1.768,-1.7706,-1.7792,-1.7974,-1.8,-1.8059,-1.8254,-1.8263,-1.8434,-1.8811,-1.8828,-1.8981,-1.9213,-1.9333,-1.941,-1.941,-1.9564,-1.9771,-1.9889,-1.9889,-1.9966,-2.0112,-2.0112,-2.0112,-2.0112,-2.0112,-2.0026,-1.9889,-1.9889,-1.9795,0.0,0.0,0.0,0.0,0.0,-1.8699,-1.8511,0.0,0.0,0.0,0.0,0.0,0.0,0.0,0.0,0.0,0.0,0.0,-1.7834,-1.7997,-1.8041,-1.803,-1.8002,-1.8614,-1.9223,0.0,0.0,0.0,-2.0052,-1.8574,-1.7803,-1.7925,-1.6786,-1.6061,-1.5903,-1.6,-1.5964,-1.5814,-1.6129,-1.6362,-1.6467,-1.6816,-1.7004,-1.7009,-1.7009,-1.7009,-1.7009,-1.7009,-1.6957,-1.6989,-1.7778,-1.7881,-1.7692,-1.8438,-1.8593,-1.8536,-1.8723,0.0,0.0,0.0,0.0,0.0,0.0,0.0,0.0,0.0,0.0,0.0,0.0,0.0,0.0,0.0,0.0,0.0,0.0,0.0,0.0,0.0,0.0,0.0,0.0,-1.8246,-1.8,-1.8,-1.8,-1.8,-1.8,-1.8034,-1.8059,-1.8059,-1.8102,-1.8297,-1.8631,-1.8656,-1.8828,-1.9256,0.0,0.0,0.0,0.0,-1.9828,-1.9828,-2.0232,-2.0591,-2.0942,-2.0942,-2.1105,-2.1413,-2.1413,-2.1413,-2.1413,-2.1413,-2.1234,-2.0942,-2.0942,-2.0737,-2.0343,-1.9547,-1.9239,-1.923,-1.923,-1.9213,-1.9213,0.0,0.0,0.0,0.0,0.0,0.0,0.0,0.0,0.0,-1.7518,-1.7484,-1.7485,-1.7462,-1.7656,-1.7673,-1.7385,-1.8371,-1.9262,0.0,0.0,-1.9153,-1.9058,-1.8058,-1.7483,-1.751,-1.6846,-1.6473,-1.6438,-1.6035,-1.5832,-1.5814,-1.6129,-1.647,-1.6824,-1.7192,-1.7535,-1.7786,-1.7786,-1.7786,-1.7786,-1.7786,-1.7419,-1.691,-1.7087,-1.7098,-1.7081,-1.7217,-1.7264,-1.7312,-1.7911,-1.8069,-1.8141,-1.871,0.0,0.0,0.0,0.0,0.0,0.0,0.0,0.0,0.0,0.0,0.0,0.0,0.0,0.0,0.0,0.0,0.0,0.0,0.0,0.0,-1.9033,-1.8415,-1.8,-1.8,-1.8,-1.8,-1.8,-1.8305,-1.8477,-1.8477,-1.8768,-1.8982,-1.9101,-1.9059,-1.923,-1.9563,-1.9589,-1.9769,-2.0069,-2.0454,-2.066,-2.066,-2.1011,-2.1234,-2.1311,0.0,0.0,-2.1413,-2.1413,-2.1413,-2.1413,-2.1413,-2.1371,-2.1311,-2.1311,-2.1268,-2.1088,-2.0043,-1.9589,-1.9554,-1.929,-1.9213,-1.9213,0.0,0.0,0.0,0.0,0.0,0.0,0.0,0.0,0.0,0.0,-1.7565,-1.7603,-1.7562,-1.7943,-1.8148,-1.807,-1.894,0.0,0.0,-1.9584,-1.9157,-1.8953,-1.7953,-1.7407,-1.7407,-1.6881,-1.6473,-1.6202,-1.6202,-1.607,-1.5814,-1.6334,-1.6693,-1.6906,-1.7501,-1.786,-1.8,-1.8,-1.8,-1.8,-1.8,-1.7777,-1.7436,-1.7436,-1.7436,-1.7436,-1.7436,-1.7436,-1.748,-1.7831,-1.795,-1.8019,-1.835,-1.8565,-1.8798,0.0,0.0,0.0,0.0,0.0,0.0,0.0,0.0,0.0,0.0,0.0,0.0,0.0,0.0,-1.9833,0.0,0.0,-1.9146,-1.8614,-1.8254,-1.8059,-1.8288,-1.8314,-1.8314,-1.8314,-1.8477,-1.8665,-1.8862,-1.9101,-1.9256,-1.9444,-1.9461,-1.971,-2.0283,-2.0309,-2.048,-2.084,-2.1045,-2.1148,-2.1148,-2.1319,-2.1508,-2.1704,-2.1704,-2.1799,-2.1978,-2.1978,-2.1978,-2.1978,-2.1978,-2.1876,-2.1687,-2.149,-2.1413,-2.1353,-2.075,-2.0472,-2.0266,-1.9881,-1.9735,-1.9735,0.0,0.0,0.0,0.0,0.0,0.0,0.0,0.0,0.0,0.0,-1.7673,-1.7743,-1.7663,-1.8277,-1.8834,0.0,0.0,0.0,0.0,-1.9662,-1.9244,-1.9121,-1.8124,-1.7579,-1.7579,-1.7028,-1.6473,-1.5973,-1.6272,-1.6202,-1.5814,-1.6453,-1.685,-1.6915,-1.759,-1.7923,-1.8,-1.8,-1.8,-1.8,-1.8,-1.8,-1.8,-1.8,-1.8,-1.8,-1.8,-1.8,-1.8,-1.8,-1.8,-1.8,-1.8,-1.8183,-1.8489,-1.8951,-1.9008,0.0,0.0,0.0,0.0,0.0,0.0,0.0,0.0,0.0,-2.0181,-1.9484,-1.9675,-1.9769,-1.9165,-1.904,-1.8823,-1.8092,-1.8059,-1.8245,-1.8545,-1.8648,-1.8725,-1.8802,-1.8811,-1.8939,-1.9256,-1.935,-1.9547,-1.9896,-1.9922,-2.0257,-2.0942,-2.0985,-2.1114,-2.1396,-2.1482,-2.1525,-2.1525,-2.1593,-2.179,-2.2107,-2.2107,-2.2311,-2.2594,-2.2594,-2.2594,-2.2594,-2.2594,-2.2431,-2.2081,-2.1756,-2.1627,-2.1619,-2.155,-2.1345,-2.1045,-2.0651,-2.0463,-2.0403,0.0,0.0,0.0,0.0,0.0,0.0,0.0,0.0,0.0,0.0,0.0,0.0,0.0,0.0,0.0,0.0,0.0,0.0,-2.0208,-1.8739,-1.823,-1.9054,-1.8539,-1.8202,-1.8202,-1.7623,-1.7063,-1.6508,-1.6105,-1.5867,-1.5814,-1.6171,-1.6547,-1.6898,-1.7346,-1.7723,-1.8,-1.8,-1.8,-1.8,-1.8,-1.8,-1.8,-1.8,-1.8,-1.8,-1.8,-1.8,-1.8,-1.8,-1.8,-1.8,-1.8,-1.802,-1.8183,-1.8895,0.0,-1.9169,-2.044,-2.0347,-1.9865,-1.9818,-1.9335,-1.8658,0.0,0.0,-1.8064,-1.7742,-1.77,-1.7823,-1.8115,-1.8164,-1.8092,-1.8031,-1.8314,-1.8545,-1.8579,-1.8888,-1.923,-1.9529,-1.9571,-1.9589,-1.9631,-1.9975,-2.0335,-2.072,-2.0754,-2.0925,-2.1328,-2.1353,-2.1362,-2.1413,-2.1747,-2.1936,-2.1936,-2.2311,-2.2491,-2.2534,-2.2534,-2.256,-2.2594,-2.2594,-2.2594,-2.2594,-2.2594,-2.2568,-2.2534,-2.2482,-2.2465,-2.2439,-2.2055,-2.191,-2.1824,-2.143,-2.1088,-2.0814,0.0,0.0,0.0,0.0,0.0,0.0,0.0,0.0,0.0,0.0,0.0,0.0,0.0,0.0,0.0,0.0,0.0,0.0,-2.0133,-1.8843,-1.823,-1.862,-1.809,-1.7794,-1.7794,-1.7235,-1.6811,-1.6603,-1.6368,-1.6105,-1.5814,-1.6129,-1.6422,-1.6647,-1.7239,-1.76,-1.7723,-1.7906,-1.8,-1.8,-1.8,-1.8,-1.8,-1.8,-1.8,-1.802,-1.8211,-1.833,0.0,0.0,-1.833,-1.8373,-1.8086,-1.811,-1.8395,-1.8944,-1.9262,0.0,-1.9873,-1.9921,0.0,0.0,-1.9085,-1.8908,-1.83,-1.8413,-1.8484,-1.7871,-1.7757,-1.7797,-1.7959,-1.8,-1.8068,0.0,-1.8485,-1.8742,-1.9196,-1.9358,-1.9641,-2.0018,-2.0061,-2.0061,-2.0061,-2.0403,-2.0703,-2.0912,-2.1071,-2.1353,-2.173,-2.1953,-2.2175,-2.2389,-2.2783,-2.298,-2.2972,-2.3134,-2.3263,-2.3246,-2.3246,-2.3246,-2.3246,-2.3246,-2.3126,-2.2877,-2.2877,-2.28,-2.2594,-2.2594,-2.2594,-2.2577,-2.2422,-2.2371,-2.2294,-2.1627,-2.1311,-2.1191,0.0,0.0,0.0,0.0,0.0,0.0,0.0,0.0,0.0,0.0,0.0,0.0,0.0,0.0,0.0,0.0,0.0,0.0,0.0,-1.894,-1.8456,-1.8328,-1.7896,-1.7588,-1.7407,-1.6881,-1.6542,-1.6368,-1.6368,-1.6167,-1.5805,-1.6071,-1.6242,-1.6407,-1.6956,-1.7317,-1.7531,-1.7766,-1.7906,-1.8,-1.8,-1.8,-1.8,-1.8,-1.8014,-1.8101,-1.8415,-1.8589,0.0,0.0,-1.8747,-1.8737,-1.8422,-1.8425,-1.8717,-1.9258,-1.9955,-2.0456,-1.991,0.0,0.0,-1.8929,-1.8802,-1.8827,-1.844,-1.8634,-1.8772,-1.8132,-1.8,-1.8,-1.8,-1.8,-1.8119,-1.8528,-1.8682,-1.8982,-1.9606,-1.9785,-1.9992,-2.0266,-2.0386,-2.0454,-2.0454,-2.0711,-2.0968,-2.1174,-2.1525,-2.1893,-2.2287,-2.2705,-2.3032,-2.3254,-2.3545,-2.3682,-2.3718,-2.3691,-2.3639,-2.3511,-2.3511,-2.3512,-2.3409,-2.3409,-2.3263,-2.2954,-2.2954,-2.28,-2.2594,-2.2594,-2.2594,-2.2594,-2.2594,-2.2594,-2.2525,-2.1927,-2.1662,-2.1576,0.0,0.0,0.0,0.0,0.0,0.0,0.0,0.0,0.0,0.0,0.0,0.0,0.0,0.0,0.0,0.0,0.0,0.0,0.0,-1.869,-1.8659,-1.8414,-1.8331,-1.7998,-1.7407,-1.6881,-1.6342,-1.5832,-1.5832,-1.5841,-1.5805,-1.5814,-1.6002,-1.63,-1.6407,-1.6827,-1.7505,-1.7523,-1.7697,-1.8,-1.8,-1.8,-1.8,-1.8,-1.8099,-1.8304,-1.8461,0.0,0.0,0.0,-1.9062,-1.9073,-1.9071,-1.8971,0.0,-1.9921,-2.1272,0.0,0.0,0.0,-2.0429,-1.9042,-1.8358,-1.7934,-1.7538,-1.7732,-1.8023,-1.7991,-1.8,-1.8,-1.8,-1.8,-1.8119,-1.8528,-1.8947,-1.929,-1.964,-2.0052,-2.0275,-2.0292,-2.0626,-2.0857,0.0,-2.0874,-2.1182,-2.191,-2.2354,-2.2731,-2.3066,-2.3434,-2.3684,-2.3701,-2.3709,-2.3718,-2.3718,-2.3691,-2.3511,-2.3134,-2.3134,-2.2937,-2.2628,-2.2628,-2.2628,-2.262,-2.262,-2.2603,-2.2594,-2.2594,-2.2594,-2.2594,-2.2594,-2.2594,-2.2594,-2.2568,-2.2337,-2.1978,0.0,0.0,0.0,0.0,0.0,0.0,0.0,0.0,0.0,0.0,0.0,0.0,0.0,0.0,0.0,0.0,0.0,0.0,0.0,-1.7734,-1.7315,-1.7478,-1.7019,-1.6785,-1.6881,-1.6342,-1.6175,-1.6342,-1.5964,-1.5805,-1.5805,-1.5805,-1.5865,-1.5994,-1.6278,-1.6527,-1.6785,-1.6995,-1.7321,-1.7655,-1.7655,-1.7809,-1.802,-1.8148,-1.8255,-1.8338,0.0,0.0,0.0,-1.9269,-1.9574,-1.9909,-1.9767,-2.0041,0.0,-2.1649,-2.1848,-2.1618,-2.1041,0.0,-1.9492,-1.8162,-1.792,-1.7878,-1.7473,-1.7716,-1.8,-1.8,-1.8749,-1.9356,-1.9274,-1.9325,-1.9577,-2.0122,-1.9611,-1.9393,-2.0018,-2.0215,-2.0292,-2.0292,-2.0643,0.0,0.0,0.0,0.0,-2.2371,-2.2706,-2.3091,-2.346,-2.3836,-2.4042,-2.4042,-2.429,-2.4307,-2.4042,-2.405,-2.3871,-2.3511,-2.3485,-2.3469,-2.334,-2.3306,-2.3169,-2.2929,-2.2929,-2.2834,-2.2594,-2.2594,-2.2594,-2.2594,-2.2594,-2.2594,-2.2594,-2.2594,-2.2517,-2.2414,0.0,0.0,0.0,0.0,0.0,0.0,0.0,0.0,0.0,0.0,0.0,0.0,0.0,0.0,0.0,0.0,0.0,0.0,0.0,0.0,-1.7197,-1.7183,-1.6727,-1.6602,-1.6841,-1.6276,-1.6253,-1.6821,-1.6165,-1.5987,-1.6155,-1.5904,-1.5805,-1.5814,-1.6089,-1.6261,-1.6398,-1.661,-1.7067,-1.7636,-1.757,-1.7821,-1.8263,-1.8352,-1.8414,0.0,0.0,0.0,0.0,-1.9573,-2.0046,-2.0564,-2.0481,-2.1082,-2.1862,-2.1974,-2.1824,-2.1403,-2.0361,-1.9755,-1.905,-1.7518,-1.7473,-1.7635,-1.7066,-1.7392,-1.7797,-1.7797,-1.9,-2.0071,-1.9924,-1.9886,-2.029,-2.1498,-2.0624,-2.0075,-2.0909,-2.1105,-2.0934,-2.0382,-2.0754,0.0,0.0,0.0,0.0,-2.2783,-2.3228,-2.3622,-2.3853,-2.4102,-2.4176,-2.4176,-2.4342,-2.4282,-2.4033,-2.4025,-2.3845,-2.3494,-2.334,-2.3211,-2.3002,-2.2967,-2.2736,-2.2295,-2.2295,-2.2204,-2.1987,-2.1987,-2.1987,-2.1987,-2.1987,-2.1987,-2.2038,-2.219,-2.2291,-2.2291,0.0,0.0,0.0,0.0,0.0,0.0,0.0,0.0,0.0,0.0,0.0,0.0,0.0,0.0,0.0,0.0,0.0,0.0,0.0,0.0,0.0,-1.751,-1.7313,-1.7225,-1.7247,-1.6673,-1.661,-1.7187,-1.6447,-1.6334,-1.683,-1.6188,-1.5904,-1.5904,-1.5904,-1.6094,-1.6378,-1.6432,-1.7027,-1.7925,-1.7767,-1.8123,-1.8685,-1.8565,0.0,0.0,0.0,0.0,0.0,0.0,0.0,0.0,0.0,0.0,-2.2397,-2.0965,-2.13,-2.162,-1.9319,-1.9061,-1.903,-1.7195,-1.7066,-1.7147,-1.6335,-1.682,-1.7432,-1.7514,-1.896,-2.0188,0.0,0.0,-2.036,-2.2603,-2.1728,-2.1109,-2.2011,-2.2372,-2.2003,0.0,0.0,0.0,0.0,0.0,0.0,-2.3143,0.0,-2.415,-2.415,-2.415,-2.415,-2.415,-2.3853,-2.3709,-2.3684,-2.3667,-2.3434,-2.3083,-2.2766,-2.2291,-2.1725,-2.1725,-2.1428,-2.0925,-2.0925,-2.0925,-2.0925,-2.0925,-2.0925,-2.0925,-2.0925,-2.0925,-2.0968,-2.1522,-2.1725,-2.1776,0.0,0.0,0.0,0.0,0.0,0.0,0.0,0.0,0.0,0.0,0.0,0.0,0.0,0.0,0.0,0.0,0.0,0.0,0.0,0.0,0.0,0.0,0.0,0.0,0.0,0.0,0.0,0.0,0.0,-1.74,-1.7543,-1.7361,-1.7284,-1.7284,-1.7284,-1.7344,-1.7412,-1.7444,-1.7773,-1.8271,0.0,-1.8337,-1.869,0.0,0.0,0.0,0.0,0.0,0.0,0.0,0.0,0.0,0.0,0.0,-2.0873,-2.0202,-1.989,-1.9637,-1.9024,-1.8165,-1.7396,-1.7237,-1.7066,-1.6902,-1.7025,-1.7229,-1.7781,-1.9149,-2.0526,-2.1966,0.0,0.0,0.0,-2.2552,-2.0694,0.0,-1.9831,-2.049,0.0,0.0,0.0,-2.1567,-2.1961,-2.2672,0.0,0.0,-2.3699,-2.3811,-2.3811,-2.3811,-2.3811,-2.3811,-2.3717,-2.3537,-2.3263,-2.3023,-2.2834,-2.274,-2.2645,-2.2291,-2.1725,-2.1725,-2.1428,-2.0925,-2.0925,-2.0925,-2.0925,-2.0925,-2.0925,-2.0925,-2.0925,-2.0925,-2.0968,-2.1522,-2.1725,-2.1776,0.0,0.0,0.0,0.0,0.0,0.0,0.0,0.0,0.0,0.0,0.0,0.0,0.0,0.0,0.0,0.0,0.0,0.0,0.0,0.0,0.0,0.0,0.0,0.0,0.0,0.0,0.0,0.0,0.0,0.0,0.0,-1.7947,-1.7799,-1.7799,-1.7799,-1.7799,-1.7799,-1.7748,0.0,0.0,0.0,0.0,0.0,0.0,0.0,0.0,0.0,0.0,0.0,0.0,0.0,-1.9798,-1.956,-1.9793,-2.0012,-1.9304,0.0,-1.8548,-1.8312,-1.7626,-1.7066,-1.731,-1.7066,-1.6927,-1.7747,-1.7948,-1.8404,-2.0159,-2.1728,0.0,0.0,0.0,0.0,0.0,0.0,0.0,-1.9896,-2.058,-2.0827,0.0,-2.0772,0.0,-2.1961,-2.2672,-2.3203,0.0,-2.3624,-2.3718,-2.3718,-2.3511,-2.3321,-2.3111,-2.2889,-2.26,-2.215,-2.2189,-2.2089,-2.1835,-2.2089,-2.1776,-2.1003,-2.1003,-2.0704,-2.0205,0.0,-2.0205,-2.0205,-2.0205,-2.0205,-2.0205,-2.0205,-2.0205,-2.0248,-2.0806,-2.1003,-2.1054,0.0,0.0,0.0,0.0,0.0,0.0,0.0,0.0,0.0,0.0,0.0,0.0,0.0,0.0,0.0,0.0,0.0,0.0,0.0,0.0,0.0,0.0,0.0,0.0,0.0,0.0,0.0,0.0,0.0,0.0,0.0,0.0,0.0,0.0,0.0,0.0,0.0,0.0,0.0,0.0,0.0,0.0,0.0,0.0,0.0,0.0,0.0,0.0,0.0,0.0,-1.8081,-1.8728,-1.8892,-1.91,-1.9141,-1.8199,-1.797,-1.7912,-1.7438,-1.727,-1.7229,-1.7229,-1.6902,-1.696,-1.8297,-1.8638,-1.9173,-2.1014,0.0,0.0,-2.4619,0.0,-2.1732,-2.3791,0.0,-2.0358,-2.0639,-2.1142,-2.1212,-2.032,-2.0498,-2.1003,-2.1814,-2.2579,-2.3006,-2.3005,-2.3365,-2.3564,-2.3564,-2.3159,-2.2679,-2.2116,-2.1796,-2.1369,-2.0925,-2.1377,-2.1377,-2.0925,-2.1369,-2.1062,-2.0078,-2.0078,-1.9835,-1.9279,-1.9279,-1.9279,-1.9279,-1.9279,-1.9279,-1.9279,-1.9279,-1.9279,-1.9376,-1.9879,-2.0078,-2.0189,0.0,0.0,0.0,0.0,0.0,0.0,0.0,0.0,0.0,0.0,-1.7502,-1.7446,0.0,0.0,0.0,0.0,0.0,0.0,0.0,0.0,0.0,0.0,0.0,0.0,0.0,0.0,0.0,0.0,0.0,0.0,0.0,0.0,0.0,0.0,0.0,0.0,0.0,0.0,0.0,0.0,0.0,0.0,0.0,0.0,0.0,0.0,0.0,0.0,0.0,0.0,-1.7582,-1.7405,-1.6405,-1.6386,-1.6726,-1.6514,-1.6692,-1.6952,-1.6837,-1.6574,-1.6335,-1.6335,-1.6252,-1.6632,-1.8209,-1.8876,0.0,0.0,0.0,-2.4237,-2.6537,-2.4827,0.0,-2.2703,0.0,0.0,0.0,0.0,-1.9558,0.0,0.0,0.0,0.0,0.0,0.0,0.0,0.0,-2.2791,-2.2791,-2.2265,-2.1722,-2.1166,-2.1102,-2.0968,-2.0925,-2.0968,-2.0968,-2.0925,-2.0968,-2.0704,-2.0078,-2.0078,-1.9835,-1.9279,-1.9279,0.0,-1.9279,-1.9279,-1.9279,-1.9279,-1.9279,-1.9279,-1.9376,-1.9879,-2.0078,-2.0189,0.0,0.0,0.0,0.0,0.0,0.0,0.0,-1.615,-1.6678,-1.6897,-1.7193,-1.7404,-1.7404,-1.7274,0.0,0.0,0.0,0.0,0.0,0.0,0.0,0.0,0.0,0.0,0.0,0.0,0.0,0.0,0.0,0.0,0.0,0.0,0.0,0.0,0.0,0.0,0.0,0.0,0.0,0.0,0.0,0.0,0.0,0.0,0.0,0.0,0.0,0.0,0.0,0.0,-1.7445,-1.6627,-1.5692,-1.5548,-1.5763,-1.6046,-1.6046,-1.6162,-1.6861,-1.6738,-1.6451,-1.6697,-1.6574,-1.7033,-1.933,0.0,0.0,0.0,0.0,-2.487,-2.6358,0.0,0.0,0.0,0.0,0.0,0.0,0.0,0.0,0.0,0.0,0.0,0.0,0.0,0.0,0.0,0.0,-2.1733,-2.1733,-2.1165,-2.0858,-2.0925,-2.0359,-2.005,-2.005,-2.0351,-2.0351,-2.005,-2.0351,-2.0189,-1.968,-1.968,-1.9532,-1.9279,-1.9279,0.0,-1.9279,-1.9279,-1.9279,-1.9279,-1.9279,-1.9279,-1.9324,-1.9583,-1.968,-1.9732,0.0,0.0,0.0,0.0,0.0,0.0,0.0,-1.5363,-1.6087,-1.616,-1.6692,-1.7022,-1.7015,-1.7089,-1.7115,0.0,0.0,0.0,0.0,0.0,0.0,0.0,0.0,0.0,0.0,0.0,0.0,0.0,0.0,0.0,0.0,0.0,0.0,0.0,0.0,0.0,0.0,0.0,0.0,0.0,0.0,0.0,0.0,0.0,0.0,0.0,0.0,0.0,0.0,0.0,-1.7596,-1.6614,-1.5968,-1.5807,-1.5853,-1.6191,-1.6141,-1.6129,-1.6919,-1.6902,-1.673,-1.6943,-1.6902,-1.7553,-2.0256,-2.0746,0.0,0.0,-2.5206,-2.5314,-2.5705,0.0,0.0,0.0,0.0,0.0,0.0,0.0,0.0,0.0,0.0,0.0,0.0,0.0,0.0,0.0,0.0,0.0,-2.0712,-2.0344,-2.0241,-2.0557,-1.9739,-1.9279,-1.9279,-1.9732,-1.9732,-1.9331,-1.9732,-1.9732,-1.9279,-1.9279,-1.9279,-1.9279,-1.9279,0.0,-1.9279,-1.9279,-1.9279,-1.9279,-1.9279,-1.9279,-1.9279,-1.9279,-1.9279,-1.9279,0.0,0.0,0.0,0.0,0.0,0.0,0.0,-1.4518,-1.4818,-1.5406,-1.5712,-1.5813,-1.5694,-1.6484,-1.7002,0.0,0.0,0.0,0.0,0.0,0.0,0.0,0.0,0.0,0.0,0.0,0.0,0.0,0.0,0.0,0.0,0.0,0.0,0.0,0.0,0.0,0.0,0.0,0.0,0.0,0.0,0.0,0.0,0.0,0.0,0.0,0.0,0.0,0.0,0.0,0.0,-1.7999,-1.7267,-1.7094,-1.7088,-1.6945,0.0,0.0,-1.6505,-1.6451,-1.6525,-1.5756,-1.6451,-1.7885,-1.9984,0.0,0.0,0.0,-2.4957,-2.5015,-2.5533,-2.5843,0.0,0.0,0.0,0.0,0.0,0.0,0.0,0.0,0.0,0.0,0.0,0.0,0.0,0.0,0.0,0.0,-2.0138,-2.013,-1.9879,-1.948,-1.9331,-1.9279,-1.9279,-1.9331,-1.9331,-1.9279,-1.9331,-1.9331,-1.9279,-1.9279,-1.9279,-1.9279,-1.9279,0.0,0.0,-1.9279,-1.9279,-1.9279,-1.9279,-1.9279,-1.9279,-1.9279,-1.9279,-1.9279,0.0,0.0,0.0,0.0,0.0,0.0,-1.3569,-1.4103,-1.4529,-1.4782,-1.5259,-1.5543,-1.5462,-1.5731,-1.5923,0.0,0.0,0.0,0.0,0.0,0.0,0.0,0.0,0.0,0.0,0.0,0.0,0.0,0.0,0.0,0.0,0.0,0.0,0.0,0.0,0.0,0.0,0.0,0.0,0.0,0.0,0.0,0.0,0.0,0.0,0.0,0.0,0.0,0.0,0.0,0.0,0.0,-1.8256,-1.8488,0.0,0.0,-1.7093,-1.7393,-1.6374,-1.6211,-1.6252,-1.5922,-1.6878,-1.8332,-1.9868,0.0,0.0,-2.4491,-2.4861,-2.4824,-2.4915,-2.5433,-2.5611,0.0,0.0,0.0,0.0,0.0,0.0,0.0,0.0,0.0,0.0,0.0,0.0,0.0,0.0,0.0,-1.9628,-1.9628,-1.968,-1.9783,-1.948,-1.9279,-1.9279,-1.9279,-1.9279,-1.9279,-1.9279,-1.9279,-1.9279,-1.9279,-1.9279,-1.9279,-1.9279,0.0,0.0,-1.9279,-1.9279,-1.9279,-1.9279,-1.9279,-1.9279,-1.9279,-1.9279,-1.9279,0.0,0.0,0.0,0.0,0.0,-1.3107,-1.3141,-1.3687,-1.4117,-1.4108,-1.4567,-1.4886,-1.4831,-1.4758,-1.4734,-1.4734,0.0,0.0,0.0,0.0,0.0,0.0,0.0,0.0,0.0,0.0,0.0,-1.5935,0.0,0.0,0.0,0.0,0.0,0.0,0.0,0.0,0.0,0.0,0.0,0.0,0.0,0.0,0.0,0.0,0.0,0.0,0.0,0.0,0.0,0.0,0.0,0.0,0.0,0.0,0.0,0.0,-1.743,-1.7599,-1.6637,-1.6242,-1.6087,-1.5922,-1.7196,-1.8762,0.0,0.0,0.0,-2.4406,-2.4646,-2.4574,-2.4454,-2.4908,-2.5282,0.0,0.0,0.0,0.0,0.0,0.0,0.0,0.0,0.0,0.0,0.0,0.0,0.0,0.0,0.0,-1.9279,-1.9279,-1.948,-1.9828,-1.948,-1.9279,-1.9279,-1.9279,-1.9279,-1.9279,-1.9279,-1.9279,-1.9279,-1.9279,-1.9279,-1.9279,-1.9279,0.0,0.0,-1.9279,-1.9279,-1.9279,-1.9279,-1.9279,-1.9279,-1.9279,-1.9279,-1.9279,0.0,0.0,0.0,0.0,0.0,0.0,-1.3181,-1.3198,-1.3262,-1.3387,-1.3472,-1.3522,-1.3522,-1.359,-1.356,-1.3421,0.0,0.0,0.0,0.0,0.0,0.0,0.0,0.0,0.0,0.0,-1.5792,-1.5792,-1.5738,-1.5693,0.0,0.0,0.0,0.0,0.0,0.0,0.0,0.0,0.0,0.0,0.0,0.0,0.0,0.0,0.0,0.0,0.0,0.0,0.0,0.0,0.0,0.0,0.0,0.0,0.0,0.0,-1.8839,-1.8525,-1.7406,-1.6621,-1.6004,-1.5514,-1.7147,-1.9119,0.0,0.0,0.0,-2.4261,-2.4345,-2.42,-2.42,-2.4491,-2.4747,-2.4875,0.0,0.0,0.0,0.0,0.0,0.0,0.0,0.0,0.0,0.0,0.0,0.0,0.0,0.0,-1.9279,-1.9279,-1.9279,-1.9331,-1.9279,-1.9279,-1.9279,-1.9279,-1.9279,-1.9279,-1.9279,-1.9279,-1.9279,-1.9279,-1.9279,-1.9279,0.0,0.0,0.0,-1.9279,-1.9279,-1.9279,-1.9279,-1.9279,-1.9279,-1.9279,-1.9279,-1.9279,0.0,0.0,0.0,0.0,0.0,0.0,0.0,-1.3042,-1.3163,-1.325,-1.3284,-1.3301,-1.3301,-1.3306,-1.3301,-1.3198,0.0,0.0,0.0,0.0,0.0,0.0,0.0,0.0,0.0,0.0,-1.577,-1.5738,-1.5859,-1.5836,-1.5693,-1.5836,-1.5869,0.0,0.0,0.0,0.0,0.0,0.0,0.0,0.0,0.0,0.0,0.0,0.0,0.0,0.0,0.0,0.0,0.0,0.0,0.0,0.0,0.0,0.0,0.0,0.0,0.0,-1.8368,-1.7852,-1.7579,-1.7426,-1.8948,-2.0547,-2.0788,0.0,-2.3666,-2.4189,-2.4116,-2.397,-2.397,-2.4095,-2.4198,-2.4382,-2.5013,0.0,0.0,0.0,0.0,0.0,0.0,0.0,0.0,0.0,0.0,0.0,0.0,0.0,-1.9279,-1.9279,-1.9279,-1.9279,-1.9279,-1.9279,-1.9279,-1.9279,-1.9279,-1.9279,-1.9279,-1.9279,-1.9279,-1.9279,-1.9279,0.0,0.0,0.0,0.0,-1.9279,-1.9279,-1.9279,-1.9279,-1.9279,-1.9279,-1.9279,-1.9279,-1.9279,0.0,0.0,0.0,0.0,0.0,0.0,0.0,-1.299,-1.3094,-1.3094,-1.3129,-1.3129,-1.306,-1.3064,-1.303,-1.2903,0.0,0.0,0.0,0.0,0.0,0.0,0.0,0.0,0.0,-1.5728,-1.576,-1.5738,-1.578,-1.5736,-1.5637,-1.5758,-1.5758,-1.5681,-1.5637,0.0,0.0,0.0,0.0,0.0,0.0,0.0,-1.4983,0.0,0.0,0.0,0.0,0.0,0.0,0.0,0.0,0.0,0.0,0.0,0.0,0.0,-2.0291,0.0,0.0,-1.8689,-1.8294,-1.8294,-1.9766,0.0,0.0,0.0,-2.3934,-2.4043,-2.3934,-2.3824,-2.3897,-2.3824,-2.3861,-2.4043,0.0,0.0,0.0,0.0,0.0,0.0,0.0,0.0,0.0,0.0,0.0,0.0,0.0,0.0,-1.9279,-1.9279,-1.9279,-1.9279,-1.9279,-1.9279,-1.9279,-1.9279,-1.9279,-1.9279,-1.9279,-1.9279,-1.9279,-1.9279,-1.9279,0.0,0.0,0.0,0.0,-1.9279,-1.9279,-1.9279,-1.9279,-1.9279,-1.9279,-1.9279,-1.9279,-1.9279,0.0,0.0,0.0,0.0,0.0,0.0,0.0,-1.299,-1.3025,-1.2908,-1.3007,-1.299,-1.2803,-1.2838,-1.2773,-1.2526,0.0,0.0,0.0,0.0,0.0,0.0,0.0,0.0,-1.5137,-1.5432,-1.5642,-1.571,-1.5521,-1.5456,-1.5491,-1.5491,-1.5491,-1.5491,-1.5491,-1.5468,-1.5468,-1.5468,-1.5311,-1.5062,-1.4937,-1.4846,0.0,0.0,0.0,0.0,0.0,0.0,0.0,0.0,0.0,0.0,0.0,0.0,0.0,0.0,0.0,0.0,0.0,0.0,0.0,0.0,0.0,0.0,0.0,0.0,0.0,-2.3897,-2.3714,-2.3641,-2.3824,-2.3677,-2.3629,-2.3824,0.0,0.0,0.0,0.0,0.0,0.0,0.0,0.0,0.0,0.0,0.0,0.0,0.0,0.0,-1.9279,-1.9279,-1.9279,-1.9279,-1.9279,-1.9279,-1.9279,-1.9279,-1.9279,-1.9279,-1.9279,-1.9279,-1.9279,-1.9279,-1.9279,0.0,0.0,-1.9279,-1.9279,-1.9279,-1.9279,-1.9279,-1.9279,-1.9279,-1.9279,-1.9279,-1.9279,-1.9279,0.0,0.0,0.0,0.0,0.0,0.0,0.0,0.0,0.0,0.0,-1.2815,-1.278,-1.2727,-1.2644,-1.2544,0.0,0.0,0.0,0.0,0.0,0.0,0.0,0.0,0.0,-1.451,-1.4492,-1.4618,-1.4967,-1.4902,-1.5049,-1.5345,-1.5446,-1.5491,-1.5491,-1.539,-1.5221,-1.5051,-1.5051,-1.4971,-1.4868,-1.4708,-1.4673,0.0,0.0,0.0,0.0,-1.6146,-1.6845,0.0,0.0,0.0,0.0,0.0,0.0,0.0,0.0,-1.9749,-2.0241,-2.0486,0.0,-2.0292,-2.0292,0.0,0.0,0.0,0.0,0.0,0.0,0.0,0.0,0.0,0.0,0.0,0.0,0.0,0.0,0.0,0.0,0.0,0.0,0.0,0.0,0.0,0.0,0.0,0.0,0.0,-1.9279,-1.9279,-1.9279,-1.9279,-1.9279,-1.9279,-1.9279,-1.9279,-1.9279,-1.9279,-1.9279,-1.9279,-1.9279,-1.9279,-1.9279,-1.9279,0.0,0.0,-1.9279,-1.9279,-1.9279,-1.9279,-1.9279,-1.9279,-1.9279,-1.9279,-1.9279,-1.9279,-1.9279,0.0,0.0,0.0,0.0,0.0,0.0,0.0,0.0,0.0,0.0,0.0,0.0,0.0,0.0,0.0,0.0,0.0,0.0,0.0,0.0,0.0,0.0,0.0,-1.3772,-1.3694,-1.3883,-1.4167,-1.4607,-1.4576,-1.4757,-1.5108,-1.5187,-1.5221,-1.5176,-1.5108,-1.4994,-1.4834,-1.4834,-1.48,-1.4707,-1.4557,0.0,0.0,0.0,0.0,0.0,-1.604,-1.665,0.0,-1.7357,-1.7451,-1.7518,0.0,0.0,0.0,0.0,-1.9521,-2.0174,-2.0301,-2.0561,-2.0786,-2.069,-2.1319,-2.1941,0.0,0.0,0.0,0.0,0.0,0.0,0.0,0.0,0.0,0.0,0.0,0.0,0.0,0.0,0.0,0.0,0.0,0.0,0.0,0.0,0.0,0.0,0.0,-1.9279,-1.9279,-1.9279,-1.9279,-1.9279,-1.9279,-1.9279,-1.9279,-1.9279,-1.9279,-1.9279,-1.9279,-1.9279,-1.9279,-1.9279,-1.9279,0.0,-1.9279,-1.9279,-1.9279,-1.9279,-1.9279,-1.9279,-1.9279,-1.9279,-1.9279,-1.9279,-1.9279,-1.9279,0.0,0.0,0.0,0.0,0.0,0.0,0.0,0.0,0.0,0.0,0.0,0.0,0.0,0.0,0.0,0.0,0.0,0.0,0.0,0.0,0.0,0.0,0.0,-1.2979,-1.2877,-1.3375,-1.3854,-1.433,-1.4327,-1.4494,-1.4846,-1.4823,-1.4789,-1.4707,-1.4707,-1.4707,-1.4684,-1.4684,-1.4615,-1.4511,-1.4361,0.0,0.0,0.0,0.0,0.0,0.0,0.0,0.0,-1.6937,-1.7088,-1.7261,-1.7456,0.0,0.0,0.0,0.0,0.0,-1.9933,-2.0042,-2.027,-2.0324,-2.094,-2.1507,0.0,0.0,0.0,0.0,0.0,0.0,0.0,0.0,0.0,0.0,0.0,0.0,0.0,0.0,0.0,0.0,0.0,0.0,0.0,0.0,0.0,0.0,0.0,-1.8855,-1.8795,-1.9004,-1.9063,-1.8959,-1.9168,-1.9279,-1.9279,-1.9279,-1.9279,-1.9279,-1.9323,-1.9404,-1.9404,-1.9403,-1.9425,-1.9425,0.0,0.0,-1.9404,-1.9404,-1.9375,-1.9279,-1.9279,-1.9279,-1.9279,-1.9279,-1.9294,-1.9199,0.0,0.0,0.0,0.0,0.0,0.0,0.0,0.0,0.0,0.0,0.0,0.0,0.0,0.0,0.0,0.0,0.0,0.0,0.0,0.0,0.0,-1.215,-1.2219,-1.2283,-1.2308,-1.2678,-1.3094,-1.3565,-1.3802,-1.4139,-1.4639,-1.4535,-1.4419,-1.4292,-1.4292,-1.4244,-1.4114,-1.4114,-1.4114,-1.4091,-1.3939,0.0,0.0,0.0,0.0,0.0,0.0,0.0,0.0,-1.6807,-1.6835,-1.6938,-1.7373,0.0,0.0,0.0,0.0,0.0,-1.9671,-1.891,-1.8444,-1.9679,-2.0255,-2.0657,-2.1183,0.0,0.0,0.0,0.0,0.0,0.0,0.0,0.0,0.0,0.0,0.0,0.0,0.0,0.0,0.0,0.0,0.0,0.0,0.0,0.0,0.0,0.0,-1.6882,-1.6446,-1.7562,-1.7989,-1.7457,-1.8632,-1.9279,-1.9279,-1.9279,-1.9279,-1.9279,-1.961,-1.9742,-1.9749,-1.9967,-2.0037,-2.0037,0.0,-1.9938,-1.9742,-1.9742,-1.958,-1.9279,-1.9279,-1.9279,-1.9279,-1.9279,-1.9103,-1.8825,0.0,0.0,0.0,0.0,0.0,0.0,0.0,0.0,0.0,0.0,0.0,0.0,0.0,0.0,0.0,0.0,0.0,0.0,0.0,0.0,0.0,-1.1881,-1.1808,-1.1833,-1.1979,-1.2374,-1.2771,-1.313,-1.3509,-1.3881,-1.4278,-1.4197,-1.4186,-1.4199,-1.4116,-1.4057,-1.3997,-1.3997,-1.3868,-1.3692,0.0,0.0,0.0,0.0,0.0,0.0,0.0,0.0,0.0,0.0,-1.6542,-1.6779,-1.7244,0.0,0.0,0.0,0.0,0.0,-1.9042,-1.8751,-1.8429,-1.8321,-1.8188,-1.8128,-1.8332,0.0,0.0,0.0,0.0,0.0,0.0,0.0,0.0,0.0,0.0,0.0,0.0,0.0,0.0,0.0,0.0,0.0,0.0,0.0,0.0,0.0,0.0,0.0,-1.5914,-1.6221,-1.638,-1.6446,-1.681,-1.7127,-1.7463,-1.7772,-1.8363,-1.9279,-1.9478,-1.9551,-1.9558,-1.9652,-1.9718,-1.9718,0.0,-1.963,-1.9551,-1.9551,-1.9463,-1.9279,-1.9279,-1.9169,-1.8942,-1.8404,-1.7784,-1.7257,0.0,0.0,0.0,0.0,0.0,0.0,0.0,0.0,0.0,0.0,0.0,0.0,0.0,0.0,0.0,0.0,0.0,0.0,0.0,0.0,-1.1782,-1.1637,-1.1533,-1.1596,-1.1845,-1.2291,-1.2676,-1.3,-1.3443,-1.375,-1.3926,-1.3926,-1.3952,-1.4059,-1.3962,-1.3955,-1.4013,-1.4013,-1.3886,-1.3663,0.0,0.0,0.0,0.0,0.0,0.0,0.0,0.0,0.0,0.0,0.0,0.0,0.0,0.0,0.0,-1.8282,-1.8685,-1.8908,-1.865,-1.8532,-1.8267,-1.7152,0.0,-1.6568,-1.5905,0.0,0.0,0.0,0.0,0.0,0.0,0.0,0.0,0.0,0.0,0.0,0.0,0.0,0.0,0.0,0.0,0.0,0.0,0.0,0.0,0.0,0.0,0.0,-1.4803,-1.4742,-1.4829,-1.5162,-1.5043,-1.531,-1.5914,-1.6168,-1.7127,-1.8684,-1.8762,-1.8902,-1.9022,-1.8928,-1.901,-1.9122,-1.934,-1.935,-1.9284,-1.9389,-1.9301,-1.9058,-1.8948,-1.8598,-1.8023,-1.715,-1.6537,-1.6099,0.0,0.0,0.0,0.0,0.0,0.0,0.0,0.0,0.0,0.0,0.0,0.0,0.0,0.0,0.0,0.0,0.0,0.0,0.0,0.0,-1.1637,-1.1432,-1.1402,-1.1597,-1.1977,-1.2379,-1.2829,-1.3254,-1.3617,-1.3732,-1.3621,-1.3621,-1.3634,-1.3634,-1.3634,-1.38,-1.4102,-1.4102,-1.4221,-1.4423,-1.4291,0.0,0.0,0.0,0.0,0.0,0.0,0.0,0.0,0.0,0.0,0.0,0.0,0.0,-1.7968,-1.8368,-1.8519,-1.8583,-1.8741,-1.7798,-1.6785,-1.6893,-1.7624,0.0,-1.5723,-1.6094,0.0,0.0,0.0,0.0,0.0,0.0,0.0,0.0,0.0,0.0,0.0,0.0,0.0,0.0,0.0,0.0,0.0,0.0,0.0,0.0,0.0,0.0,-1.1656,-1.3003,-1.3539,-1.3063,-1.4288,-1.531,-1.5914,-1.5364,-1.5737,-1.6916,-1.7186,-1.7646,-1.8165,-1.7928,-1.8101,-1.8617,-1.9386,-1.961,-1.9299,-1.9619,-1.9269,-1.8425,-1.7944,-1.7082,-1.6135,-1.5746,-1.6035,-1.6586,0.0,0.0,0.0,0.0,0.0,0.0,0.0,0.0,0.0,0.0,0.0,0.0,0.0,0.0,0.0,0.0,0.0,0.0,0.0,-1.1533,-1.1392,-1.1088,-1.1334,-1.1621,-1.1923,-1.2373,-1.2786,-1.3185,-1.351,-1.3644,-1.3597,-1.3515,-1.3515,-1.3607,-1.3736,-1.3861,-1.3983,-1.4255,-1.4248,-1.4141,-1.4167,-1.4313,0.0,0.0,0.0,0.0,0.0,0.0,0.0,0.0,-1.6118,-1.6476,0.0,-1.7292,-1.7432,-1.7861,-1.7988,-1.7988,-1.8008,-1.6995,-1.6018,-1.6178,0.0,0.0,0.0,0.0,0.0,0.0,0.0,0.0,0.0,0.0,0.0,0.0,0.0,0.0,0.0,0.0,0.0,0.0,0.0,0.0,0.0,0.0,0.0,0.0,0.0,0.0,-1.1146,-1.137,-1.1565,-1.1675,-1.1877,-1.2293,-1.2875,-1.3022,-1.3278,-1.3753,-1.5146,-1.6328,-1.7216,-1.6769,-1.6826,-1.7205,-1.7516,-1.7514,-1.7253,-1.74,-1.7221,-1.6847,-1.6454,-1.5769,-1.5047,-1.5166,-1.5114,-1.4998,0.0,0.0,0.0,0.0,0.0,0.0,0.0,0.0,0.0,0.0,0.0,0.0,0.0,0.0,0.0,0.0,0.0,0.0,-1.1325,-1.1231,-1.1099,-1.0888,-1.1204,-1.1582,-1.1955,-1.2378,-1.2788,-1.319,-1.3408,-1.3515,-1.3467,-1.3386,-1.3372,-1.3426,-1.3721,-1.3875,-1.3922,-1.433,-1.4397,-1.4238,-1.4293,-1.4326,0.0,0.0,0.0,0.0,0.0,0.0,0.0,0.0,-1.6106,0.0,0.0,0.0,-1.7207,-1.7527,-1.7335,-1.6948,-1.6923,-1.6243,-1.5479,0.0,0.0,0.0,0.0,0.0,0.0,0.0,0.0,0.0,0.0,0.0,0.0,0.0,0.0,0.0,0.0,0.0,0.0,0.0,0.0,0.0,0.0,0.0,0.0,0.0,0.0,0.0,0.0,-1.0335,-1.0369,-1.0733,-1.0369,-1.0473,-1.0988,-1.1243,-1.1549,-1.1911,-1.2973,-1.4181,-1.5462,-1.4872,-1.4879,-1.5291,-1.5548,-1.5546,-1.5374,-1.5469,-1.5318,-1.497,-1.455,-1.3964,-1.3407,-1.3767,-1.3655,-1.3463,0.0,0.0,0.0,0.0,0.0,0.0,0.0,0.0,0.0,0.0,0.0,0.0,0.0,0.0,0.0,0.0,0.0,0.0,-1.0897,-1.0764,-1.0725,-1.0784,-1.1065,-1.1489,-1.2073,-1.2428,-1.2862,-1.3396,-1.3396,-1.3338,-1.3194,-1.3194,-1.3132,-1.3012,-1.3481,-1.3776,-1.3928,-1.4332,-1.4678,-1.497,-1.4784,-1.4677,-1.4677,0.0,0.0,0.0,0.0,0.0,0.0,0.0,-1.624,-1.6803,0.0,0.0,0.0,-1.7505,-1.651,-1.5426,-1.5584,-1.5491,0.0,0.0,0.0,0.0,0.0,0.0,0.0,0.0,0.0,0.0,0.0,0.0,0.0,0.0,0.0,0.0,0.0,0.0,0.0,0.0,0.0,0.0,0.0,0.0,0.0,0.0,0.0,0.0,0.0,-1.011,-1.0208,-1.0208,-1.0208,-1.0468,-1.0984,-1.0468,-1.0781,-1.1869,-1.0729,-1.1088,-1.2787,-1.2164,-1.2216,-1.2833,-1.3642,-1.3993,-1.3993,-1.4281,-1.373,-1.2707,-1.2188,-1.1668,-1.1194,-1.1194,-1.1673,-1.229,0.0,0.0,0.0,0.0,0.0,0.0,0.0,0.0,0.0,0.0,0.0,0.0,0.0,0.0,0.0,0.0,0.0,0.0,-1.0553,-1.0515,-1.0518,-1.0582,-1.1121,-1.1516,-1.1738,-1.2343,-1.2816,-1.3118,-1.3079,-1.3041,-1.2983,-1.2886,-1.2885,-1.3008,-1.3394,-1.365,-1.3849,-1.4294,-1.4495,-1.4428,-1.4369,-1.43,-1.421,0.0,0.0,0.0,0.0,0.0,0.0,0.0,0.0,0.0,0.0,0.0,0.0,-1.6691,-1.6465,-1.621,-1.6104,-1.4809,0.0,0.0,0.0,0.0,0.0,0.0,0.0,0.0,0.0,0.0,0.0,0.0,0.0,0.0,0.0,0.0,0.0,0.0,0.0,0.0,0.0,0.0,0.0,0.0,0.0,0.0,0.0,0.0,0.0,-0.9754,-0.9786,-0.9786,-0.9786,-0.9837,-1.0033,-0.9837,-0.9937,-1.0284,-0.9937,-1.0628,-1.2127,-1.1554,-1.1471,-1.189,-1.2138,-1.2154,-1.2014,-1.2108,-1.1974,-1.1668,-1.1507,-1.134,-1.1243,-1.1765,-1.2101,-1.2382,0.0,0.0,0.0,0.0,0.0,0.0,0.0,0.0,0.0,0.0,0.0,0.0,0.0,0.0,0.0,0.0,0.0,0.0,0.0,-1.0331,-1.0413,-1.0463,-1.1101,-1.1574,-1.1796,-1.2226,-1.248,-1.2486,-1.2652,-1.2686,-1.2578,-1.2576,-1.2647,-1.2794,-1.325,-1.3522,-1.3672,-1.4098,-1.421,-1.404,-1.3941,-1.3881,-1.3791,0.0,0.0,0.0,0.0,0.0,0.0,0.0,0.0,0.0,0.0,0.0,0.0,-1.5774,-1.5629,-1.5455,-1.4335,0.0,0.0,0.0,0.0,0.0,0.0,0.0,0.0,0.0,0.0,0.0,0.0,0.0,0.0,0.0,0.0,0.0,0.0,0.0,0.0,0.0,0.0,0.0,0.0,0.0,0.0,0.0,0.0,0.0,0.0,-0.9579,-0.9579,-0.9579,-0.9579,-0.9579,-0.9579,-0.9579,-0.9579,-0.9579,-0.9579,-1.0087,-1.0968,-1.0607,-1.0542,-1.073,-1.073,-1.0663,-1.056,-1.056,-1.056,-1.056,-1.056,-1.056,-1.0605,-1.1086,-1.1228,-1.1321,0.0,0.0,0.0,0.0,0.0,0.0,0.0,0.0,0.0,0.0,0.0,0.0,0.0,0.0,0.0,0.0,0.0,0.0,0.0,0.0,-1.0375,-1.0391,-1.104,-1.1595,-1.2042,-1.2051,-1.1945,-1.1731,-1.2194,-1.2292,-1.209,-1.225,-1.2377,-1.2449,-1.3058,-1.3345,-1.3397,-1.374,-1.383,-1.3709,-1.3541,-1.345,-1.3459,-1.3366,0.0,0.0,0.0,0.0,0.0,0.0,0.0,0.0,0.0,-1.6237,-1.6008,-1.4914,-1.4424,-1.3769,0.0,0.0,0.0,0.0,0.0,0.0,0.0,0.0,0.0,0.0,0.0,0.0,0.0,0.0,0.0,0.0,0.0,0.0,0.0,0.0,0.0,0.0,0.0,0.0,0.0,0.0,0.0,0.0,0.0,0.0,0.0,-0.9579,-0.9579,-0.9579,-0.9579,-0.9579,-0.9579,-0.9579,-0.9579,-0.9579,-0.9579,-0.9579,-0.9579,-0.9579,-0.9579,-0.9579,-0.9579,-0.9579,-0.9579,-0.9579,-0.9579,-0.9579,-0.9579,-0.9579,-0.9579,-0.9579,-0.9579,-0.9579,0.0,0.0,0.0,0.0,0.0,0.0,0.0,0.0,0.0,0.0,0.0,0.0,0.0,0.0,0.0,0.0,0.0,0.0,0.0,0.0,-1.0206,-1.0312,-1.1057,-1.1589,-1.1769,-1.1803,-1.1829,-1.1931,-1.1803,-1.1761,-1.1878,-1.1912,-1.2185,-1.2638,-1.2779,-1.2928,-1.3085,-1.3169,-1.3194,-1.3172,-1.3133,-1.3103,-1.3136,-1.3418,-1.3383,0.0,0.0,0.0,0.0,0.0,0.0,0.0,-1.5674,-1.5674,-1.562,-1.5367,-1.4712,-1.3946,0.0,0.0,0.0,0.0,0.0,0.0,0.0,0.0,0.0,0.0,0.0,0.0,0.0,0.0,0.0,0.0,0.0,0.0,0.0,0.0,0.0,0.0,0.0,0.0,0.0,0.0,0.0,0.0,0.0,0.0,-0.9571,-0.9579,-0.9579,-0.9579,-0.9579,-0.9579,-0.9579,-0.9579,-0.9579,-0.9579,-0.9579,-0.9579,-0.9579,-0.9579,-0.9579,-0.9579,-0.9579,-0.9579,-0.9579,-0.9579,-0.9579,-0.9579,-0.9579,-0.9579,-0.9579,-0.9579,-0.9579,-0.9579,0.0,0.0,0.0,0.0,0.0,0.0,0.0,0.0,0.0,0.0,0.0,0.0,0.0,0.0,0.0,0.0,0.0,0.0,0.0,0.0,-1.0252,-1.0564,-1.1062,-1.1318,-1.1326,-1.1533,-1.1644,-1.1629,-1.1585,-1.1731,-1.2007,-1.1845,-1.2012,-1.2468,-1.25,-1.2589,-1.2767,-1.2767,-1.2736,-1.2691,-1.2828,-1.29,-1.2971,-1.3421,-1.3502,-1.3468,-1.4164,0.0,0.0,0.0,0.0,0.0,0.0,0.0,-1.5237,-1.4662,-1.4527,-1.4215,0.0,0.0,0.0,0.0,0.0,0.0,0.0,0.0,0.0,0.0,0.0,0.0,0.0,0.0,0.0,0.0,0.0,0.0,0.0,0.0,0.0,0.0,0.0,0.0,0.0,0.0,0.0,0.0,0.0,-0.9271,-0.9368,-0.9372,-0.9372,-0.9372,-0.9372,-0.9413,-0.9494,-0.9498,-0.9543,-0.9579,-0.9579,-0.9579,-0.9579,-0.9579,-0.9579,-0.9579,-0.9579,-0.9579,-0.9579,-0.9579,-0.9579,-0.9579,-0.9579,-0.9579,-0.9579,-0.9579,-0.9579,-0.9579,0.0,0.0,0.0,0.0,0.0,0.0,0.0,0.0,0.0,0.0,0.0,0.0,0.0,0.0,0.0,0.0,0.0,0.0,0.0,0.0,0.0,-1.0838,-1.0947,-1.0947,-1.082,-1.126,-1.1395,-1.1245,-1.1515,-1.1858,-1.2199,-1.1871,-1.1895,-1.2212,-1.2234,-1.2336,-1.2421,-1.2421,-1.2398,-1.2352,-1.2639,-1.2794,-1.2887,-1.3402,-1.3622,-1.3732,-1.4378,-1.4561,-1.4535,-1.4947,0.0,0.0,0.0,0.0,-1.4816,-1.3866,-1.4132,-1.4132,0.0,0.0,0.0,0.0,0.0,0.0,0.0,0.0,0.0,0.0,0.0,0.0,0.0,0.0,0.0,0.0,0.0,0.0,0.0,0.0,0.0,0.0,0.0,0.0,0.0,0.0,0.0,0.0,0.0,-0.9064,-0.9096,-0.9096,-0.9096,-0.9096,-0.9096,-0.9165,-0.9359,-0.9359,-0.9384,-0.9535,-0.9535,-0.9535,-0.9535,-0.9567,-0.96,-0.9579,-0.9579,-0.9579,-0.9579,-0.9579,-0.9579,-0.9579,-0.9579,-0.9579,-0.9579,-0.9579,-0.9579,-0.9579,0.0,0.0,0.0,0.0,0.0,0.0,0.0,0.0,0.0,0.0,0.0,0.0,0.0,0.0,0.0,0.0,0.0,0.0,-0.9471,0.0,0.0,-1.0702,-1.0616,-1.0565,-1.0539,-1.083,-1.1157,-1.1452,-1.1513,0.0,0.0,0.0,0.0,-1.2266,-1.2158,-1.2151,-1.2151,-1.2151,-1.2288,-1.2493,-1.2538,-1.2697,-1.3001,-1.3378,-1.3351,-1.3209,-1.3909,-1.3955,-1.3762,-1.4451,-1.4489,0.0,0.0,0.0,-1.4245,-1.4255,-1.3615,0.0,0.0,0.0,0.0,0.0,0.0,0.0,0.0,0.0,0.0,0.0,0.0,0.0,0.0,0.0,0.0,0.0,0.0,0.0,0.0,0.0,0.0,0.0,0.0,0.0,0.0,0.0,0.0,0.0,-0.8857,-0.8926,-0.9088,-0.9096,-0.9096,-0.9096,-0.9096,-0.9108,-0.9133,-0.9133,-0.9145,-0.9169,-0.9169,-0.9169,-0.9173,-0.9324,-0.9478,-0.9579,-0.9579,-0.9579,-0.9579,-0.9579,-0.9579,-0.9579,-0.9579,-0.9579,-0.9579,-0.9579,-0.9579,-0.9579,0.0,0.0,0.0,0.0,0.0,0.0,0.0,0.0,0.0,0.0,0.0,0.0,0.0,0.0,0.0,-0.922,-0.9364,-0.9493,-0.9501,-0.9631,-0.9824,-1.0079,-1.0219,-1.0272,-1.0272,-1.0725,-1.1029,-1.123,0.0,0.0,0.0,-1.1652,-1.1667,0.0,0.0,0.0,-1.1575,-1.1821,-1.2008,-1.2137,-1.2606,-1.2206,-1.1482,-1.3049,-1.2892,-1.1976,-1.3556,-1.4001,-1.3902,-1.4227,-1.4201,-1.4129,-1.4274,0.0,0.0,0.0,0.0,0.0,0.0,0.0,0.0,0.0,0.0,0.0,0.0,0.0,0.0,0.0,0.0,0.0,0.0,0.0,0.0,0.0,0.0,0.0,0.0,0.0,0.0,0.0,0.0,0.0,0.0,0.0,0.0,0.0,-0.8678,-0.8714,-0.8796,-0.88,-0.88,-0.88,-0.88,-0.8848,-0.8942,-0.8942,-0.8995,-0.9096,-0.9096,-0.9096,-0.91,-0.9177,-0.9307,-0.9482,-0.9583,-0.9579,-0.9579,-0.9579,-0.9579,-0.9579,-0.9579,-0.9579,-0.9579,-0.9579,-0.9579,-0.9579,0.0,0.0,0.0,0.0,0.0,0.0,0.0,0.0,0.0,0.0,0.0,0.0,0.0,0.0,0.0,0.0,-0.9289,-0.9402,-0.948,-0.9438,-0.9449,-0.9554,-0.9784,-0.9949,-0.9972,-1.0515,-1.0763,-1.0763,0.0,0.0,-1.1341,-1.1185,-1.1185,0.0,-1.1247,-1.1227,0.0,0.0,0.0,-1.1961,-1.2088,-1.1296,-1.0196,-1.1658,-1.1258,-1.0235,-1.2394,-1.3176,-1.3279,-1.3826,-1.3992,-1.3956,-1.3956,-1.392,0.0,0.0,0.0,0.0,0.0,0.0,0.0,0.0,0.0,0.0,0.0,0.0,0.0,0.0,0.0,0.0,0.0,0.0,0.0,0.0,0.0,0.0,0.0,0.0,0.0,0.0,0.0,0.0,0.0,0.0,0.0,0.0,-0.8208,-0.834,-0.834,-0.8476,-0.8612,-0.8612,-0.8612,-0.8629,-0.8755,-0.8755,-0.8824,-0.8962,-0.8962,-0.8962,-0.8962,-0.9007,-0.9096,-0.9277,-0.9413,-0.949,-0.949,-0.949,-0.9518,-0.9559,-0.9559,-0.9587,-0.9579,-0.9579,-0.9579,-0.9579,0.0,0.0,0.0,0.0,0.0,0.0,0.0,0.0,0.0,0.0,0.0,0.0,-0.9213,-0.9278,-0.9254,-0.9114,-0.9394,-0.9518,-0.941,-0.9406,-0.939,-0.9412,-0.9412,0.0,-0.961,-0.9953,-1.0144,0.0,0.0,0.0,-1.0656,-1.0656,-1.053,-1.0403,-1.0902,-1.1252,-1.1493,0.0,0.0,0.0,-1.0553,-1.0003,-1.0004,-0.8418,-0.7765,-0.7951,0.0,-1.0676,-1.0992,-1.311,-1.3681,-1.3528,-1.3528,-1.3382,-1.3193,0.0,0.0,0.0,0.0,0.0,0.0,0.0,0.0,0.0,0.0,0.0,0.0,0.0,0.0,0.0,0.0,0.0,0.0,0.0,0.0,0.0,0.0,0.0,0.0,0.0,0.0,0.0,0.0,0.0,0.0,0.0,-0.718,-0.7577,-0.7577,-0.8204,-0.8612,-0.8612,-0.8612,-0.8616,-0.8624,-0.8624,-0.8629,-0.8641,-0.8641,-0.8641,-0.8645,-0.8763,-0.884,-0.8861,-0.9043,-0.9125,-0.9125,-0.9125,-0.9222,-0.9416,-0.9416,-0.9474,-0.9579,-0.9579,-0.9579,-0.9579,0.0,0.0,0.0,0.0,0.0,0.0,0.0,0.0,0.0,0.0,0.0,0.0,0.0,-0.9286,-0.9179,-0.9057,-0.8985,-0.9024,-0.9119,-0.9072,-0.9033,-0.9093,-0.9291,-0.9349,-0.9288,-0.9556,-0.9725,0.0,0.0,-0.9907,-0.9907,-0.9907,-0.9943,-1.0058,-1.0607,-1.0823,-1.0811,-1.1355,0.0,0.0,0.0,0.0,0.0,0.0,0.0,0.0,0.0,0.0,0.0,-1.1185,-1.2144,-1.2936,-1.3083,-1.3083,-1.2973,0.0,0.0,0.0,0.0,0.0,0.0,0.0,0.0,0.0,0.0,0.0,0.0,0.0,0.0,0.0,0.0,0.0,0.0,0.0,0.0,0.0,0.0,0.0,0.0,0.0,0.0,0.0,0.0,0.0,0.0,0.0,0.0,-0.6328,-0.6328,-0.6871,-0.7404,-0.7893,-0.7893,-0.8116,-0.8612,-0.8612,-0.8612,-0.8612,-0.8612,-0.8612,-0.8612,-0.8629,-0.8658,-0.8662,-0.8727,-0.8889,-0.9096,-0.9096,-0.9133,-0.919,-0.919,-0.923,-0.9299,-0.9413,-0.9453,-0.947,0.0,0.0,0.0,0.0,0.0,0.0,0.0,0.0,0.0,-0.9767,0.0,0.0,0.0,0.0,-0.9194,-0.8976,-0.8806,-0.8724,-0.878,-0.8786,-0.879,-0.8795,-0.9047,-0.9149,-0.9072,-0.9243,-0.9332,0.0,0.0,0.0,0.0,-0.9468,-0.961,-0.9836,-1.0294,-1.0536,0.0,0.0,0.0,-1.1653,0.0,0.0,-0.7845,0.0,0.0,0.0,0.0,0.0,0.0,0.0,-1.002,-1.0983,0.0,0.0,0.0,0.0,0.0,0.0,0.0,0.0,0.0,0.0,0.0,0.0,0.0,0.0,0.0,0.0,0.0,0.0,0.0,0.0,0.0,0.0,0.0,0.0,0.0,0.0,0.0,0.0,0.0,0.0,0.0,0.0,0.0,0.0,0.0,0.0,-0.5087,-0.5625,-0.6157,-0.664,-0.664,-0.6908,-0.7401,-0.7536,-0.776,-0.7984,-0.816,-0.834,-0.8612,-0.8612,-0.8612,-0.8612,-0.8612,-0.8747,-0.8917,-0.8917,-0.8954,-0.9003,-0.9003,-0.9043,-0.9112,-0.9273,-0.9318,-0.9343,0.0,0.0,0.0,0.0,0.0,0.0,0.0,0.0,-0.9792,-1.0036,0.0,0.0,0.0,0.0,0.0,-0.8903,-0.8874,-0.8733,-0.8428,-0.8604,-0.8657,-0.862,-0.8744,-0.8859,-0.8979,-0.899,-0.8996,0.0,0.0,0.0,0.0,0.0,-0.9485,-0.9694,-0.9967,-1.0437,-1.0983,0.0,-1.1428,-1.1366,0.0,-0.7515,-0.8585,0.0,0.0,0.0,-0.7137,-0.7341,0.0,0.0,0.0,0.0,0.0,0.0,0.0,0.0,0.0,0.0,0.0,0.0,0.0,0.0,0.0,0.0,0.0,0.0,0.0,0.0,0.0,0.0,0.0,0.0,0.0,0.0,0.0,0.0,0.0,0.0,0.0,0.0,0.0,0.0,0.0,0.0,0.0,0.0,-0.3492,-0.3849,-0.3849,-0.4556,-0.4954,-0.4954,-0.4996,-0.4999,-0.4999,-0.544,-0.6018,-0.6735,-0.7221,-0.7801,-0.8476,-0.8476,-0.8476,-0.8476,-0.8476,-0.8476,-0.8476,-0.8568,-0.8666,-0.8812,-0.8812,-0.8922,-0.9033,-0.9088,-0.9041,-0.9066,0.0,0.0,0.0,0.0,0.0,0.0,0.0,-0.9473,-0.95,0.0,0.0,0.0,-0.9389,-0.9091,-0.8769,-0.8422,-0.8392,-0.8438,-0.8531,-0.8604,-0.8657,-0.8755,-0.8792,-0.8762,-0.8641,-0.8678,-0.8698,0.0,0.0,0.0,0.0,0.0,0.0,0.0,-0.9654,-0.9994,-1.041,-1.0638,0.0,0.0,-0.7524,-0.6614,0.0,0.0,0.0,0.0,0.0,-0.5746,-0.6505,0.0,-0.7464,-1.0483,0.0,0.0,0.0,0.0,0.0,0.0,-1.1541,0.0,0.0,0.0,0.0,0.0,0.0,0.0,0.0,0.0,0.0,0.0,0.0,0.0,0.0,0.0,0.0,0.0,0.0,0.0,0.0,0.0,0.0,0.0,0.0,0.0,0.0,0.0,-0.2332,-0.269,-0.269,-0.3624,-0.4202,-0.4202,-0.4732,-0.4999,-0.4999,-0.5129,-0.5307,-0.5487,-0.562,-0.5797,-0.5977,-0.5977,-0.5977,-0.5977,-0.5977,-0.5977,-0.611,-0.7893,-0.8641,-0.8637,-0.8637,-0.835,-0.8042,-0.8663,-0.8253,-0.7405,0.0,0.0,0.0,0.0,0.0,0.0,-0.9432,-0.9422,-0.9466,0.0,0.0,0.0,-0.9138,-0.8894,-0.8619,-0.8348,-0.8245,-0.8244,-0.8354,-0.843,-0.8511,-0.8591,-0.8687,-0.8668,-0.8539,-0.8567,-0.86,0.0,0.0,0.0,0.0,0.0,0.0,0.0,0.0,0.0,0.0,0.0,0.0,0.0,-0.7287,0.0,0.0,-0.5019,-0.4025,0.0,0.0,0.0,-0.531,-0.3627,-0.579,0.0,0.0,0.0,0.0,0.0,0.0,0.0,0.0,0.0,0.0,0.0,0.0,0.0,-0.7693,-0.595,0.0,0.0,0.0,0.0,0.0,0.0,0.0,0.0,0.0,0.0,0.0,0.0,0.0,0.0,0.0,0.0,0.0,-0.1391,-0.1391,-0.1391,-0.1705,-0.1884,-0.1884,-0.251,-0.2865,-0.2865,-0.3264,-0.3486,-0.3486,-0.371,-0.3978,-0.4241,-0.4465,-0.4688,-0.4999,-0.4999,-0.4999,-0.4999,-0.4999,-0.4999,-0.5132,-0.6511,-0.7092,-0.7092,-0.7092,-0.682,-0.6517,-0.7045,-0.6677,-0.602,0.0,0.0,0.0,0.0,0.0,0.0,0.0,-0.9469,-0.9525,0.0,-0.9652,-0.9332,-0.8985,-0.8857,-0.8712,-0.8457,-0.8304,-0.8151,-0.8025,-0.8183,-0.8264,-0.8264,-0.8444,-0.8544,-0.8579,-0.8568,-0.8583,0.0,0.0,0.0,0.0,0.0,0.0,0.0,0.0,0.0,0.0,0.0,0.0,-0.9975,-0.7329,-0.7001,0.0,0.0,-0.5129,0.0,-0.4544,-0.4223,-0.4263,-0.2539,-0.3637,0.0,0.0,0.0,0.0,0.0,-0.9848,0.0,0.0,0.0,0.0,0.0,0.0,0.0,-0.706,-0.6324,-0.5407,0.0,0.0,0.0,0.0,0.0,0.0,0.0,0.0,0.0,0.0,0.0,0.0,0.0,0.0,0.0,-0.1391,-0.1391,-0.1391,-0.1391,-0.1391,-0.1391,-0.1391,-0.1391,-0.1391,-0.1391,-0.1391,-0.1391,-0.1391,-0.1885,-0.242,-0.2996,-0.3444,-0.3979,-0.4596,-0.4596,-0.4596,-0.4596,-0.4596,-0.4596,-0.4596,-0.4596,-0.4776,-0.4999,-0.4999,-0.4954,-0.491,-0.4954,-0.4907,-0.4788,-0.8531,0.0,0.0,0.0,0.0,0.0,0.0,-0.933,-0.9348,-0.9428,-0.9242,-0.8985,-0.8641,-0.8711,-0.8619,-0.8149,-0.8211,-0.8205,-0.8027,-0.803,-0.8053,-0.8053,-0.8091,-0.8186,-0.8337,-0.8399,-0.8522,0.0,0.0,0.0,0.0,0.0,0.0,0.0,0.0,0.0,0.0,0.0,0.0,-0.8303,-0.7939,0.0,-0.6502,-0.4489,-0.3204,-0.2444,-0.21,-0.2857,-0.417,0.0,-0.4865,-0.4716,0.0,0.0,0.0,0.0,0.0,0.0,0.0,0.0,0.0,0.0,0.0,0.0,-0.9326,-0.8247,-0.7249,0.0,0.0,0.0,0.0,0.0,0.0,0.0,0.0,0.0,0.0,0.0,0.0,0.0,0.0,0.0,-0.1391,-0.1391,-0.1391,-0.1391,-0.1391,-0.1391,-0.1391,-0.1391,-0.1391,-0.1391,-0.1391,-0.1391,-0.1391,-0.1525,-0.1614,-0.1748,-0.1837,-0.1972,-0.2105,-0.2105,-0.2105,-0.2105,-0.2105,-0.2105,-0.2105,-0.2105,-0.3263,-0.4999,-0.4999,-0.4645,-0.4202,-0.4776,-0.4287,-0.3358,-0.8391,0.0,0.0,0.0,0.0,0.0,0.0,0.0,-0.9095,-0.9188,-0.9047,-0.8856,-0.8591,-0.8451,-0.8305,-0.8023,-0.7958,-0.7841,-0.7766,-0.7857,-0.7907,-0.7907,-0.8006,-0.8102,-0.818,-0.8244,-0.8295,0.0,0.0,0.0,0.0,0.0,0.0,0.0,0.0,0.0,0.0,0.0,-0.9261,-0.8601,-0.7274,0.0,-0.4572,-0.2834,-0.1701,-0.1031,-0.1031,-0.1611,-0.2407,-0.3255,-0.3998,0.0,0.0,-0.6188,-0.7134,0.0,-0.8295,-0.8055,0.0,0.0,0.0,-0.9771,0.0,0.0,0.0,-0.8003,-0.7255,-0.6488,0.0,0.0,0.0,0.0,0.0,0.0,0.0,0.0,0.0,0.0,0.0,0.0,0.0,0.0,-0.1391,-0.1391,-0.1391,-0.1391,-0.1391,-0.1391,-0.1391,-0.1391,-0.1391,-0.1391,-0.1391,-0.1391,-0.1391,-0.1391,-0.1391,-0.1391,-0.1391,-0.1391,-0.1391,-0.1391,-0.1391,-0.1391,-0.1391,-0.1391,-0.1391,-0.1391,-0.2105,-0.3218,-0.3218,-0.2998,-0.2686,-0.3086,-0.2774,-0.2152,-0.8139,0.0,0.0,0.0,0.0,0.0,0.0,0.0,-0.881,-0.8995,-0.8513,-0.8073,-0.786,-0.7193,-0.6716,-0.6647,-0.643,-0.6445,-0.6795,-0.6957,-0.7031,-0.7031,-0.7609,-0.7765,-0.7397,-0.7808,-0.8063,-0.8102,0.0,0.0,0.0,0.0,0.0,0.0,0.0,0.0,0.0,0.0,0.0,-0.8176,0.0,-0.4506,-0.3828,-0.2176,-0.1343,-0.1075,-0.0807,-0.0718,-0.0762,-0.103,0.0,-0.4679,-0.3886,-0.4989,0.0,0.0,0.0,0.0,0.0,0.0,0.0,0.0,0.0,-0.9018,0.0,0.0,0.0,-0.6103,0.0,0.0,0.0,0.0,0.0,0.0,0.0,0.0,0.0,0.0,0.0,0.0,0.0,0.0,0.0,-0.1829,-0.1696,-0.1435,-0.1652,-0.1696,-0.1435,-0.1391,-0.1391,-0.1391,-0.1391,-0.1391,-0.1391,-0.1391,-0.1391,-0.1391,-0.1391,-0.1391,-0.1391,-0.1391,-0.1391,-0.1391,-0.1391,-0.1391,-0.1391,-0.1391,-0.1391,-0.1391,-0.1391,-0.1391,-0.1391,-0.1391,-0.1391,-0.1391,-0.7917,-0.8052,0.0,0.0,0.0,0.0,0.0,0.0,-0.8618,-0.8644,-0.6789,-0.5362,0.0,0.0,0.0,0.0,0.0,0.0,-0.4214,0.0,-0.4344,-0.4344,-0.6249,-0.656,-0.4944,-0.6835,-0.7915,-0.8102,0.0,0.0,0.0,0.0,0.0,0.0,-0.5715,0.0,0.0,0.0,-0.4894,0.0,-0.3315,-0.4643,0.0,-0.5156,-0.3746,-0.2459,-0.1165,-0.0718,-0.0896,0.0,-0.29,-0.359,0.0,-0.515,-0.4156,0.0,0.0,0.0,0.0,0.0,0.0,0.0,-0.9284,0.0,0.0,0.0,-0.8975,-0.8616,0.0,0.0,0.0,0.0,0.0,0.0,0.0,0.0,0.0,0.0,0.0,0.0,0.0,0.0,0.0,-0.3465,-0.2803,-0.1478,-0.2593,-0.276,-0.1478,-0.1391,-0.1391,-0.1391,-0.1391,-0.1391,-0.1391,-0.1391,-0.1391,-0.1391,-0.1391,-0.1391,-0.1391,-0.1391,-0.1391,-0.1391,-0.1391,-0.1391,-0.1391,-0.1391,-0.1391,-0.1391,-0.1391,-0.1391,-0.1391,-0.1391,-0.1391,-0.1391,-0.748,-0.7692,0.0,0.0,0.0,0.0,0.0,0.0,-0.8269,-0.8269,-0.7418,0.0,0.0,0.0,0.0,0.0,0.0,-0.3039,0.0,0.0,-0.4236,0.0,0.0,0.0,0.0,-0.6558,-0.7055,-0.7232,-0.7155,0.0,0.0,0.0,0.0,0.0,-0.4575,0.0,-0.4193,0.0,0.0,0.0,0.0,0.0,0.0,-0.1777,-0.0045,0.0536,0.1164,0.1388,0.1299,0.0,-0.1114,0.0,0.0,0.0,0.0,0.0,0.0,0.0,0.0,0.0,0.0,0.0,0.0,0.0,-0.8493,0.0,-0.8899,0.0,0.0,0.0,0.0,0.0,0.0,0.0,-0.7458,0.0,0.0,0.0,0.0,0.0,0.0,0.0,0.0,0.0,0.0,0.0,-0.1954,-0.204,-0.1435,-0.1391,-0.1391,-0.1391,-0.1391,-0.1391,-0.1391,-0.1391,-0.1391,-0.1391,-0.1391,-0.1391,-0.1391,-0.1391,-0.1391,-0.1391,-0.1391,-0.1391,-0.1391,-0.1391,-0.1391,-0.1391,-0.1391,-0.1391,-0.1391,-0.1391,-0.1391,-0.1391,-0.695,0.0,0.0,0.0,0.0,0.0,0.0,0.0,0.0,0.0,0.0,0.0,-0.6747,-0.5505,0.0,0.0,0.0,-0.144,0.0,0.0,-0.3008,0.0,0.0,0.0,0.0,0.0,-0.6298,-0.6408,0.0,0.0,0.0,0.0,0.0,0.0,0.0,-0.3059,-0.1817,0.0,0.0,-0.2521,-0.0973,-0.0929,-0.146,0.1247,0.255,0.2911,0.2911,0.2911,0.2822,0.2415,0.0311,0.0,0.089,0.0,0.0,0.0,0.0,0.0,-0.7099,0.0,0.0,0.0,0.0,0.0,0.0,0.0,0.0,0.0,0.0,0.0,0.0,0.0,0.0,0.0,0.0,-0.7226,0.0,0.0,0.0,0.0,0.0,0.0,0.0,0.0,0.0,-0.1909,-0.1953,-0.1781,-0.1345,-0.139,-0.1391,-0.1391,-0.1391,-0.1391,-0.1391,-0.1391,-0.1391,-0.1391,-0.1391,-0.1391,-0.1391,-0.1391,-0.1391,-0.1391,-0.1391,-0.1391,-0.1391,-0.1391,-0.139,-0.13,-0.13,-0.1256,-0.1211,-0.1345,-0.1391,-0.1391,-0.6286,-0.6971,0.0,0.0,0.0,0.0,0.0,0.0,0.0,0.0,0.0,0.0,0.0,0.0,0.0,0.0,0.0,0.459,0.2623,0.0,0.0773,0.0,0.0,-0.3952,0.0,0.0,0.0,0.0,0.0,0.0,0.0,0.0,0.0,0.0,0.0,-0.3421,-0.3641,-0.1376,0.0622,0.2266,0.2355,0.3563,0.5053,0.0,0.1649,0.2911,0.2911,0.0,0.0,0.1246,0.0666,0.0,0.0,0.0,0.0,0.0,0.0,0.0,0.0,0.0,0.0,-0.7812,0.0,0.0,0.0,0.0,-0.8102,0.0,0.0,0.0,0.0,0.0,0.0,-0.8063,0.0,0.0,0.0,0.0,0.0,0.0,0.0,0.0,0.0,0.0,-0.4875,-0.3285,-0.3373,-0.2841,-0.1209,-0.13,-0.1391,-0.1391,-0.1391,-0.1391,-0.1391,-0.1391,-0.1391,-0.1391,-0.1391,-0.1391,-0.1391,-0.1391,-0.1391,-0.1391,-0.1391,-0.1391,-0.1391,-0.1391,-0.13,-0.1121,-0.1121,-0.0942,-0.0762,-0.1211,-0.1391,-0.1391,0.0,0.0,0.0,0.0,0.0,0.0,0.0,-0.7249,0.0,0.0,0.0,0.0,0.0,0.0,0.1098,0.0,0.0,0.3479,0.2934,0.1336,0.0,0.0,0.0,-0.3974,0.0,0.0,0.0,0.0,0.0,0.0,0.0,0.0,0.0,0.0,0.0,-0.2313,0.0,0.0,0.0,0.0,0.0,0.3028,0.3838,0.0,0.4334,0.4748,0.4748,0.4748,0.0,0.4196,0.2981,0.1863,0.2978,0.1537,-0.0303,0.0601,0.0212,-0.0876,0.0,0.0,-0.1119,-0.4716,0.0,0.0,0.0,0.0,0.0,0.0,0.0,0.0,0.0,0.0,-0.7642,-0.7676,-0.7714,0.0,0.0,0.0,0.0,0.0,0.0,0.0,0.0,0.0,0.0,-0.3199,-0.1664,-0.0799,-0.0852,-0.0897,-0.0942,-0.0942,-0.1121,-0.1211,-0.1211,-0.1345,-0.1391,-0.1391,-0.1391,-0.1391,-0.1391,-0.1256,-0.1211,-0.1211,-0.1031,-0.0942,-0.0942,-0.0942,-0.0897,-0.0852,-0.0852,-0.0762,-0.0718,-0.0897,-0.0942,-0.0942,-0.6028,0.0,0.0,0.0,0.0,0.0,0.0,0.0,0.0,0.0,-0.3738,0.0,-0.0745,0.0,0.1183,0.0,0.3514,0.3709,0.323,0.2268,0.0,0.1281,-0.1153,0.0,0.0,0.0,0.0,0.0,0.0,-0.4788,0.0,0.0,0.0,0.0,0.0,0.0,0.0,0.0,0.2539,0.0,0.0,0.3746,0.0,0.0,0.528,0.4783,0.0,0.5688,0.5688,0.5688,0.4688,0.3694,0.523,0.3705,0.1606,0.2959,0.2367,0.1017,0.0042,0.0974,0.0,-0.2248,-0.2088,0.0,-0.5432,0.0,0.0,0.0,0.0,0.0,0.0,0.0,0.0,-0.633,-0.681,-0.7253,0.0,-0.7313,-0.7458,0.0,0.0,0.0,0.0,0.0,-0.316,-0.2024,-0.083,0.0,0.0,0.0358,0.0134,-0.0179,-0.0358,-0.0628,-0.0942,-0.1076,-0.1166,-0.1166,-0.1166,-0.1166,-0.1166,-0.1031,-0.0942,-0.0942,-0.0762,-0.0718,-0.0718,-0.0718,-0.0673,-0.0583,-0.0583,-0.0538,-0.0494,-0.0628,-0.0718,-0.0718,0.0,0.0,0.0,0.0,-0.6865,0.0,0.0,0.0,-0.5668,0.0,-0.3144,-0.2197,-0.0208,0.1744,0.2976,0.3235,0.5027,0.0,0.3829,0.3829,0.0,0.0,0.2222,0.2178,0.3874,0.0,0.0,0.0,0.0,0.0,0.0,0.0,0.0,0.0,-0.5235,0.0,0.0401,0.0134,0.2227,0.5688,0.5688,0.5644,0.5552,0.5644,0.4514,0.3166,0.501,0.5688,0.5688,0.5688,0.5688,0.5688,0.5688,0.5688,0.5688,0.5688,0.5688,0.5208,0.2901,0.2411,0.197,-0.0417,-0.0871,0.0,0.0,0.0,-0.3742,0.0,0.0,0.0,0.0,0.0,0.0,-0.432,-0.5605,-0.6942,-0.7142,0.0,0.0,0.0,0.0,0.0,0.0,-0.6065,-0.4696,-0.0128,-0.0944,0.0,0.0,0.2186,0.1606,0.085,0.0761,0.0313,-0.0583,-0.0673,-0.0718,-0.0718,-0.0718,-0.0718,-0.0718,-0.0673,-0.0673,-0.0673,-0.0673,-0.0673,-0.0673,-0.0673,-0.0538,-0.0359,-0.0359,-0.0179,0.0,-0.0494,-0.0673,-0.0673,-0.5559,-0.5712,-0.5828,0.0,-0.6215,-0.6335,0.0,0.0,0.0,0.0,0.071,0.2427,0.4454,0.5153,0.5484,0.5528,0.6007,0.0,0.0,0.0,0.0,0.562,0.2933,0.2178,0.3874,0.04,0.0,-0.138,0.0,0.0,-0.4125,0.0,0.0,0.0,0.0,0.0,0.0401,0.0312,0.2407,0.5688,0.5688,0.4875,0.0,0.0,0.4514,0.3166,0.501,0.5688,0.5688,0.5688,0.5688,0.5688,0.5688,0.5688,0.5688,0.5688,0.5688,0.5544,0.4926,0.4831,0.436,0.2229,0.1619,0.1016,0.0,0.0,0.0,0.0,0.0,0.0,0.0,0.0,0.0,0.0,0.0,0.0,0.0,0.0,0.0,-0.6606,0.0,0.0,0.0,-0.4495,-0.2493,-0.209,-0.0723,0.0,0.0,0.0,0.0746,0.2282,0.1477,0.0895,0.0627,-0.0269,-0.0718,-0.0718,-0.0718,-0.0718,-0.0673,-0.0538,-0.0493,-0.0448,-0.0269,-0.018,-0.018,-0.018,-0.0135,-0.009,-0.009,0.0359,0.0942,0.0135,-0.018,-0.018,-0.5491,0.0,0.0,-0.525,0.0,0.0,-0.4321,0.0,0.0,0.0084,0.1364,0.0,0.5044,0.6017,0.659,0.6739,0.6742,0.0,0.5724,0.0,0.0,0.5557,0.4514,0.4313,0.5257,0.2533,0.0,0.0,0.0,0.0,-0.3767,0.0,0.0,0.0,0.0,-0.3038,0.0,0.1024,0.2764,0.465,0.5416,0.0,0.0,0.528,0.5055,0.4243,0.5327,0.5688,0.5688,0.5688,0.5688,0.5688,0.5688,0.5688,0.5688,0.5688,0.5688,0.5688,0.5688,0.5688,0.5445,0.4308,0.394,0.3304,0.1313,0.0758,0.0674,0.0,-0.0042,-0.0416,0.0,0.0,0.0,0.0,0.0,0.0,0.0,0.0,0.0,0.0,-0.5129,0.0,0.0,-0.3672,-0.1468,-0.2113,0.0,0.0,0.0,0.0,0.0953,0.1891,0.2313,0.2103,0.1254,0.0538,0.0,-0.0404,-0.0404,-0.0404,-0.0404,-0.0269,-0.0224,-0.0224,-0.0045,0.0,0.0045,0.0449,0.0629,0.0673,0.1077,0.1569,0.1973,0.148,0.1256,0.1256,0.0,0.0,0.0,0.0,0.0,0.0,0.0,-0.3459,0.0,0.0601,0.0,0.1937,0.4087,0.582,0.6944,0.7248,0.0,0.6638,0.516,0.6577,0.6652,0.4977,0.6337,0.7125,0.7125,0.5257,0.0,0.0,0.0,0.0,0.0,0.0,0.0,0.0,0.0,0.0,0.0,0.196,0.3434,0.3746,0.5186,0.5774,0.5774,0.5774,0.5774,0.5774,0.5777,0.5733,0.5688,0.5688,0.5688,0.5688,0.5688,0.5688,0.5688,0.5688,0.5688,0.5688,0.5688,0.5688,0.5688,0.5688,0.5688,0.5252,0.3479,0.3072,0.3072,0.3072,0.1702,0.1486,0.4733,0.0,0.0,0.0,0.0,0.0,0.0,0.0,0.0,0.0,0.0,0.0,0.0,0.0,0.0,0.0,0.0,0.0,0.0,0.0,0.1586,0.1382,0.3271,0.3494,0.1793,0.1659,0.1166,0.0359,0.0359,0.0314,0.018,0.018,0.0135,0.0,0.0,0.0,0.009,0.1032,0.148,0.1659,0.2419,0.2867,0.3092,0.3092,0.3179,0.3226,0.0,0.0,0.0,0.0,0.0,-0.1119,0.0523,0.1675,0.2657,0.3522,0.5121,0.6335,0.6873,0.7229,0.7476,0.7503,0.755,0.0,0.0,0.0,0.0,0.7082,0.7224,0.7329,0.7329,0.5342,0.3469,0.0,0.0,0.0,0.0,0.0,0.0,0.0,0.0,0.0,0.098,0.2942,0.0,0.5847,0.6166,0.6254,0.6254,0.6254,0.6254,0.6254,0.6083,0.5908,0.5688,0.5688,0.5688,0.5688,0.5688,0.5688,0.5688,0.5688,0.5688,0.5688,0.5688,0.5688,0.5688,0.5688,0.5688,0.5594,0.5255,0.5159,0.5159,0.5159,0.4875,0.4404,0.3613,0.0,0.0,0.0,0.0,0.0,0.0,0.0,0.0,0.0,0.0,0.0,0.0,0.0,0.0,0.0,0.0,0.0,0.0,0.0,0.1232,0.0,0.4467,0.0,0.0,0.0,0.2553,0.2376,0.2376,0.1973,0.1166,0.1166,0.0718,0.0,0.0,0.0,0.009,0.1032,0.1883,0.2553,0.1928,0.2643,0.4074,0.4074,0.4567,0.4971,0.0,0.0,0.0,0.0,0.0,0.0,0.0,0.5094,0.0,0.4634,0.5284,0.5969,0.6236,0.7124,0.774,0.7821,0.7828,0.7828,0.7828,0.7753,0.7709,0.7709,0.7567,0.0,0.7489,0.6457,0.4707,0.2264,0.0,0.0,-0.269,0.0,0.0,0.0,0.0,-0.1429,0.0,0.0,0.0,0.5171,0.6068,0.6384,0.6384,0.6384,0.6384,0.6384,0.6302,0.6169,0.6038,0.5952,0.5908,0.5908,0.5908,0.5908,0.5863,0.5733,0.5688,0.5688,0.5688,0.5688,0.5688,0.5688,0.5688,0.5688,0.5688,0.5688,0.5688,0.5688,0.5688,0.5156,0.3339,0.1567,0.0,0.0,0.0,0.0,0.0,0.0,0.0,0.0,0.0,0.0,0.0,0.0,0.0,0.0,0.0,0.0,0.0,0.0,0.0548,0.0,0.0,0.0,0.43,0.0,0.3405,0.2911,0.2911,0.2644,0.2196,0.2196,0.1928,0.1525,0.1525,0.1525,0.1569,0.2509,0.3494,0.43,0.3807,0.4208,0.5015,0.5015,0.5329,0.5555,0.0,-0.351,0.0,0.0,0.1893,0.0,0.5672,0.6975,0.7146,0.5576,0.5232,0.5267,0.5618,0.6967,0.7909,0.7978,0.7988,0.7988,0.7988,0.7877,0.7862,0.7862,0.7723,0.7645,0.7645,0.7495,0.6053,0.0,0.0,0.0,0.0,0.0,0.0,0.0,0.0,0.0,0.0,0.0,0.4842,0.5289,0.6416,0.6956,0.7085,0.6694,0.6694,0.6827,0.6564,0.6476,0.6476,0.6305,0.6216,0.6171,0.6171,0.6171,0.6127,0.5908,0.5863,0.5863,0.5863,0.5863,0.5863,0.5863,0.5863,0.5863,0.5863,0.5863,0.5863,0.5863,0.5863,0.5286,0.3511,0.2346,0.0,0.0,0.0,0.0,0.0,0.0,0.0,0.0,0.0,0.0,0.0,0.0,0.0,0.0,0.0,0.0,0.0,0.0,0.0,0.0,0.0,0.4707,0.3953,0.0,0.421,0.3494,0.3494,0.3403,0.3181,0.3181,0.3092,0.2911,0.2911,0.3001,0.3226,0.3762,0.4656,0.5688,0.5466,0.551,0.5688,0.5688,0.5688,0.5688,0.0,0.0,0.0,0.0,0.0,0.0,0.5089,0.6758,0.7848,0.7562,0.7495,0.755,0.7697,0.7865,0.7975,0.7988,0.7988,0.7988,0.7988,0.7975,0.7968,0.7968,0.7872,0.779,0.779,0.7651,0.6656,0.0,0.0,0.168,0.0,0.0,0.0,0.0,0.0,0.0,0.0,0.693,0.7956,0.9257,0.858,0.8798,0.9401,0.7661,0.7577,0.8149,0.7143,0.6748,0.6748,0.6751,0.6567,0.6387,0.6387,0.6387,0.6387,0.6343,0.6343,0.6343,0.6343,0.6343,0.6343,0.6343,0.6343,0.6343,0.6343,0.6343,0.6343,0.6343,0.6343,0.5808,0.4027,0.4903,0.5241,0.0,0.0,0.0,0.0,0.0,0.0,0.0,0.0,0.0,0.0,-0.0496,0.0,0.0,0.0,0.0,0.0,0.0,0.0,0.258,0.2848,0.2938,0.2852,0.4645,0.551,0.5419,0.5419,0.4971,0.4164,0.4164,0.3717,0.2911,0.2911,0.3405,0.4119,0.336,0.4076,0.5599,0.4748,0.4971,0.5688,0.5688,0.5688,0.5688,0.0,0.0,0.0,0.0,0.0,0.0,0.0,0.7885,0.7968,0.7907,0.7897,0.7921,0.7982,0.7988,0.7988,0.7988,0.7988,0.7988,0.7988,0.7988,0.7988,0.7988,0.7931,0.7897,0.7897,0.7801,0.7251,0.0,0.0,0.0,0.0,0.0,0.0,0.0,0.0,0.5911,0.7458,0.8483,0.9291,0.9879,0.9492,0.9231,0.8973,0.8233,0.7841,0.7665,0.7797,0.7801,0.7889,0.8492,0.7749,0.6656,0.6656,0.6656,0.6612,0.6432,0.6384,0.6384,0.6384,0.6384,0.6384,0.6384,0.6384,0.6384,0.6384,0.6384,0.6384,0.6384,0.6384,0.6189,0.5468,0.5087,0.499,0.5367,0.0,0.0,0.0,0.0,0.0,0.0,0.0,0.0,0.0,0.0,0.0,0.0,0.0,0.0,0.0,0.0,0.0,0.2845,0.0,0.4496,0.4496,0.5302,0.5688,0.5688,0.5688,0.5508,0.5151,0.5151,0.4926,0.4567,0.4567,0.479,0.5104,0.4748,0.5015,0.5644,0.5285,0.5374,0.5688,0.5688,0.5688,0.5688,0.5052,0.0,0.4968,0.0,0.7622,0.7841,0.9855,0.9536,0.9042,0.9042,0.9,0.8726,0.8088,0.7988,0.7988,0.7988,0.7988,0.7988,0.7988,0.7988,0.7988,0.7988,0.8283,0.0,0.8482,0.8706,0.8657,0.8339,0.5949,0.0,0.0,0.0,0.0,0.0,0.7418,0.8328,0.9035,1.0202,1.0702,1.0702,1.0399,0.9932,0.9283,0.9017,0.8492,0.8013,0.8667,0.893,0.9017,0.9662,0.8925,0.7665,0.7408,0.7098,0.6836,0.6653,0.6609,0.6609,0.6609,0.6609,0.6609,0.6609,0.6609,0.6609,0.6609,0.6609,0.6609,0.6609,0.6609,0.6609,0.6609,0.5594,0.5211,0.6596,0.0,0.0,0.0,0.0,0.0,0.0,0.4786,0.3832,0.3961,0.0,0.0,0.0,0.0,0.0,0.0,0.0,0.0,0.0,0.0,0.0,0.4826,0.5398,0.5688,0.5688,0.5688,0.5688,0.5688,0.5688,0.5688,0.5688,0.5688,0.5688,0.5688,0.5688,0.5688,0.5688,0.5688,0.5688,0.5688,0.5688,0.5733,0.5822,0.8021,0.8541,0.9236,1.0875,1.1385,1.1518,1.1573,1.1573,1.1573,1.1573,1.1347,1.0342,0.8233,0.7988,0.7988,0.7988,0.7988,0.7988,0.7988,0.7988,0.7988,0.0,0.0,0.9558,0.9558,1.0632,1.1114,1.0948,0.0,0.0,0.8479,0.0,0.722,0.9527,0.9279,1.0469,1.2656,1.2662,1.2662,1.2577,1.1671,1.1284,1.1149,1.0231,0.9879,0.9879,0.9879,0.9879,0.9879,0.9879,0.9879,0.9705,0.8759,0.7841,0.7095,0.7095,0.7095,0.7095,0.7095,0.7095,0.7095,0.7095,0.7095,0.7095,0.7095,0.7095,0.7095,0.7095,0.7095,0.7095,0.7095,0.7092,0.7007,0.6836,0.0,0.0,0.0,0.0,0.0,0.0,0.4017,0.3888,0.4359,0.3929,0.0,0.0,0.0,0.0,0.0,0.0,0.0,0.31,0.2842,0.0,0.2756,0.4685,0.5688,0.5688,0.5688,0.5688,0.5688,0.5688,0.5688,0.5688,0.5688,0.5688,0.5688,0.5688,0.5688,0.5688,0.5688,0.5688,0.5688,0.5688,0.5863,0.6083,1.1284,1.0844,1.0586,1.1107,1.1276,1.1318,1.1318,1.1318,1.1318,1.1318,1.1262,1.093,1.0243,1.0194,1.0194,0.0,1.0194,1.0194,0.0,1.0194,1.0194,1.0194,1.0489,1.0685,1.0685,1.1023,1.1526,1.2181,0.0,0.0,0.0,0.8971,1.0008,1.2254,1.217,1.2459,1.2988,1.2988,1.288,1.2662,1.2357,1.1886,1.1284,1.0971,1.0448,0.9966,1.0621,1.0842,1.0928,1.1574,1.1402,1.0799,1.0501,0.9753,0.9008,0.9008,0.9008,0.9008,0.9008,0.8536,0.8061,0.8061,0.758,0.7095,0.7095,0.7577,0.7885,0.7228,0.7621,0.8061,0.8061,0.8061,0.8017,0.7973,0.8017,0.0,0.7098,0.0,0.0,0.0,0.6092,0.6092,0.6224,0.5964,0.0,0.0,0.0,0.0,0.0,0.0,0.0,0.0,0.4637,0.0,0.5207,0.5874,0.6169,0.6169,0.6169,0.6169,0.6169,0.6169,0.6169,0.6169,0.6169,0.6169,0.6169,0.6169,0.6169,0.6169,0.6169,0.6169,0.6169,0.6169,0.6213,0.6299,1.3633,1.31,1.2655,1.2655,1.2728,1.283,1.283,1.2707,1.2655,1.2655,1.2503,1.2344,1.2344,1.2344,0.0,1.1268,1.1219,1.1219,1.1219,1.1219,1.1219,1.1219,1.156,1.1755,1.1755,1.2145,0.0,1.3318,1.1677,1.1138,1.162,1.1487,1.2262,1.3658,1.3556,1.3423,1.3272,1.3272,1.3169,1.3006,1.3006,1.2432,1.1629,1.1993,1.1541,1.0858,1.1669,1.1989,1.2059,1.2527,1.2314,1.1843,1.1843,1.1402,1.0788,1.0096,0.9879,0.9879,0.9879,0.9492,0.9017,0.9017,0.858,0.8141,0.8141,0.8623,0.8842,0.8273,0.8623,0.9017,0.9017,0.9017,0.9017,0.9017,0.9017,0.8842,0.8229,0.0,0.0,0.0,0.0,0.0,0.0,0.6726,0.6234,0.0,0.0,0.0,0.0,0.0,0.5233,0.4937,0.5893,0.6384,0.6384,0.6384,0.6384,0.6384,0.6384,0.6384,0.6384,0.6384,0.6384,0.6384,0.6384,0.6384,0.6384,0.6384,0.6384,0.6384,0.6384,0.6384,0.6384,0.6384,0.6476,0.6567,1.5113,1.5107,1.5107,1.5107,1.5312,1.5475,1.5475,1.5264,1.5107,1.5107,1.4648,1.4328,1.4328,1.431,1.3516,1.156,0.0,0.0,1.1414,1.1414,1.1414,1.1414,1.229,1.2829,1.2829,1.3806,1.4298,1.4298,1.4298,1.4298,1.4292,1.4045,1.393,1.3924,1.3676,1.3562,1.3544,1.3544,1.3532,1.3513,1.3513,1.3002,1.2301,1.319,1.2956,1.2274,1.2918,1.3151,1.3109,1.285,1.2759,1.2759,1.2759,1.2759,1.2404,1.0626,1.0096,1.0096,1.0096,1.0053,1.0009,1.0009,0.9966,0.9879,0.9879,0.9966,0.9966,0.9923,0.9966,1.0009,1.0009,1.0009,1.0009,1.0009,1.0009,0.9966,0.9923,0.9879,0.0,0.0,0.0,0.0,0.7405,0.6606,0.6715,0.0,0.0,0.0,0.0,0.0,0.4756,0.6745,0.6564,0.6428,0.6428,0.6428,0.6428,0.6428,0.6428,0.6428,0.6428,0.6428,0.6428,0.6428,0.6428,0.6428,0.6428,0.6428,0.6428,0.6428,0.6428,0.6428,0.6428,0.6428,0.6612,0.684,0.0,0.0,1.5107,1.5107,1.5161,1.5197,1.5197,1.5149,1.5107,1.5107,1.4823,1.4618,1.4618,1.4425,1.41,1.3613,1.3565,1.3565,1.3565,1.3565,1.3565,1.3565,1.3806,1.3902,1.3902,1.4148,1.4298,1.4298,1.4298,1.4298,1.4298,1.4238,1.4208,1.4201,1.4141,1.4002,1.3815,1.3815,1.3701,1.3513,1.3513,1.3377,1.319,1.3423,1.3377,1.3178,1.3351,1.3423,1.3411,1.3344,1.3326,1.3326,1.3326,1.3326,1.3153,1.2296,1.2052,1.2052,1.2052,1.1494,1.0971,1.0971,1.0448,0.9879,0.9879,1.0448,1.0755,1.0053,1.0448,1.0971,1.0971,1.0971,1.0971,1.0971,1.0971,1.0707,1.0009,0.9879,0.9726,0.0,0.9264,0.9264,0.9264,0.9048,0.8523,0.0,0.0,0.6866,0.6144,0.5595,0.5823,0.7003,0.6962,0.6918,0.6918,0.6918,0.6918,0.6918,0.6918,0.6918,0.6918,0.6918,0.6918,0.6918,0.6918,0.6918,0.6918,0.6918,0.6918,0.6918,0.6918,0.6918,0.6918,0.6918,0.6962,0.7071,1.5493,1.5469,1.5469,1.5469,1.5469,1.5469,1.5469,1.536,1.5288,1.5288,1.5059,1.4853,1.4733,1.4582,1.4437,1.4304,1.4298,1.4298,1.4298,1.4298,1.4298,1.4298,1.4298,1.4298,1.4298,1.4298,1.4298,1.4298,1.4298,1.4298,1.4298,1.4298,1.4298,1.4298,1.4298,1.422,1.4087,1.4087,1.4002,1.3876,1.3876,1.3876,1.3876,1.3876,1.3876,1.3857,1.3737,1.3694,1.3676,1.3556,1.3513,1.3513,1.3513,1.3513,1.3459,1.3163,1.2988,1.2868,1.2741,1.2314,1.1929,1.1929,1.1574,1.1182,1.1182,1.1574,1.1794,1.1268,1.1574,1.1929,1.1929,1.1929,1.1929,1.1929,1.1038,1.0527,1.1117,1.0257,0.9966,1.1037,1.1182,1.1182,1.1182,1.0794,1.0125,0.9161,0.8679,0.0,0.7694,0.7655,0.7494,0.7092,0.7095,0.7095,0.7095,0.7095,0.7095,0.7095,0.7095,0.7095,0.7095,0.7095,0.7095,0.7095,0.7095,0.7095,0.7095,0.7095,0.7095,0.7095,0.7095,0.7095,0.7095,0.7095,0.7139,0.7258,1.5891,1.5891,1.5891,1.5891,1.5891,1.5891,1.5891,1.5698,1.5559,1.5559,1.533,1.5083,1.4859,1.4769,1.4618,1.4383,1.4322,1.4298,1.4298,1.4298,1.4298,1.4298,1.4298,1.4298,1.4298,1.4298,1.4298,1.4298,1.4298,1.4298,1.4298,1.4298,1.4298,1.4298,1.4298,1.4298,1.4298,1.4298,1.4298,1.4298,1.4298,1.4298,1.4298,1.4298,1.4298,1.4268,1.4045,1.3966,1.393,1.3707,1.3634,1.3634,1.3634,1.3634,1.3628,1.3586,1.3417,1.3131,1.285,1.2735,1.2705,1.2705,1.2705,1.2705,1.2705,1.2705,1.2705,1.2705,1.2705,1.2705,1.2705,1.2705,1.2559,1.225,1.0784,1.0301,1.1954,0.0,1.0489,1.2456,1.2705,1.2705,1.2705,1.1972,1.1499,1.1499,1.075,1.0269,1.0139,1.0096,0.9314,0.7577,0.7533,0.7445,0.7316,0.7183,0.7095,0.7095,0.7095,0.7095,0.7095,0.7095,0.7095,0.7095,0.7095,0.7095,0.7095,0.7095,0.7183,0.7316,0.7316,0.7401,0.7536,0.7561,0.7703,0.7829,1.5891,1.5891,1.5891,1.5891,1.5891,1.5891,1.5891,1.5855,1.5831,1.5831,1.5602,1.5421,1.5384,1.498,1.4702,1.4654,1.4431,1.4298,1.4298,1.4298,1.4298,1.4298,1.4298,1.4298,1.4298,1.4298,1.4298,1.4298,1.4298,1.4298,1.4298,1.4298,1.4298,1.4298,1.4298,1.4298,1.4298,1.4298,1.4298,1.4298,1.4298,1.4298,1.4298,1.4298,1.4298,1.4292,1.425,1.4238,1.4226,1.4189,1.4177,1.4177,1.4177,1.4177,1.4129,1.3912,1.3815,1.3676,1.3188,1.2886,1.2705,1.2705,1.2705,1.2705,1.2705,1.2705,1.2705,1.2705,1.2705,1.2705,1.2705,1.2705,1.2051,1.0065,1.1117,1.1606,0.9971,0.0,1.2304,1.2656,1.2705,1.2705,1.2705,1.2577,1.2485,1.2485,1.2357,1.1923,1.1149,1.1063,1.0582,0.9488,0.9444,0.91,0.8281,0.7492,0.7095,0.7095,0.7095,0.7095,0.7095,0.7095,0.7095,0.7095,0.7095,0.7095,0.7095,0.7095,0.7577,0.8281,0.8281,0.8755,0.951,0.9731,0.9817,0.9894,1.6311,1.6311,1.6311,1.6311,1.6311,1.6311,1.6311,1.6311,1.6311,1.6311,1.6206,1.607,1.5927,1.5685,1.5531,1.5388,1.5307,1.5164,1.4966,1.4521,1.4298,1.4298,1.4298,1.4298,1.4298,1.4298,1.4298,1.4298,1.4298,1.4298,1.4298,1.4298,1.4298,1.4298,1.4298,1.4298,1.4298,1.4298,1.4298,1.4298,1.4298,1.4298,1.4298,1.4298,1.4298,1.4298,1.4298,1.4298,1.4298,1.4298,1.4298,1.4298,1.4298,1.4298,1.4274,1.4153,1.3918,1.364,1.3399,1.3139,1.2928,1.2928,1.2819,1.2705,1.2705,1.2705,1.2705,1.2705,1.2705,1.2705,1.2705,1.2705,1.2353,1.1266,1.0927,1.0879,1.1069,1.0927,1.1271,1.2553,1.2705,1.2705,1.2705,1.2705,1.2705,1.2705,1.2705,1.2528,1.21,1.2057,1.1837,1.144,1.0443,0.9705,0.9274,0.8838,0.8619,0.8619,0.8619,0.836,0.7841,0.7841,0.758,0.7139,0.7625,0.7841,0.7885,0.8404,0.8882,0.9288,0.9398,0.9748,1.017,1.0429,1.0577,1.0696,1.6677,1.6677,1.6677,1.6677,1.6677,1.6677,1.6677,1.6677,1.6677,1.6677,1.6677,1.6594,1.6437,1.6355,1.6234,1.6081,1.6005,1.5877,1.5611,1.5046,1.4624,1.44,1.4346,1.4298,1.4298,1.4298,1.4298,1.4298,1.4298,1.4298,1.4298,1.4298,1.4298,1.4298,1.4298,1.4298,1.4298,1.4298,1.4298,1.4298,1.4298,1.4298,1.4298,1.4298,1.4298,1.4298,1.4298,1.4298,1.4298,1.4298,1.4298,1.4298,1.4298,1.4298,1.4298,1.4298,1.4014,1.3682,1.3622,1.3417,1.32,1.3139,1.2964,1.2783,1.2717,1.2705,1.2705,1.2705,1.2705,1.2705,1.2705,1.2705,1.2504,1.196,0.0,1.0447,1.1708,1.0826,1.0689,1.2504,1.2705,1.2705,1.2705,1.2705,1.2705,1.2705,1.2705,1.2705,1.2705,1.2705,1.2705,1.2705,1.1095,1.0231,1.0231,1.0062,0.9998,0.9998,0.9998,0.9609,0.8909,0.8867,0.8452,0.7797,0.8584,0.8914,0.8958,0.9747,1.0201,1.0436,1.0657,1.086,1.1071,1.1334,1.1522,1.1669,1.6677,1.6677,1.6677,1.6677,1.6677,1.6677,1.6677,1.6677,1.6677,1.6677,1.6677,1.667,1.6651,1.6475,1.631,1.6291,1.6113,1.601,1.5941,1.5915,1.5518,1.4712,1.4442,1.4298,1.4298,1.4298,1.4298,1.4298,1.4298,1.4298,1.4298,1.4298,1.4298,1.4298,1.4298,1.4298,1.4298,1.4298,1.4298,1.4298,1.4298,1.4298,1.4298,1.4298,1.4298,1.4298,1.4298,1.4298,1.4298,1.4298,1.4298,1.4298,1.4298,1.4298,1.4298,1.4298,1.4268,1.4183,1.3942,1.3682,1.3429,1.3143,1.3109,1.3025,1.2765,1.2705,1.2705,1.2705,1.2705,1.2705,1.2705,1.2705,1.2003,0.9826,0.0,0.0,0.9737,1.117,1.2504,1.2662,1.2705,1.2705,1.2705,1.2705,1.2705,1.2705,1.2705,1.2705,1.2705,1.2705,1.2705,1.2705,1.1709,1.1192,1.1192,1.0573,1.027,1.027,1.027,1.0225,1.0176,0.9929,0.9749,0.9719,1.0051,1.018,1.0199,1.0524,1.1146,1.1922,1.1944,1.2507,1.3286,1.3594,1.3648,1.3702,1.7259,1.7259,1.7259,1.7259,1.7259,1.7259,1.7259,1.7259,1.7259,1.7259,1.7259,1.7259,1.7259,1.7167,1.7101,1.7101,1.7055,1.6923,1.6746,1.6733,1.6275,1.5265,1.4925,1.479,1.479,1.479,1.479,1.479,1.479,1.479,1.479,1.479,1.479,1.479,1.479,1.479,1.479,1.479,1.479,1.479,1.479,1.4688,1.4544,1.4544,1.4442,1.4298,1.4298,1.4298,1.4298,1.4298,1.4394,1.4544,1.4544,1.464,1.479,1.479,1.479,1.4765,1.4659,1.4194,1.3731,1.3634,1.3363,1.3053,1.2988,1.2831,1.2705,1.2705,1.2705,1.2705,1.2705,1.2705,1.2401,1.151,0.0,1.2577,1.151,1.2408,1.3094,1.2966,1.3052,1.3137,1.3137,1.3137,1.3094,1.2966,1.2966,1.2881,1.2705,1.2875,1.3009,1.3137,1.2948,1.2729,1.2435,1.2175,1.221,1.2541,1.2541,1.231,1.1887,1.161,1.121,1.068,1.1171,1.1439,1.149,1.2131,1.2637,1.2968,1.317,1.3425,1.3791,1.4051,1.4147,1.4165,1.7582,1.7582,1.7582,1.7582,1.7582,1.7582,1.7582,1.7582,1.7582,1.7582,1.7582,1.7582,1.7582,1.7582,1.7582,1.7582,1.7582,1.7502,1.7347,1.7253,1.6782,1.5797,1.5405,1.5216,1.5216,1.5127,1.5083,1.5083,1.5083,1.5083,1.5083,1.5083,1.5083,1.5083,1.5083,1.5083,1.5083,1.5083,1.5083,1.5083,1.5083,1.4987,1.4838,1.4838,1.464,1.4442,1.4442,1.4442,1.4394,1.4346,1.4496,1.4688,1.4688,1.4885,1.5083,1.5083,1.5083,1.5083,1.5083,1.47,1.4249,1.4157,1.3863,1.3544,1.3378,1.3188,1.3022,1.2936,1.2918,1.2918,1.2918,1.2918,1.2918,1.2918,1.3052,1.3137,1.296,1.3179,1.3355,1.3222,1.3313,1.3398,1.3398,1.3398,1.3355,1.3185,1.3179,1.3094,1.2918,1.3094,1.3308,1.3519,1.3709,1.3718,1.3587,1.3593,1.3775,1.4143,1.4143,1.3902,1.3473,1.3207,1.2711,1.2118,1.2699,1.2917,1.2969,1.3719,1.3998,1.4016,1.42,1.4268,1.4292,1.4476,1.4544,1.4544,1.7582,1.7582,1.7582,1.7582,1.7582,1.7582,1.7582,1.7582,1.7582,1.7582,1.7582,1.7582,1.7582,1.7582,1.7582,1.7582,1.7582,1.7582,1.7582,1.7367,1.6925,1.6345,1.5797,1.5496,1.5496,1.5229,1.5131,1.5131,1.5131,1.5131,1.5131,1.5131,1.5131,1.5131,1.5131,1.5131,1.5131,1.5131,1.5131,1.5131,1.5131,1.5083,1.5083,1.5083,1.4933,1.4688,1.4688,1.4688,1.464,1.4394,1.449,1.4694,1.4694,1.4885,1.5131,1.5131,1.5131,1.5131,1.5131,1.5131,1.5061,1.4767,1.4691,1.4537,1.3938,1.3811,1.3729,1.3455,1.3398,1.3398,1.3398,1.3398,1.3398,1.3398,1.3398,1.3398,1.3398,1.3398,1.3398,1.3398,1.3398,1.3398,1.3398,1.3398,1.3398,1.3398,1.3398,1.3398,1.3398,1.3398,1.3525,1.3798,1.3811,1.4078,1.4684,1.4684,1.4684,1.4691,1.4691,1.4691,1.4684,1.4449,1.4327,1.434,1.4569,1.4691,1.4716,1.501,1.5083,1.5083,1.5083,1.5083,1.5083,1.5083,1.5083,1.5083,1.7622,1.7582,1.7582,1.7582,1.7582,1.7582,1.7582,1.7582,1.7582,1.7582,1.7582,1.7582,1.7582,1.7582,1.7582,1.7582,1.7582,1.7582,1.7582,1.7554,1.7415,1.7224,1.6645,1.6233,1.6084,1.5992,1.5846,1.5594,1.5594,1.5594,1.5594,1.5594,1.5594,1.5594,1.5594,1.5594,1.5594,1.5594,1.5594,1.5594,1.5594,1.5499,1.5356,1.5356,1.522,1.4987,1.4987,1.4987,1.4981,1.4885,1.5022,1.5302,1.5445,1.5547,1.5594,1.5594,1.5594,1.5594,1.5594,1.5594,1.548,1.5063,1.4844,1.464,1.4474,1.4289,1.4065,1.3741,1.3684,1.3627,1.343,1.3398,1.3398,1.3398,1.3525,1.3568,1.3434,1.3695,1.3828,1.3652,1.3786,1.387,1.387,1.387,1.3828,1.361,1.3476,1.3483,1.361,1.384,1.4076,1.4291,1.4686,1.5028,1.5206,1.4876,1.488,1.5267,1.5267,1.5321,1.5456,1.523,1.5144,1.515,1.5006,1.4997,1.5003,1.5045,1.5083,1.5083,1.5083,1.5083,1.5083,1.5083,1.5083,1.5083,1.7802,1.7669,1.7582,1.7582,1.7582,1.7582,1.7582,1.7582,1.7582,1.7582,1.7582,1.7582,1.7582,1.7582,1.7582,1.7582,1.7582,1.7582,1.7582,1.7582,1.7582,1.7582,1.7241,1.6914,1.6677,1.6442,1.6186,1.6005,1.5838,1.5784,1.5784,1.5784,1.5784,1.5784,1.5784,1.5784,1.5784,1.5784,1.5784,1.5784,1.5784,1.573,1.5635,1.5635,1.5452,1.5267,1.5267,1.5267,1.522,1.5131,1.5267,1.554,1.5635,1.573,1.5784,1.5784,1.5784,1.5784,1.5784,1.5784,1.5832,1.5927,1.555,1.5105,1.4994,1.4839,1.4637,1.4345,1.4293,1.4202,1.3873,1.3821,1.3782,1.3672,1.3786,1.3822,1.3701,1.3913,1.4046,1.387,1.3997,1.4088,1.4088,1.4088,1.4046,1.387,1.3841,1.3906,1.3992,1.4311,1.461,1.4863,1.5211,1.5451,1.5565,1.5284,1.5323,1.5635,1.5635,1.5683,1.5784,1.5683,1.5635,1.5588,1.5458,1.5363,1.5363,1.5363,1.5363,1.5363,1.5363,1.5363,1.5363,1.5363,1.5363,1.5363,1.8002,1.7816,1.7615,1.7589,1.7582,1.7582,1.7582,1.7582,1.7582,1.7582,1.7582,1.7582,1.7582,1.7582,1.7582,1.7582,1.7582,1.7582,1.7582,1.7582,1.7582,1.7582,1.7582,1.7514,1.7246,1.669,1.6375,1.6321,1.6005,1.5804,1.5784,1.5784,1.5825,1.592,1.592,1.5967,1.6062,1.6062,1.6062,1.6062,1.6062,1.6062,1.6062,1.6062,1.5961,1.5771,1.5771,1.5771,1.573,1.541,1.5452,1.5635,1.554,1.5635,1.5825,1.5927,1.592,1.5967,1.6062,1.6062,1.6298,1.7232,1.6763,1.5987,1.5769,1.5708,1.562,1.5237,1.5176,1.5044,1.4616,1.4563,1.4476,1.4208,1.4142,1.4128,1.4128,1.4108,1.4088,1.4088,1.4088,1.4095,1.4122,1.4148,1.4162,1.4162,1.4409,1.4563,1.4563,1.4843,1.5169,1.5391,1.5424,1.5565,1.5778,1.5784,1.5784,1.5784,1.5784,1.5784,1.5784,1.5784,1.5784,1.5784,1.5784,1.5784,1.5784,1.5784,1.5784,1.5784,1.5784,1.5784,1.5784,1.5784,1.5784,1.5784,1.8082,1.7935,1.7869,1.7622,1.7582,1.7582,1.7582,1.7582,1.7582,1.7582,1.7582,1.7582,1.7582,1.7582,1.7582,1.7582,1.7582,1.7582,1.7582,1.7582,1.7582,1.7582,1.7582,1.7555,1.7488,1.7192,1.6784,1.6321,1.6213,1.6059,1.5784,1.5784,1.6204,1.6951,1.6951,1.7412,1.8141,1.8141,1.8141,1.8141,1.8141,1.8141,1.8141,1.8141,1.8141,1.8095,1.8095,1.8095,1.7956,1.7091,1.6864,1.6763,1.5967,1.5778,1.5967,1.6716,1.6951,1.7138,1.7963,1.8141,1.8187,1.8419,1.8334,1.8126,1.8095,1.808,1.7758,1.6701,1.65,1.6142,1.5095,1.4914,1.4888,1.4827,1.4576,1.4429,1.4429,1.4229,1.4088,1.4088,1.4088,1.4175,1.4402,1.4636,1.4821,1.4821,1.4874,1.4914,1.4914,1.5144,1.5331,1.5391,1.5618,1.5718,1.5784,1.5784,1.5784,1.5784,1.5784,1.5784,1.5784,1.5784,1.5784,1.5784,1.5784,1.5784,1.5784,1.5784,1.5784,1.5784,1.5784,1.5784,1.5784,1.5784,1.5784,1.5778,1.8468,1.8189,1.7942,1.7836,1.7682,1.7582,1.7582,1.7582,1.7786,1.8304,1.8356,1.8558,1.9131,1.9183,1.8975,1.8408,1.8356,1.8356,1.8356,1.8871,1.9183,1.9183,1.9183,1.9183,1.9183,1.9023,1.8245,1.6737,1.6946,1.6911,1.6751,1.7062,1.7498,1.8017,1.8017,1.8288,1.8788,1.8788,1.8788,1.8788,1.8788,1.8788,1.8788,1.8788,1.8788,1.8788,1.8788,1.8788,1.8703,1.8195,1.8017,1.7917,1.7404,1.7217,1.7311,1.787,1.8017,1.8149,1.8657,1.8788,1.8934,1.9384,1.9521,1.9384,1.8926,1.8788,1.8602,1.7957,1.7835,1.7546,1.6735,1.6587,1.6535,1.6382,1.5819,1.5406,1.5406,1.4895,1.4546,1.4546,1.4546,1.4774,1.5348,1.5553,1.5873,1.636,1.6499,1.6587,1.6587,1.6398,1.6297,1.6297,1.5981,1.5784,1.5784,1.5784,1.5784,1.5784,1.5784,1.5784,1.5784,1.5784,1.5784,1.5784,1.5784,1.5784,1.5784,1.5784,1.5784,1.5784,1.5784,1.5784,1.5784,1.5784,1.5784,1.5784,1.8931,1.8475,1.8109,1.8009,1.7836,1.7695,1.7852,1.7891,1.8251,1.9332,1.9487,1.9849,2.0783,2.0885,2.0526,1.9591,1.9487,1.9487,1.9487,2.0372,2.0885,2.0885,2.0885,2.0885,2.0885,2.0885,1.9844,1.7756,1.8085,1.8208,1.8089,1.8645,1.8936,1.9063,1.9063,1.9155,1.9301,1.9301,1.9301,1.9301,1.9301,1.9301,1.9301,1.9301,1.9301,1.9301,1.9301,1.9301,1.9247,1.9109,1.9063,1.9018,1.8834,1.8788,1.8834,1.9018,1.9063,1.9109,1.9255,1.9301,1.9476,2.0348,2.0529,2.0303,1.9484,1.9301,1.9255,1.9109,1.9063,1.8929,1.8451,1.8404,1.8308,1.8109,1.7295,1.6721,1.6721,1.6034,1.5486,1.5486,1.5535,1.5869,1.664,1.678,1.7165,1.7974,1.8281,1.8404,1.8404,1.7865,1.7559,1.7559,1.6763,1.6251,1.6062,1.6062,1.5967,1.5784,1.5784,1.5784,1.5784,1.5784,1.5784,1.5784,1.5784,1.5784,1.5784,1.5784,1.5784,1.5784,1.5784,1.5784,1.5784,1.5784,1.5784,1.5784,1.8978,1.8858,1.8588,1.8082,1.7955,1.8204,1.8862,1.8968,1.9383,2.0526,2.0672,2.0731,2.0885,2.0885,2.0834,2.068,2.0672,2.0672,2.0672,2.0834,2.0885,2.0885,2.0885,2.0885,2.0885,2.0885,2.0609,1.9953,2.0017,1.9753,1.9209,1.9304,1.9578,2.0113,2.0113,2.0529,2.132,2.132,2.132,2.132,2.132,2.132,2.132,2.132,2.132,2.132,2.132,2.132,2.1186,2.0348,2.0113,1.9931,1.9063,1.8788,1.8972,1.984,2.0113,2.0257,2.1087,2.132,2.132,2.1463,2.1508,2.1463,2.132,2.132,2.1087,2.0249,2.0113,1.9824,1.8907,1.8716,1.87,1.8698,1.83,1.8058,1.8058,1.7718,1.7494,1.7494,1.77,1.7879,1.8013,1.8334,1.8508,1.8653,1.8692,1.8716,1.8716,1.8626,1.8603,1.8603,1.8473,1.7963,1.7099,1.7091,1.6676,1.5784,1.5784,1.5784,1.5784,1.5784,1.5784,1.5784,1.5784,1.5784,1.5784,1.5784,1.5784,1.5784,1.5784,1.5784,1.5784,1.5784,1.5784,1.5784,2.121,2.1033,2.0759,2.0278,2.0049,1.9978,2.0109,2.0158,2.057,2.165,2.181,2.2064,2.2669,2.2165,2.181,2.181,2.181,2.181,2.181,2.2367,2.2719,2.2719,2.2719,2.2719,2.2719,2.2719,2.2691,2.2518,2.1652,2.108,2.0797,2.0964,2.1145,2.1399,2.1185,2.132,2.1696,2.1696,2.1696,2.1696,2.1696,2.1696,2.1696,2.1696,2.1696,2.1696,2.1696,2.1696,2.1642,2.1221,2.1087,2.0997,2.0538,2.0402,2.0492,2.0952,2.1087,2.1177,2.1597,2.1696,2.1696,2.1696,2.1696,2.1696,2.1696,2.1696,2.1597,2.1177,2.1087,2.0952,2.0492,2.0402,2.0402,2.0402,1.9842,1.9417,1.9417,1.8828,1.8417,1.8417,1.8507,1.8784,1.9364,1.9558,1.9849,2.0402,2.0402,2.0402,2.0402,1.994,1.9658,1.9658,1.9109,1.8611,1.8149,1.8149,1.7917,1.7498,1.7498,1.6897,1.5784,1.5784,1.5784,1.5784,1.5784,1.5784,1.5784,1.5784,1.5784,1.5879,1.644,1.699,1.7498,1.7498,1.7498,1.7498]}]]